GFSCGP_prec_cthk_000.txt.gz
RH
15 21 23 20 20 20 20 19 23 24 24 23 22 24 21 21 21 19 18 18 21 23 24 26 28 29 32 35 37 38 38 40 43 44 46 47 48 48 48 49 49 51 53 55
18 21 22 20 21 21 21 21 24 22 23 25 24 23 20 20 22 23 24 22 28 29 29 29 32 36 38 41 41 44 47 48 50 49 49 50 50 50 51 53 54 55 56 58
18 18 19 19 20 22 22 22 23 27 27 28 27 24 22 23 24 26 27 28 30 32 34 32 34 37 41 41 42 45 49 52 53 52 50 49 49 50 51 53 54 56 55 57
17 21 20 19 24 23 24 23 26 29 31 36 31 39 30 29 29 30 31 31 33 36 36 36 39 40 41 41 43 44 48 50 51 52 53 53 52 53 56 57 58 59 59 59
22 21 25 27 27 27 26 26 28 30 36 37 38 40 37 36 35 34 37 39 40 40 40 43 44 46 46 47 49 53 55 56 58 61 59 55 53 51 54 57 60 60 61 60
26 25 27 30 32 30 29 29 31 38 40 48 40 42 48 45 44 46 47 45 44 46 52 57 57 54 55 56 58 58 60 64 65 67 68 61 56 55 59 62 64 64 68 68
34 31 31 32 32 30 34 37 49 49 56 56 45 45 43 46 48 49 52 55 58 62 65 62 60 60 60 63 64 69 73 75 74 78 71 66 60 58 58 60 60 63 68 70
46 46 37 35 34 38 41 42 55 59 64 57 44 47 46 46 50 52 55 60 66 66 64 60 60 64 68 70 71 73 74 72 69 66 65 61 58 58 58 57 55 54 64 67
52 47 40 38 38 42 44 49 47 55 68 69 56 48 43 50 55 57 58 62 62 60 60 60 65 68 68 68 74 76 71 66 61 56 55 55 55 55 55 52 50 48 52 60
49 53 45 43 43 47 47 47 60 69 77 84 67 58 56 53 57 58 64 61 60 60 65 64 64 67 68 67 69 69 71 66 61 58 57 54 54 52 52 49 50 55 60 67
50 53 50 47 52 54 51 60 64 67 76 86 90 70 54 55 64 68 69 67 66 68 66 65 66 69 72 71 68 66 62 61 57 55 54 52 51 50 49 51 58 64 68 75
52 55 62 55 56 55 55 59 65 80 77 79 87 66 52 59 60 65 65 67 70 70 68 70 70 71 68 63 62 61 59 57 55 52 50 50 50 51 55 59 64 70 73 76
51 54 59 50 55 53 53 49 58 66 73 77 84 69 55 61 68 66 70 71 74 73 72 69 68 66 63 60 59 56 55 54 52 51 50 49 52 53 56 60 69 73 76 79
45 48 51 59 55 62 57 47 53 63 75 73 64 65 61 68 67 69 72 73 74 72 70 69 68 66 65 64 61 55 54 55 52 49 50 50 52 58 59 66 71 78 84 90
49 55 55 55 57 62 56 57 60 65 59 73 61 61 60 65 67 71 73 73 72 75 75 72 69 70 70 62 58 54 54 53 50 51 52 53 58 65 69 74 77 87 95 88
50 58 63 56 59 67 62 60 60 60 60 61 61 58 66 72 76 77 76 72 72 77 79 78 75 67 64 59 55 53 57 53 50 56 62 66 71 79 84 89 95 93 92 89
55 61 70 64 71 76 66 57 54 55 52 57 64 63 68 73 77 82 78 72 78 84 80 70 66 66 62 55 57 58 52 51 52 59 68 75 84 88 92 91 90 91 89 86
54 66 76 83 83 88 54 52 53 56 58 57 65 69 71 73 71 71 79 82 86 81 66 64 70 64 62 64 60 54 54 55 59 61 68 81 87 92 91 89 86 88 85 67
64 77 83 84 88 73 60 56 58 64 65 65 70 68 67 67 67 68 72 79 84 76 74 67 71 73 69 65 62 65 67 67 72 66 74 79 90 95 91 89 81 74 61 48
72 77 81 85 90 84 61 59 62 70 72 70 70 69 72 76 79 74 80 85 85 84 81 75 71 74 74 72 68 74 77 79 79 75 82 92 93 89 82 77 67 56 48 40
81 85 84 87 87 77 60 63 73 81 70 75 73 74 77 82 87 89 90 84 79 79 73 75 70 65 68 72 72 81 78 77 81 89 94 90 84 76 67 59 54 47 39 34
77 86 89 87 91 87 72 80 89 85 81 81 70 74 83 85 88 90 88 86 84 70 69 64 58 62 68 69 77 78 77 81 85 90 86 74 65 59 56 51 45 39 37 36
85 83 82 79 78 72 78 81 79 84 82 75 80 85 88 86 85 85 82 77 64 69 70 65 64 68 67 78 76 65 76 84 87 79 64 56 54 51 48 42 40 41 41 38
89 84 80 89 68 75 80 75 77 80 80 83 82 81 82 79 84 85 87 82 75 66 63 66 69 74 74 78 76 78 86 85 71 59 53 51 49 46 43 43 45 49 46 42
91 89 92 86 80 78 79 79 80 86 85 79 84 92 95 83 71 72 76 71 61 55 61 67 73 82 84 79 79 84 81 69 58 54 51 48 46 44 46 52 55 57 56 54
86 84 91 80 84 84 72 80 81 79 78 90 92 95 84 75 72 74 69 63 57 58 64 71 72 73 76 80 83 81 71 61 56 51 45 43 45 47 51 58 62 69 67 65

GFSCGP_prec_cthk_003.txt.gz
RH
16 20 21 20 20 19 20 22 22 23 22 23 23 24 21 20 21 22 21 21 24 27 30 31 31 34 39 41 43 44 45 48 50 50 49 47 49 48 46 45 46 49 51 52
17 20 20 20 19 20 22 23 22 20 23 26 26 24 21 22 22 23 25 27 27 29 32 32 35 39 43 44 44 45 49 52 55 54 51 52 52 51 50 50 50 51 53 54
18 18 19 19 21 22 22 22 23 27 28 28 29 26 25 26 25 27 29 30 32 34 37 39 42 43 45 47 50 52 53 53 54 55 58 58 56 55 52 51 48 50 52 52
19 20 22 23 24 25 25 24 26 29 32 36 31 36 35 30 31 33 33 34 36 38 39 40 43 45 49 52 51 51 53 56 55 56 56 56 56 55 54 52 49 49 54 56
24 22 25 28 29 27 27 26 29 31 37 38 36 39 37 36 35 36 38 40 41 40 41 44 46 51 55 52 55 57 59 60 60 62 62 61 59 54 49 47 45 46 49 53
31 28 29 32 32 31 29 30 33 39 40 46 40 42 41 41 42 42 44 46 47 48 50 52 56 60 58 59 60 61 63 62 62 64 62 59 57 52 48 47 48 49 50 51
36 36 36 36 36 34 34 35 47 47 54 52 43 43 43 45 48 50 54 56 56 57 57 57 59 61 64 65 62 62 61 61 59 58 56 58 56 53 52 52 52 50 48 47
47 43 40 39 37 39 39 41 53 53 62 56 45 51 48 48 53 56 61 60 58 58 61 63 66 64 67 65 62 61 61 60 57 55 53 53 54 54 53 51 48 45 42 42
53 46 42 42 40 42 43 50 47 58 68 68 57 52 47 51 57 58 57 56 59 60 66 67 67 66 67 63 61 58 56 54 52 51 51 51 50 48 45 46 45 42 42 44
50 55 46 43 44 45 46 48 58 66 73 75 62 56 51 51 57 51 53 57 58 62 65 66 66 70 67 64 61 60 60 60 58 57 53 47 44 39 39 42 44 47 51 55
48 52 48 46 48 50 52 58 59 62 70 74 79 62 52 52 53 55 59 63 65 68 69 70 72 74 71 69 65 61 61 61 57 53 51 43 38 36 38 43 46 52 56 61
48 49 53 46 45 46 49 56 59 70 67 69 75 60 51 57 60 63 67 70 68 66 68 72 75 77 74 72 69 62 60 57 54 51 50 46 41 37 40 41 44 53 63 73
44 49 54 48 52 48 51 52 57 63 69 73 77 64 52 57 62 63 65 66 67 66 65 66 69 70 71 73 76 68 64 57 56 54 52 44 39 38 42 50 55 60 72 81
43 48 49 58 50 53 53 55 59 65 75 74 67 60 55 57 56 59 63 65 68 69 70 72 76 71 72 72 70 63 53 54 55 52 49 47 47 50 58 65 68 72 81 89
47 51 49 53 57 58 54 57 57 64 62 72 59 59 52 55 63 67 68 71 72 69 68 70 77 72 66 67 63 57 55 55 52 51 52 56 63 59 67 71 74 83 91 96
49 53 54 52 54 59 59 59 64 60 60 62 60 58 55 60 65 69 69 71 72 72 71 70 69 66 67 65 67 70 65 59 53 50 52 59 66 74 81 86 89 97 95 96
57 62 71 65 67 74 63 60 61 59 57 59 64 60 59 65 67 66 64 68 68 69 75 75 72 68 64 65 74 71 63 60 56 58 66 74 83 75 86 91 96 95 94 93
57 67 74 78 80 87 54 55 56 59 59 58 66 67 68 69 67 69 74 74 77 78 76 73 68 71 75 80 76 68 67 69 74 72 78 81 80 76 87 95 92 89 87 84
61 72 79 83 89 76 62 58 58 60 63 64 73 72 74 77 77 72 75 82 81 80 76 75 81 79 80 71 65 66 65 71 76 77 84 83 84 81 87 84 81 77 72 67
73 80 85 87 93 87 63 64 65 71 77 76 77 82 81 85 87 80 86 89 85 82 75 75 80 74 69 67 69 67 62 70 74 75 79 84 88 83 75 69 65 61 59 54
82 86 88 88 90 81 65 68 70 85 80 79 82 83 84 90 88 87 87 88 87 76 70 73 67 62 56 64 71 65 53 62 72 76 79 80 73 63 59 57 56 50 43 39
83 86 87 89 93 86 71 78 86 84 82 81 82 83 85 87 84 80 82 80 76 83 80 70 58 52 58 68 76 62 57 67 77 82 78 64 56 55 53 48 43 40 40 42
89 79 83 85 85 76 80 82 82 86 83 82 85 88 90 84 80 86 80 77 76 81 70 59 58 54 62 71 77 72 71 78 83 77 64 56 53 49 43 39 39 43 47 50
92 82 87 92 81 77 84 82 86 87 84 89 90 86 81 77 85 76 77 82 83 67 58 55 56 59 67 74 70 74 81 85 77 67 57 51 43 38 41 42 47 51 54 58
90 89 96 90 88 82 80 83 92 92 94 87 86 82 80 78 71 70 72 73 74 61 58 61 62 59 58 59 61 73 80 80 70 59 49 41 41 46 44 51 59 64 73 71
81 86 97 92 83 84 81 86 99 93 90 84 77 71 69 67 53 54 55 59 58 61 56 55 58 54 61 71 79 79 79 75 60 43 43 46 45 44 55 62 72 81 77 73

GFSCGP_prec_cthk_006.txt.gz
RH
17 20 22 21 19 20 20 22 23 20 21 23 25 26 22 21 23 24 24 25 24 27 30 31 33 35 37 43 49 51 50 51 52 54 54 53 53 50 50 50 48 49 48 48
17 19 20 21 20 20 21 23 22 22 23 25 28 27 23 24 24 25 26 27 28 29 30 32 34 37 43 48 53 54 53 58 56 55 55 56 56 56 55 56 53 49 48 46
18 19 19 19 22 24 24 22 24 26 27 28 30 28 28 26 27 28 29 30 30 31 33 36 39 44 47 52 56 58 57 56 54 56 59 58 57 57 57 58 56 53 48 46
22 20 22 24 24 26 27 24 26 28 31 34 32 35 33 31 30 32 33 34 34 35 37 42 46 49 51 53 55 56 56 55 55 55 55 54 54 55 55 55 53 51 48 46
26 26 28 29 29 29 29 28 28 29 33 36 38 38 35 35 34 35 37 38 38 39 43 47 50 52 53 53 55 57 58 57 55 56 57 56 56 56 54 51 46 46 46 48
31 31 32 34 33 32 29 29 30 36 39 45 41 43 39 38 40 41 40 40 42 46 49 52 55 58 59 59 61 61 61 60 59 59 61 62 59 53 49 47 44 42 39 37
35 35 37 37 36 35 35 34 41 45 52 51 42 42 39 39 43 43 43 47 49 51 52 54 57 60 64 63 65 67 67 65 63 63 62 59 58 57 52 46 40 36 35 33
47 42 40 39 37 41 41 42 52 48 61 57 45 46 46 46 46 48 50 51 54 56 59 62 66 68 66 67 68 70 71 72 69 63 58 56 55 53 49 42 40 38 38 35
54 46 44 42 43 43 45 50 49 58 64 63 51 46 48 49 50 50 52 56 58 58 62 66 69 68 70 72 73 71 69 68 68 64 63 61 58 50 48 48 44 41 43 43
48 52 45 45 46 45 46 47 53 59 67 66 56 49 49 52 51 53 55 56 60 62 65 67 69 70 69 69 67 69 69 65 63 63 60 53 55 55 48 43 40 44 47 48
44 47 41 42 47 49 51 55 55 56 65 73 78 61 51 52 53 54 56 58 60 63 67 68 68 68 70 71 71 70 68 63 54 55 56 60 60 50 42 39 39 41 45 47
45 47 48 38 43 48 50 53 55 62 61 72 74 62 50 55 57 56 59 59 61 65 67 68 70 71 75 70 67 64 60 59 55 57 63 66 61 53 50 44 43 44 51 57
39 44 48 37 46 48 52 54 56 62 69 73 79 62 52 57 57 57 59 63 66 67 66 67 68 70 74 73 70 69 64 60 65 70 65 59 55 56 57 48 48 52 60 69
41 47 46 50 41 45 51 52 56 63 75 74 68 61 50 54 55 57 57 63 65 63 61 59 63 69 71 70 67 65 63 68 70 65 58 57 58 58 54 56 54 62 72 83
47 52 50 49 49 49 48 51 58 70 68 77 60 64 57 58 59 61 62 63 62 63 64 65 68 69 69 69 65 66 67 63 65 62 64 62 64 66 63 63 64 71 85 95
48 52 54 55 56 59 58 55 63 66 66 68 67 66 57 56 65 67 63 66 67 71 74 74 72 70 71 69 63 63 64 74 67 62 67 69 64 63 68 72 81 90 97 97
55 61 66 61 61 64 54 51 63 63 61 60 62 55 57 64 69 68 65 69 72 75 76 77 76 68 64 66 67 70 67 61 62 61 60 69 69 67 71 78 84 92 92 89
63 67 73 77 75 84 54 55 62 62 61 58 60 62 67 69 70 74 76 74 76 78 76 77 68 71 72 76 70 64 64 62 60 57 63 71 75 68 75 82 82 77 73 69
63 70 78 82 86 78 61 58 61 64 62 61 65 70 73 76 74 78 79 80 85 88 79 73 73 75 75 68 61 64 63 62 64 64 60 66 67 69 74 66 62 59 59 59
71 76 84 90 95 91 64 67 68 71 74 74 76 80 83 82 81 78 84 89 87 74 72 71 73 71 68 60 63 65 66 65 66 66 69 75 76 65 57 53 53 53 49 43
77 83 86 90 96 83 67 71 75 86 80 79 84 83 81 88 91 92 92 89 79 69 65 75 71 65 58 60 63 64 64 65 67 73 78 80 67 58 52 49 45 39 38 38
75 81 83 90 94 86 74 80 87 81 77 82 85 84 92 96 96 91 85 76 66 62 65 69 62 55 53 54 61 66 74 78 77 80 83 71 63 53 45 37 37 39 39 45
82 75 84 87 86 74 77 86 85 83 86 85 86 92 98 95 96 83 69 60 57 59 61 68 53 44 44 48 51 52 61 71 80 83 77 66 50 39 37 38 38 42 52 57
78 82 87 89 73 75 83 85 87 90 91 89 89 95 93 87 84 70 60 53 51 51 52 52 49 41 42 48 54 62 71 81 86 80 68 45 38 41 40 39 49 60 66 65
84 85 85 84 75 77 84 88 89 91 86 86 91 89 82 69 58 52 51 51 49 49 40 38 43 43 46 54 64 75 80 86 85 71 49 38 41 43 40 49 62 68 70 71
85 88 88 76 85 94 93 88 89 85 80 75 67 60 55 53 55 53 49 43 39 41 44 41 41 47 55 65 76 85 87 85 70 48 40 38 41 46 48 58 66 75 77 84

GFSCGP_prec_cthk_009.txt.gz
RH
16 17 20 21 19 19 20 22 23 21 22 22 25 25 22 22 23 24 23 22 24 27 29 30 32 34 35 39 44 49 51 52 52 54 52 53 53 53 52 51 51 52 51 50
16 19 19 20 19 20 21 22 21 22 23 24 26 25 23 24 26 27 28 29 29 29 31 32 34 37 42 46 49 51 54 56 55 58 57 55 53 53 53 53 52 51 49 46
18 18 19 20 23 24 25 22 24 25 25 26 28 27 28 27 28 29 30 31 32 34 34 36 39 44 49 52 55 57 57 56 56 56 57 57 56 56 58 58 56 52 50 47
21 22 24 24 25 26 26 25 27 27 29 30 32 30 31 30 30 32 34 35 36 37 39 43 46 51 53 56 58 60 61 60 60 62 63 62 59 57 56 54 52 48 48 48
25 27 29 30 30 30 30 29 29 30 31 33 35 32 32 33 33 34 36 38 39 40 45 49 52 54 55 57 60 60 64 65 68 69 68 67 66 63 60 56 50 49 47 43
29 29 30 32 31 32 32 31 32 34 36 39 39 37 36 37 38 38 38 40 43 48 50 53 55 57 58 61 64 67 69 70 70 70 69 66 65 64 60 60 56 53 46 41
32 33 34 34 33 35 35 32 35 40 44 41 39 39 38 41 41 42 45 49 50 52 53 56 59 60 64 67 68 71 71 68 66 69 70 70 65 61 57 55 50 47 44 45
41 39 39 40 39 40 41 40 45 43 48 46 42 44 43 44 47 50 52 52 55 59 62 63 65 68 69 70 71 70 68 67 68 67 66 67 65 61 56 54 53 53 48 44
47 43 42 43 43 43 43 48 45 52 61 57 44 46 48 47 48 52 53 57 61 64 65 65 65 66 68 70 71 72 74 73 68 64 59 53 54 55 54 58 55 48 46 46
46 47 43 43 43 43 43 45 46 51 57 56 45 47 44 50 52 52 55 57 57 58 59 59 62 64 67 71 71 69 69 68 65 63 60 60 61 60 63 51 49 50 50 53
40 42 40 41 45 47 49 51 53 53 60 65 71 46 45 48 50 53 55 56 54 55 58 61 63 64 63 64 65 66 68 71 68 64 64 67 65 62 55 51 49 48 49 59
40 40 39 36 43 48 49 50 51 54 52 58 65 50 44 52 54 57 56 56 58 59 61 61 60 60 63 65 65 66 67 66 64 62 63 60 59 56 53 48 48 55 59 60
37 40 40 35 44 46 47 48 51 54 60 62 72 54 49 54 55 58 58 61 63 63 62 62 63 66 69 69 70 66 64 62 63 62 59 58 56 54 54 58 60 61 65 67
41 45 41 40 37 42 47 50 55 59 69 66 61 59 52 54 58 59 61 65 66 65 66 67 68 68 68 68 65 59 56 54 52 51 48 55 61 64 67 67 69 69 76 78
41 45 45 45 45 47 47 50 55 62 64 74 62 63 57 57 60 60 62 65 65 67 71 70 72 71 67 61 55 53 56 59 59 61 64 66 68 72 71 69 71 75 83 85
45 48 50 53 55 54 54 50 60 66 68 70 69 66 60 60 62 68 69 68 69 72 75 76 73 71 64 59 58 60 64 58 57 65 64 65 68 62 58 61 64 73 80 81
51 56 61 57 61 59 53 52 62 65 65 65 66 60 62 65 72 71 71 72 75 76 80 84 78 64 62 70 66 63 51 50 52 53 55 49 52 55 60 64 64 62 58 56
60 64 69 72 70 73 48 59 62 65 61 63 63 66 70 73 76 77 78 80 84 85 87 77 70 71 75 65 56 46 46 51 52 43 49 56 62 63 66 63 59 55 54 54
58 68 75 79 81 72 58 60 62 67 62 65 71 71 73 77 80 83 82 87 88 88 79 74 72 73 68 55 43 36 39 45 46 48 57 65 67 69 65 60 56 49 40 34
65 70 76 86 91 84 65 66 68 71 72 76 78 78 82 82 85 84 90 91 90 77 73 72 69 65 57 42 31 32 37 46 54 61 65 73 77 69 66 53 40 35 34 34
69 75 79 85 89 76 68 70 73 85 85 86 87 88 86 88 87 88 90 84 79 75 72 68 63 53 44 34 31 34 39 43 55 65 75 84 80 73 49 40 38 35 35 39
64 76 81 85 87 82 70 76 81 82 87 87 88 87 89 89 89 91 83 76 74 64 55 51 46 41 40 42 39 34 39 47 57 73 84 86 75 48 41 42 40 37 47 56
71 72 83 85 78 74 75 78 80 87 91 92 90 89 87 88 79 75 68 66 53 46 41 36 40 39 39 46 43 40 45 59 71 81 89 77 52 43 41 44 41 51 60 64
70 80 88 89 77 77 77 84 87 88 91 90 90 85 78 70 60 50 46 44 45 42 36 39 40 40 43 45 48 54 61 72 80 88 81 52 47 43 44 46 51 60 67 67
74 89 88 85 77 77 78 86 88 93 89 82 71 66 59 55 50 46 44 44 42 39 39 39 39 39 42 45 52 63 70 82 89 85 54 46 44 43 46 49 59 67 71 79
87 88 91 86 82 85 89 86 93 91 80 70 65 59 52 41 39 45 44 41 40 37 38 34 35 41 44 53 59 61 72 86 85 51 42 42 41 44 48 54 62 75 84 86

GFSCGP_prec_cthk_012.txt.gz
RH
17 18 19 18 17 16 17 18 19 19 20 21 21 21 21 22 22 24 25 24 27 31 34 37 34 34 36 38 46 54 55 54 56 59 60 58 59 60 61 60 57 55 54 52
14 17 17 18 17 17 19 19 20 21 22 23 23 23 23 24 25 27 29 29 30 33 35 35 38 40 42 43 47 52 56 58 61 62 63 64 63 64 65 66 65 63 61 58
16 16 18 19 20 21 21 21 24 24 23 23 25 27 25 26 28 30 31 33 34 36 37 40 42 44 47 50 55 59 61 63 64 65 66 66 67 67 67 66 65 64 62 59
20 23 23 23 24 25 24 24 26 25 25 25 25 32 30 29 31 34 36 37 38 39 41 44 48 50 53 57 60 63 62 62 63 64 66 65 66 66 65 65 66 63 62 57
24 26 27 28 29 29 31 29 28 27 27 27 29 30 36 33 34 35 37 38 39 42 44 49 53 57 58 59 60 60 61 63 65 67 69 69 67 66 67 66 65 62 59 55
26 27 27 29 28 29 30 30 30 32 34 39 36 34 38 37 37 38 38 40 42 45 49 53 54 55 57 60 61 63 67 70 70 71 68 68 71 69 67 65 58 53 52 46
27 29 31 32 30 33 33 32 36 43 44 43 36 34 41 38 40 42 42 45 49 53 54 55 60 63 64 65 66 67 69 72 74 76 76 71 66 62 58 55 52 49 47 51
32 38 36 37 38 38 37 37 42 45 44 42 37 37 41 41 43 43 45 51 54 57 60 65 66 66 64 64 65 66 69 71 68 64 61 60 57 57 54 53 52 53 51 48
37 38 38 40 39 39 40 42 40 45 53 49 36 39 40 43 44 46 50 55 58 61 61 60 58 59 62 65 68 67 63 63 64 64 62 60 57 56 55 52 53 53 49 46
38 41 38 38 38 39 38 39 44 42 56 42 32 36 41 44 46 49 54 57 58 59 59 60 62 67 68 65 62 62 63 65 67 66 64 59 57 55 55 51 48 45 47 50
35 36 34 33 37 38 41 42 42 41 47 48 47 33 40 46 50 51 53 55 59 61 62 63 63 62 63 64 67 68 70 69 67 63 61 56 52 47 44 44 49 54 57 57
31 33 33 33 39 42 43 44 43 46 50 54 58 44 42 48 52 55 58 61 62 64 66 66 67 67 71 72 73 74 73 67 64 57 56 52 51 48 47 52 56 63 60 60
35 35 32 34 40 43 45 45 45 48 53 56 67 49 49 55 57 60 61 62 64 66 67 70 71 73 74 77 76 70 64 61 60 62 59 53 50 53 51 52 51 51 57 63
33 36 34 30 32 36 41 44 49 52 60 58 55 54 54 58 60 62 63 65 68 70 72 74 76 76 75 70 67 67 66 69 65 57 52 50 46 47 47 50 53 58 64 74
35 37 39 38 37 38 46 48 49 50 58 69 62 61 64 63 61 61 65 70 71 75 77 76 75 74 67 65 71 74 71 62 56 53 47 41 37 44 50 53 58 62 64 66
37 42 44 44 43 42 45 47 52 58 61 66 68 69 65 65 67 71 72 74 77 79 78 75 70 65 67 71 72 65 62 55 44 42 39 39 44 50 56 61 62 60 62 63
45 49 53 57 53 51 59 50 52 57 64 68 71 68 68 71 75 76 75 77 80 81 77 64 64 65 70 73 67 60 55 43 38 37 39 45 51 58 61 65 63 64 65 59
55 56 63 68 67 67 51 52 54 58 60 63 64 68 71 73 76 78 78 79 80 78 72 69 71 69 63 62 61 54 43 35 36 41 48 52 56 61 68 68 72 67 52 39
52 61 70 75 69 54 51 53 59 62 60 63 69 71 73 75 75 80 81 80 77 75 78 76 66 61 62 57 44 42 38 42 46 50 52 57 61 70 74 78 68 45 37 35
55 61 68 76 82 76 63 60 61 64 69 73 73 77 79 81 85 84 86 89 83 84 72 58 54 54 53 53 51 48 48 46 44 46 50 57 70 78 81 63 42 39 38 38
61 66 70 74 84 71 66 68 70 80 83 79 82 85 86 88 90 91 89 79 66 58 55 51 49 46 49 51 50 51 50 47 46 53 58 68 80 86 64 46 41 41 41 48
56 72 77 80 84 87 72 74 86 76 76 82 83 87 85 88 86 79 66 59 56 53 47 44 41 39 40 44 49 50 48 50 53 64 71 77 87 74 50 46 43 45 49 57
61 61 67 72 69 76 79 83 79 80 84 88 87 86 86 82 76 63 54 52 47 45 45 42 40 38 37 43 50 53 50 54 61 71 77 88 88 54 49 45 45 49 58 63
64 68 71 75 69 78 82 83 81 84 86 87 86 83 77 73 61 51 46 46 44 39 38 38 37 36 39 42 48 54 54 63 69 74 84 92 58 48 46 46 51 58 64 68
70 76 76 76 76 81 82 87 85 85 96 91 83 74 66 52 46 44 43 40 40 40 40 38 39 41 39 41 45 52 60 66 71 80 91 57 45 46 46 50 56 62 66 72
77 77 84 88 86 88 90 83 85 89 85 80 72 64 54 48 45 43 39 42 39 37 38 39 39 42 44 50 55 63 71 75 82 85 53 42 42 46 51 57 60 62 66 72

GFSCGP_prec_cthk_015.txt.gz
RH
19 31 34 25 21 23 17 18 22 23 21 18 21 23 22 20 21 23 24 24 26 30 41 39 37 36 37 41 49 56 56 60 60 62 64 65 67 70 70 72 69 67 65 63
17 27 19 18 18 17 19 21 22 21 19 19 25 26 24 23 25 26 27 28 31 34 35 37 37 37 40 46 49 52 56 58 62 65 67 68 67 70 71 71 70 68 64 65
26 22 16 18 20 20 23 21 25 24 22 21 22 28 26 24 26 28 29 31 33 35 38 39 40 42 47 51 54 57 61 63 64 64 68 69 70 71 72 70 70 71 68 64
20 18 20 21 23 21 27 24 23 23 24 34 26 37 40 32 29 31 33 35 36 39 42 44 47 52 54 56 59 62 61 60 62 64 67 68 68 71 77 75 73 69 62 57
26 24 27 28 27 25 29 26 26 26 27 27 27 23 50 40 36 34 38 40 43 44 47 48 51 55 58 59 60 60 63 66 66 67 67 70 74 77 77 70 59 57 56 55
24 24 26 27 26 25 26 29 28 30 34 37 39 30 50 51 42 38 39 44 47 46 48 50 55 60 61 61 64 64 66 67 69 69 69 66 63 60 59 60 60 58 52 43
27 30 28 28 33 33 32 36 46 50 47 54 40 28 48 41 41 40 44 46 49 50 54 57 61 65 65 68 64 62 64 69 71 67 62 62 62 63 63 61 56 48 44 44
35 43 33 32 34 36 36 37 45 46 48 44 38 33 49 40 39 41 44 47 50 53 57 60 62 65 64 62 63 64 67 65 66 67 68 67 67 65 60 54 52 50 48 47
35 38 33 33 33 33 39 40 33 42 47 44 34 41 45 47 46 43 44 48 53 56 59 62 64 65 62 63 64 63 62 62 63 67 70 70 68 66 63 57 55 47 44 46
32 40 33 33 30 35 35 33 45 43 53 40 36 32 48 60 58 51 52 54 57 60 62 64 64 64 65 65 65 66 69 72 74 72 72 72 71 68 58 50 50 49 44 45
29 29 34 29 37 39 45 47 41 37 44 51 43 38 46 49 51 51 53 56 61 65 66 67 66 66 67 70 71 70 70 69 69 69 68 65 64 59 57 54 53 47 46 41
29 31 32 30 31 32 36 41 41 47 48 51 54 46 45 50 54 56 58 64 64 65 68 70 69 72 74 74 71 69 68 65 69 69 62 57 55 59 61 53 49 47 42 51
30 34 34 33 41 42 39 42 43 45 49 47 63 53 58 62 67 65 63 67 68 71 71 71 72 75 75 74 68 64 64 65 63 56 53 56 60 56 46 47 45 46 49 52
28 31 31 33 32 33 37 38 41 47 55 58 55 58 57 63 67 66 64 69 71 71 71 72 73 73 72 67 62 63 66 60 58 60 58 53 48 45 44 48 51 53 55 61
29 33 34 33 32 32 37 42 43 44 49 57 57 60 64 66 64 65 69 71 71 72 75 73 70 65 62 61 64 68 63 59 56 53 47 45 44 43 51 53 53 55 60 63
29 38 38 37 36 34 39 40 41 45 52 55 59 61 64 65 66 68 67 69 71 73 71 72 66 64 62 65 68 70 59 54 48 47 50 50 47 50 54 54 56 57 64 68
34 38 41 46 41 42 54 46 43 49 54 59 65 64 66 67 73 73 74 75 75 75 75 72 69 67 66 64 62 62 58 58 56 56 55 54 54 56 55 59 60 68 71 64
42 43 52 57 55 63 51 48 48 50 55 57 60 62 67 70 74 75 74 78 74 73 74 70 63 57 53 50 52 60 60 61 60 62 66 63 56 57 60 65 68 77 69 57
41 50 58 63 54 46 49 52 55 55 54 58 65 71 71 71 70 74 77 73 73 72 68 59 54 49 42 47 54 59 63 62 64 70 60 61 61 63 66 73 81 73 58 55
45 52 56 64 70 68 57 61 60 62 66 73 75 71 70 71 74 75 72 71 71 65 57 52 49 49 53 47 46 44 51 56 69 73 64 53 63 69 72 80 87 62 55 54
54 59 62 64 72 60 57 63 64 73 80 78 77 75 77 80 75 71 71 70 63 54 51 55 55 53 47 45 43 43 51 61 70 75 70 61 79 82 80 89 75 56 55 57
48 60 64 68 76 77 64 67 79 75 81 83 81 81 83 83 79 75 68 56 54 49 49 51 49 46 41 41 44 45 50 54 58 65 61 72 86 83 92 86 58 58 55 58
42 45 57 64 64 66 72 78 83 82 87 85 81 84 88 81 78 72 60 54 47 47 44 44 44 44 42 45 48 49 52 55 56 61 70 81 80 92 87 61 58 54 56 58
37 44 56 65 62 70 73 79 85 87 84 80 81 80 73 75 68 60 53 48 46 41 40 40 41 43 50 54 55 59 57 59 68 75 81 85 96 79 50 57 56 57 57 58
40 47 62 68 71 74 78 85 88 90 86 84 78 74 72 63 58 53 47 44 42 41 40 42 47 53 55 57 55 60 61 70 77 84 90 88 63 51 48 51 57 57 59 60
39 50 67 78 81 82 84 91 90 94 92 83 75 70 63 57 52 46 43 42 42 39 41 47 51 54 53 54 59 62 72 80 86 89 81 56 44 43 45 53 56 58 58 60

GFSCGP_prec_cthk_018.txt.gz
RH
20 30 40 29 25 28 28 24 24 32 23 19 15 20 27 23 23 22 24 29 35 40 40 47 45 46 43 43 47 53 54 57 60 61 63 65 64 65 68 70 72 67 69 67
21 30 34 30 18 19 26 23 26 26 21 17 21 25 28 24 26 28 28 29 34 36 38 42 46 46 45 45 49 52 55 58 62 62 64 63 62 64 68 69 71 69 73 74
30 30 16 13 19 20 25 22 30 27 23 20 20 26 30 29 29 31 31 34 36 38 39 42 44 45 46 48 52 57 59 60 63 62 61 61 62 64 67 67 71 72 69 65
24 22 17 19 22 20 27 27 25 21 23 31 34 36 43 42 41 40 35 34 38 40 40 44 47 50 52 55 57 59 60 60 57 60 60 61 64 66 68 67 63 59 58 58
29 23 26 28 29 23 28 27 22 23 26 26 29 34 45 46 46 48 45 41 41 45 48 51 53 53 55 57 60 64 65 63 61 58 61 64 65 65 62 58 57 58 57 58
26 23 24 24 22 21 22 26 27 29 30 43 35 41 58 52 52 57 53 45 44 47 50 52 53 56 58 62 63 64 62 61 64 64 61 59 58 56 58 61 62 62 62 58
27 28 26 23 31 35 32 37 50 68 60 58 51 38 51 50 55 57 55 50 47 48 51 54 58 62 64 62 61 60 59 60 62 64 63 65 63 64 65 65 63 60 57 55
42 50 35 30 32 35 36 36 52 53 64 55 40 35 51 48 52 53 44 48 49 50 52 57 58 60 61 62 63 62 62 61 60 61 63 66 66 64 61 62 61 54 50 47
37 42 30 29 29 29 38 44 28 40 49 46 29 54 58 57 58 56 55 55 54 56 59 63 64 63 63 62 61 62 62 63 62 62 60 59 57 56 54 50 47 44 44 39
31 42 32 27 32 38 30 28 43 54 58 47 37 43 63 65 68 64 62 60 55 57 62 65 64 65 66 64 65 67 67 65 63 61 59 57 55 51 50 45 43 42 38 35
29 31 33 33 34 33 40 44 38 37 45 54 51 40 46 49 59 59 59 57 60 63 65 65 65 65 63 67 65 71 67 65 61 58 57 57 52 46 44 45 42 38 30 31
23 29 37 30 27 27 31 36 37 50 44 54 54 42 42 48 52 60 65 63 72 71 69 65 65 67 67 68 68 65 63 59 59 61 57 49 43 46 46 44 39 30 34 38
25 32 39 38 43 38 33 37 36 42 50 51 59 51 54 63 70 75 70 71 74 71 67 65 64 63 64 64 63 62 60 61 62 57 47 48 45 46 45 43 33 39 45 46
25 26 27 34 30 30 31 30 34 40 57 56 56 54 55 60 70 70 70 70 66 62 62 64 66 64 62 60 59 58 57 60 57 50 46 43 46 45 41 40 39 50 54 55
25 28 28 28 28 29 29 31 34 39 44 52 51 55 60 64 64 63 62 62 62 63 64 66 65 62 60 59 59 56 53 55 56 60 55 57 55 58 53 53 46 52 57 56
26 34 31 30 28 30 29 31 36 39 45 47 53 54 62 66 62 66 66 62 67 66 66 65 63 63 60 60 59 53 50 58 67 72 68 71 61 61 67 53 48 57 59 64
31 36 37 41 35 35 51 44 40 43 50 53 60 61 64 67 65 68 62 64 67 71 68 64 59 62 60 55 49 46 53 56 58 56 61 72 74 71 72 58 50 62 66 74
35 37 45 49 46 51 37 35 39 45 50 54 59 68 74 72 69 66 67 72 74 68 64 62 61 54 53 47 50 51 44 39 42 53 58 73 72 92 83 78 61 76 73 87
37 41 49 55 47 35 35 44 46 48 51 56 63 69 71 71 68 68 74 75 68 64 64 60 53 48 48 53 54 48 43 38 45 53 53 64 59 89 79 83 77 88 81 86
39 45 48 55 58 52 40 49 51 53 59 69 70 73 75 72 72 71 70 66 67 62 57 50 46 50 53 52 46 44 38 40 43 56 58 61 79 88 93 81 97 87 89 77
48 50 54 56 59 49 42 48 53 61 71 75 76 76 76 75 74 71 71 69 59 55 51 47 46 46 44 42 40 40 42 42 44 45 51 52 57 71 71 86 90 91 62 57
44 52 55 54 58 58 49 55 62 65 70 80 83 80 76 76 72 70 67 59 55 50 44 41 39 37 38 37 41 44 44 42 44 49 54 59 70 86 84 94 83 57 54 52
45 42 49 48 47 46 56 62 67 71 79 84 86 84 79 77 74 70 61 56 49 43 40 37 37 35 33 42 52 55 49 48 51 54 63 69 78 90 93 70 54 50 52 52
37 35 45 48 40 42 53 63 72 77 83 85 84 80 82 79 75 65 59 48 42 39 35 36 34 36 42 48 52 49 47 51 55 66 73 82 85 79 51 43 49 49 53 56
39 39 38 43 42 52 65 72 82 84 83 87 86 79 76 72 68 60 44 40 38 37 38 35 40 41 40 44 47 46 50 55 69 75 78 76 59 46 40 42 46 52 53 57
36 37 44 47 54 59 71 84 89 86 85 86 79 75 75 69 52 40 40 37 36 36 33 34 37 39 38 41 44 50 57 66 75 76 71 57 41 39 40 43 47 51 53 57

GFSCGP_prec_cthk_021.txt.gz
RH
33 33 35 30 32 36 32 30 33 31 26 25 20 27 32 33 31 31 26 27 32 35 39 44 47 48 52 60 55 48 45 51 54 57 62 64 68 69 68 67 66 63 67 67
34 32 38 37 30 25 32 29 34 27 25 23 19 23 28 30 32 32 30 34 35 38 41 45 49 51 54 55 53 54 55 57 56 59 62 63 62 61 61 62 64 67 67 66
30 32 27 21 26 22 26 30 29 26 24 19 24 28 30 30 35 39 39 44 41 39 41 44 46 49 51 51 53 52 55 58 60 61 62 61 57 57 60 64 68 68 66 61
26 28 26 18 19 20 26 26 26 24 22 26 29 39 35 35 37 41 46 50 44 44 42 44 50 50 51 52 54 54 55 60 63 64 61 58 57 59 62 63 61 58 58 58
25 24 24 26 27 26 25 24 22 22 24 27 32 39 51 49 47 48 50 47 51 50 46 44 45 46 49 51 54 57 62 64 61 56 55 54 55 55 55 55 57 59 58 56
27 27 24 25 22 23 23 27 29 34 34 45 47 49 58 53 55 55 53 56 60 59 50 47 45 46 49 52 57 62 61 61 62 62 61 61 59 58 57 57 56 52 49 45
28 28 26 23 28 32 30 35 53 57 74 67 51 56 69 58 51 53 56 57 59 55 54 54 53 54 58 59 57 57 57 58 60 61 61 60 60 59 58 55 52 48 41 40
41 47 35 27 32 33 32 35 51 54 70 62 45 59 63 60 60 66 69 69 66 62 62 62 56 54 58 62 64 64 64 60 60 59 56 55 54 52 51 52 50 43 35 34
47 42 34 27 24 30 35 39 29 45 47 51 53 59 64 65 66 68 70 72 73 69 60 58 62 61 63 63 62 64 63 62 60 60 59 59 57 53 52 46 36 33 37 39
38 42 31 29 35 34 31 27 43 47 51 47 44 58 65 62 63 66 69 71 71 64 63 67 70 71 69 66 66 64 63 62 63 63 62 61 55 49 39 34 35 37 40 40
34 38 32 32 33 31 35 38 34 34 46 56 59 48 44 56 61 65 61 64 65 66 69 70 70 68 65 64 61 59 61 59 58 57 58 53 43 36 34 34 33 35 35 27
26 34 39 34 29 26 26 32 34 48 44 59 64 51 42 53 58 66 73 73 71 73 70 72 68 65 62 62 59 59 58 58 58 55 50 41 43 45 46 40 34 38 38 34
26 30 44 39 39 31 28 33 32 42 49 47 59 51 46 57 59 67 67 70 72 71 70 65 65 64 61 57 53 53 53 52 48 42 41 46 54 60 56 51 50 57 66 48
27 25 31 43 31 27 27 26 27 38 56 53 55 50 48 59 62 64 66 67 69 69 68 65 69 67 59 55 53 52 49 47 42 44 48 50 54 61 56 64 65 83 80 66
25 30 28 27 24 23 25 26 28 32 37 46 46 51 61 62 65 70 69 69 69 71 67 66 65 60 54 54 54 49 43 42 41 43 47 49 46 57 61 68 83 80 86 80
23 34 28 25 29 30 27 29 34 33 37 41 47 55 60 60 62 64 67 70 71 72 68 63 56 54 54 52 49 45 45 42 43 46 47 43 48 60 64 71 90 95 96 89
32 34 36 41 36 36 44 36 32 34 39 43 49 53 56 59 62 67 72 72 70 65 62 56 55 56 53 47 45 45 45 45 46 48 44 40 44 53 60 67 87 84 97 85
33 36 41 44 39 34 35 29 31 35 40 43 53 58 60 64 67 70 72 71 67 63 58 56 54 49 47 45 44 43 43 43 44 39 29 30 36 44 51 57 87 97 97 89
33 36 43 48 48 34 31 33 35 39 43 47 53 60 66 72 75 73 73 70 65 60 55 53 51 47 42 40 39 40 39 36 31 29 34 37 42 44 49 54 63 95 87 82
39 41 42 51 49 48 38 38 38 41 51 52 54 63 69 69 76 73 70 64 63 60 55 51 44 39 38 36 36 37 33 29 31 37 43 51 50 53 56 64 67 76 80 72
47 48 49 51 51 43 32 38 37 50 47 56 60 66 71 75 76 73 68 68 63 56 53 48 40 38 36 35 31 32 32 35 41 46 48 48 57 62 72 84 87 73 59 49
41 48 50 51 55 53 34 39 42 41 48 56 65 72 74 78 76 72 70 65 60 56 50 40 37 35 32 31 33 33 34 37 43 46 45 54 66 75 83 84 66 52 49 50
42 38 46 43 42 36 40 42 43 43 51 64 72 77 78 76 75 71 69 62 56 51 41 38 37 35 34 34 34 36 40 41 42 43 50 64 71 73 70 52 45 45 48 51
38 37 43 45 43 45 49 46 46 52 63 72 80 82 82 79 73 69 64 55 48 40 39 38 35 34 31 33 34 36 39 40 44 49 58 66 67 63 50 47 47 43 44 49
32 36 38 44 44 45 48 47 53 63 73 81 85 84 75 73 69 64 53 45 40 37 34 32 29 28 28 28 32 37 42 45 50 54 62 63 58 46 40 42 42 41 44 50
35 39 44 47 42 42 48 56 66 77 84 84 84 78 74 69 62 51 43 38 35 34 31 27 25 26 26 29 37 40 46 53 57 59 64 60 48 42 43 44 43 43 46 53

GFSCGP_prec_cthk_024.txt.gz
RH
31 34 35 32 37 37 36 35 34 34 31 29 31 29 28 29 31 33 37 39 38 39 46 51 56 62 70 72 72 76 79 70 67 67 65 71 71 71 73 72 68 67 68 71
34 33 35 34 33 38 40 37 37 32 30 30 26 26 31 33 37 36 37 38 36 45 50 52 58 61 62 70 70 66 66 66 66 63 66 69 71 73 72 69 69 70 73 74
32 32 31 35 37 36 41 38 37 36 31 28 26 31 32 35 37 40 44 45 49 53 55 58 59 58 61 59 57 58 57 58 59 62 63 66 68 65 63 65 67 68 65 62
29 33 32 27 22 24 29 29 35 32 28 24 24 40 39 42 43 44 44 45 47 58 57 56 54 52 50 50 50 52 56 57 57 59 60 60 57 57 58 59 60 60 59 56
26 29 27 28 26 24 23 22 23 25 25 27 34 42 46 47 48 49 52 57 60 60 58 59 55 51 46 43 45 49 50 50 50 49 51 54 56 57 55 56 56 57 55 50
30 31 28 26 25 24 23 24 28 32 34 42 43 46 54 53 51 59 62 62 60 58 60 58 50 46 49 51 50 49 50 54 56 56 56 54 54 56 58 59 60 54 52 45
29 31 25 25 27 28 26 34 50 55 63 62 51 58 59 59 58 60 60 56 58 63 64 58 56 58 54 52 54 57 59 60 61 58 56 57 59 62 62 61 59 53 38 31
38 43 30 26 33 33 30 33 47 54 62 58 46 56 55 53 62 59 62 66 69 73 67 64 62 62 64 65 67 64 62 61 58 56 56 56 56 58 57 51 42 31 31 31
41 44 34 23 26 33 34 32 31 43 48 54 52 53 56 61 64 69 76 77 73 67 68 61 65 72 74 75 72 69 65 64 61 59 58 59 60 57 51 41 34 34 37 39
39 42 29 29 30 27 25 27 37 40 43 45 49 55 62 58 61 60 57 62 62 63 64 69 74 76 76 76 75 66 62 59 56 55 57 59 54 44 36 37 40 46 45 45
36 38 32 34 34 30 31 31 31 33 43 49 57 47 41 50 55 56 54 59 64 71 77 82 84 81 80 73 68 64 61 57 55 52 52 49 42 36 38 39 40 43 49 53
34 36 39 34 26 25 27 29 31 41 36 53 53 46 45 48 53 55 60 63 73 77 79 77 76 76 69 66 63 59 55 51 50 50 45 39 39 40 40 43 41 43 50 59
30 33 44 39 37 31 29 29 31 35 42 42 50 45 44 49 51 56 60 64 68 71 74 76 74 70 65 62 55 52 52 51 48 39 36 40 42 44 49 50 50 50 70 76
29 31 31 37 31 25 23 25 29 33 47 43 46 40 43 50 52 56 59 63 66 69 71 72 67 66 63 56 53 53 51 44 35 34 36 39 41 49 55 53 58 56 66 74
28 30 29 27 26 24 25 25 26 28 32 39 36 41 46 52 55 58 62 65 67 70 71 71 68 60 55 53 51 49 40 35 37 40 42 46 52 49 43 38 42 46 50 59
27 33 27 24 28 29 26 25 29 31 29 34 40 47 50 54 59 63 67 70 73 75 76 68 62 58 55 54 48 39 37 40 42 43 44 42 40 29 27 32 34 38 48 58
28 32 32 31 36 34 35 29 29 29 31 32 38 41 49 54 59 64 69 72 74 74 69 64 59 55 53 48 42 38 39 40 39 37 34 29 26 29 31 33 37 48 56 63
34 39 39 38 36 28 27 27 27 30 32 35 41 46 51 56 63 68 70 72 72 69 66 60 56 54 47 41 38 39 39 37 34 30 27 29 32 32 32 41 46 54 70 74
34 38 44 38 44 29 28 30 30 31 34 38 43 48 52 56 63 69 72 71 72 69 62 58 55 47 42 39 41 38 35 32 29 28 32 34 36 35 40 54 62 69 75 74
40 37 36 49 36 34 27 31 31 32 41 39 40 46 53 59 67 70 71 72 71 66 62 59 50 44 42 43 37 34 29 30 33 35 36 39 36 39 52 63 74 79 68 57
48 48 48 51 48 38 29 33 33 44 36 38 41 48 56 64 67 71 72 75 68 65 63 53 46 45 41 36 32 31 34 37 39 38 38 38 40 47 59 67 78 66 52 48
42 47 50 52 53 43 29 36 38 36 39 41 45 52 60 69 73 74 75 72 69 65 53 48 47 39 37 34 35 35 35 34 31 36 41 42 44 54 61 66 61 50 48 48
37 33 39 38 38 30 32 33 36 40 44 45 50 56 69 74 74 77 75 72 66 54 50 46 39 36 35 34 33 31 30 29 33 40 46 48 50 58 60 60 51 49 49 46
35 36 40 41 34 35 37 40 44 50 49 53 58 67 75 81 82 77 72 65 56 51 44 38 35 34 33 33 31 31 31 34 39 46 52 55 53 56 53 48 45 45 45 44
35 40 40 44 42 44 45 49 54 53 55 62 67 78 81 80 77 73 66 59 52 46 38 36 34 32 32 30 29 28 30 37 45 53 58 59 55 53 50 49 47 45 44 43
37 37 41 42 40 43 47 50 50 55 63 71 77 77 78 77 74 69 59 50 43 38 36 35 34 32 30 29 27 29 33 41 50 55 60 64 59 52 50 52 49 46 44 45

GFSCGP_prec_cthk_027.txt.gz
RH
24 27 25 24 29 30 31 28 31 31 32 33 31 29 28 25 29 35 40 40 41 42 45 52 54 57 62 67 75 82 85 82 80 77 76 69 70 72 72 72 76 75 73 73
27 30 30 36 39 36 37 32 31 32 34 31 31 32 31 31 33 36 37 41 47 52 59 61 64 70 77 79 78 74 75 76 73 68 67 69 69 70 74 75 73 73 72 67
36 33 40 42 42 42 42 38 37 37 36 34 34 32 35 38 39 41 47 49 58 59 58 58 67 70 70 68 66 62 58 56 56 59 64 67 69 71 71 68 66 63 61 59
33 30 31 32 32 30 39 39 38 37 38 39 34 41 38 41 47 52 54 54 58 64 65 69 71 66 65 60 57 55 55 56 58 63 63 63 63 64 65 66 64 63 64 63
32 35 34 31 28 25 26 28 29 32 33 33 36 40 40 46 50 54 56 58 60 66 69 65 65 64 64 60 56 55 57 57 55 58 61 62 62 63 62 61 60 58 55 50
32 30 28 26 27 26 27 30 33 37 36 43 41 40 44 46 48 52 57 63 68 72 71 67 66 68 64 63 64 60 62 61 62 62 61 60 55 53 55 56 56 51 47 41
34 31 28 26 28 27 27 33 45 51 56 54 45 49 48 46 49 55 58 65 65 62 67 71 73 78 74 72 68 68 67 66 63 57 55 54 54 55 55 53 50 46 37 32
38 38 28 29 30 31 30 33 49 48 58 55 49 54 52 48 48 51 55 58 60 67 74 79 73 70 65 67 69 67 68 64 59 57 56 54 54 51 50 47 41 34 30 30
38 37 31 25 30 31 34 32 32 44 50 53 49 44 45 47 51 55 57 59 67 69 62 59 59 62 66 70 70 69 66 59 59 57 55 52 48 47 44 37 33 32 34 36
39 45 34 30 28 29 29 30 37 39 41 43 43 48 51 47 50 54 59 60 56 55 55 60 66 72 71 69 74 70 65 64 62 56 51 48 45 39 34 34 36 41 43 45
41 41 37 33 34 31 30 28 30 34 42 46 52 43 35 43 46 48 49 51 54 57 62 68 72 76 76 78 75 69 64 62 56 52 48 42 34 34 36 40 43 46 49 57
41 42 46 35 33 26 27 28 27 34 31 49 48 39 33 40 44 46 50 54 56 60 65 71 76 79 79 78 72 67 65 58 55 50 41 37 35 36 38 39 42 50 52 51
35 39 47 39 32 29 29 28 32 31 36 37 44 37 34 38 42 45 48 52 57 61 65 70 74 76 73 71 72 66 62 56 47 40 41 37 36 38 41 41 37 31 30 30
34 36 34 37 31 30 25 25 30 30 43 39 38 30 37 41 44 47 50 54 58 63 68 71 69 70 72 75 66 59 53 47 45 43 39 37 41 40 36 33 30 27 27 32
29 32 33 31 28 24 22 24 28 29 29 33 28 32 32 38 43 47 51 57 61 65 67 68 70 75 70 65 60 53 49 46 44 40 37 39 37 32 32 32 31 25 30 39
29 35 29 30 32 30 25 24 26 26 26 30 29 33 35 39 44 49 55 60 63 67 68 72 71 70 69 63 55 50 48 44 40 37 33 31 31 32 33 31 24 27 36 43
29 32 32 29 35 29 27 23 26 25 27 28 36 32 38 43 46 50 55 59 65 70 72 70 69 67 64 58 52 48 44 41 38 34 33 34 36 36 34 27 27 34 46 57
35 38 35 34 33 29 21 23 25 26 27 29 31 32 36 41 45 49 55 61 67 70 68 68 68 65 59 54 50 44 43 39 36 35 36 40 40 34 29 30 35 44 54 62
38 38 43 40 41 27 22 26 27 28 28 31 32 36 40 44 49 52 59 63 65 66 66 68 68 63 57 50 44 44 39 35 34 36 39 40 33 32 34 37 47 54 62 71
43 40 38 50 36 32 21 26 26 28 37 30 34 37 42 47 54 54 59 65 69 68 70 70 66 61 50 47 48 39 36 36 37 38 36 35 36 37 38 41 52 62 67 63
50 49 46 53 44 34 23 29 30 38 29 31 33 37 42 48 52 56 65 72 73 72 73 69 63 51 49 46 39 37 36 35 34 35 38 39 40 39 42 46 54 58 57 54
47 50 51 53 54 40 24 32 35 30 28 34 38 41 47 52 57 66 72 72 75 77 73 66 55 52 46 39 36 35 34 35 36 38 40 43 43 44 47 50 54 54 53 53
45 38 41 40 36 26 28 30 32 34 35 39 45 51 56 57 65 71 73 77 79 76 70 59 52 45 40 37 36 36 36 37 37 39 43 46 50 52 52 53 52 52 52 51
41 39 41 39 31 33 35 36 37 40 43 48 55 59 60 66 69 82 82 78 78 71 61 50 45 40 39 37 37 37 36 34 36 40 45 49 53 58 55 54 50 49 55 51
42 43 42 44 40 42 41 40 42 45 50 56 59 60 66 77 88 79 80 81 75 61 51 44 41 41 39 38 37 36 34 35 36 40 48 53 58 63 61 59 53 51 55 53
43 43 46 43 37 39 39 42 46 51 53 55 62 69 82 82 81 81 83 78 62 52 44 44 43 42 40 39 37 35 32 34 37 41 50 56 61 67 68 61 55 53 55 55

GFSCGP_prec_cthk_030.txt.gz
RH
35 36 36 33 27 28 24 28 28 29 26 28 35 36 35 32 37 39 41 41 44 45 47 53 58 59 62 71 78 86 90 91 91 84 79 73 69 68 68 69 69 68 66 64
31 31 29 29 32 32 26 30 32 31 30 30 37 38 35 31 36 37 39 43 46 48 55 58 60 64 74 82 83 89 84 73 70 65 61 61 62 61 63 63 62 62 63 60
34 30 30 33 42 36 39 32 35 36 36 36 36 37 40 34 32 34 39 43 48 52 57 61 64 71 79 78 72 67 65 62 60 57 55 56 57 58 60 60 60 59 57 54
36 36 35 44 41 40 40 39 35 38 38 42 38 42 42 41 39 39 44 49 52 54 59 63 70 70 65 61 58 59 59 60 59 58 60 61 60 63 63 61 60 58 54 52
32 33 36 39 35 30 29 30 34 36 37 37 39 41 37 43 46 48 52 55 56 58 68 64 67 65 63 63 64 67 67 69 67 69 69 64 63 63 61 59 59 55 50 46
36 35 34 33 32 28 26 29 33 37 38 44 38 35 36 40 40 47 54 56 59 61 67 68 64 64 68 71 80 81 77 73 73 72 68 64 63 59 57 55 50 48 44 36
36 35 32 30 29 28 28 32 44 48 51 50 40 43 38 42 45 51 55 55 55 60 61 63 68 71 78 77 75 74 76 76 75 71 63 62 60 56 52 49 46 39 32 29
40 39 31 28 28 31 30 33 47 46 56 51 44 48 43 44 45 48 50 52 55 59 63 68 70 70 65 66 71 74 75 77 74 66 62 60 53 49 47 41 36 35 33 32
40 37 31 27 29 32 33 35 35 49 50 55 50 43 41 39 40 43 47 51 54 58 63 63 60 60 64 68 72 75 77 74 71 65 59 54 53 50 44 40 37 37 37 39
35 38 33 32 30 33 34 34 37 40 39 38 39 41 43 40 42 43 46 51 56 57 56 56 59 60 63 68 72 74 72 69 64 63 59 57 52 45 42 43 44 39 40 45
37 38 44 35 32 32 34 31 32 34 40 42 47 40 30 34 37 41 45 48 49 52 54 57 60 63 66 68 73 73 71 69 72 64 57 49 44 44 46 44 40 40 40 35
39 45 51 43 33 32 30 29 28 33 28 46 44 34 27 32 36 40 44 47 48 52 58 62 65 67 70 74 73 69 77 79 65 58 51 47 48 47 44 40 37 36 30 28
36 43 53 42 35 32 28 31 33 31 34 36 43 30 28 31 34 39 42 45 50 56 59 63 66 69 72 70 71 80 71 64 60 55 53 51 46 41 36 33 31 30 28 25
34 40 39 41 31 31 29 31 30 27 39 35 35 24 27 30 33 37 41 45 49 54 59 63 67 68 65 70 75 66 64 62 59 55 51 46 41 34 32 31 31 30 27 26
32 37 38 36 34 29 24 25 28 26 26 29 24 28 25 29 33 36 41 47 50 54 58 62 63 64 70 71 68 64 63 60 55 52 48 41 35 34 34 34 31 28 29 32
37 39 32 35 37 34 27 24 24 25 25 29 27 26 24 27 31 37 40 45 49 53 57 60 64 74 73 69 69 67 62 56 52 46 40 36 36 37 36 32 31 33 34 37
36 37 34 35 36 31 29 23 24 24 25 24 28 23 28 30 32 36 41 47 51 54 58 62 68 68 66 69 69 63 57 52 47 42 37 39 40 37 33 34 36 37 36 42
36 36 36 36 33 31 18 20 22 24 24 24 25 27 30 30 34 37 42 47 53 57 60 64 65 68 68 70 65 60 54 49 41 37 41 40 37 34 36 38 37 39 43 50
39 38 43 39 39 25 18 21 26 28 25 26 28 31 31 33 36 37 41 49 56 58 62 67 69 69 71 70 63 55 49 41 39 41 38 36 36 36 37 37 37 42 47 55
44 43 42 50 38 33 22 23 25 26 34 24 27 32 33 36 43 35 44 54 60 62 67 69 71 72 76 67 57 49 41 40 40 38 36 37 38 38 36 37 40 45 50 53
55 53 47 55 45 34 23 26 28 35 29 26 27 31 36 39 37 40 47 53 56 65 69 73 75 78 72 61 51 43 40 41 40 38 37 37 38 37 39 41 46 49 53 51
48 54 55 54 54 42 26 31 34 30 27 28 32 35 38 41 45 47 52 57 67 72 76 79 81 75 63 51 44 43 43 41 38 37 36 37 37 40 44 47 52 56 57 54
44 39 44 41 39 30 30 32 32 33 35 36 38 40 44 49 56 59 64 69 77 84 81 82 77 62 51 45 45 45 42 39 38 36 33 33 39 44 48 52 55 59 57 54
39 38 40 38 32 34 34 34 37 40 43 44 46 48 52 60 67 68 66 87 91 85 84 78 62 51 47 49 47 43 41 39 37 33 32 33 40 46 52 56 59 62 58 56
40 39 40 42 38 38 38 39 41 41 42 44 48 54 63 70 73 70 90 90 85 86 79 64 51 50 51 48 45 43 40 37 30 31 33 37 46 51 57 63 66 68 62 60
41 42 46 45 38 39 38 39 40 43 46 49 54 62 70 76 77 92 86 87 87 78 65 53 55 53 51 47 44 41 36 30 29 31 35 45 51 57 63 69 70 70 64 61

GFSCGP_prec_cthk_033.txt.gz
RH
40 37 32 30 28 26 22 29 29 29 26 30 36 35 35 39 40 40 39 39 42 44 47 52 55 56 58 62 70 80 85 94 93 84 69 67 71 66 62 59 59 58 58 59
40 38 37 36 33 33 29 34 37 31 30 30 35 38 39 33 34 37 39 41 44 47 51 54 57 59 64 72 79 93 87 71 62 62 60 58 59 60 62 59 56 56 56 54
36 31 32 33 33 37 35 39 40 37 38 36 34 34 38 37 34 34 39 43 46 49 54 59 60 59 65 71 70 67 60 55 56 60 65 68 70 67 64 62 61 61 56 53
41 38 34 38 41 43 39 35 30 32 33 33 32 29 34 37 37 35 37 41 47 50 53 58 61 66 64 67 63 58 55 60 68 74 76 73 70 68 68 69 63 60 55 51
42 41 38 43 40 35 42 40 40 39 34 35 35 32 30 38 36 37 38 45 50 57 59 60 65 66 66 63 62 67 74 73 75 76 76 69 67 68 66 62 58 55 51 46
34 35 36 35 35 39 36 32 33 34 33 36 37 33 27 34 32 40 47 52 58 59 59 57 61 63 63 64 68 74 74 74 69 71 72 72 71 67 62 58 54 48 41 37
33 36 36 35 36 35 32 29 35 38 42 39 36 38 31 35 40 44 49 54 56 55 54 57 59 62 67 69 68 64 65 69 73 74 75 72 66 63 59 53 46 44 43 41
37 37 35 32 31 30 31 32 38 39 45 43 41 41 34 38 39 45 49 51 49 50 52 55 58 61 63 61 60 62 65 70 74 75 71 65 64 60 55 50 50 48 46 44
40 37 33 32 33 32 34 30 33 44 50 45 38 37 35 36 35 39 43 44 46 50 52 57 57 57 56 56 59 62 64 67 71 70 66 69 66 59 55 53 49 46 43 38
35 39 35 33 31 33 32 34 36 37 39 34 30 32 27 30 32 34 38 40 44 49 52 52 54 54 57 60 62 65 66 69 67 69 75 69 63 58 56 51 46 42 36 33
31 36 36 37 35 32 35 35 34 32 34 29 31 22 24 25 28 30 34 38 43 47 48 49 52 57 60 64 67 68 70 75 71 75 68 62 61 57 51 48 41 33 30 30
33 40 45 46 39 34 32 32 28 30 28 37 34 24 21 24 26 31 35 38 41 44 46 49 55 61 65 69 71 76 70 73 78 67 64 62 58 53 48 39 33 34 35 31
33 40 48 44 39 36 33 31 29 29 33 33 41 22 22 25 26 30 35 39 42 46 49 55 61 65 67 72 73 69 74 75 68 63 62 58 54 47 38 38 38 37 32 30
33 37 40 42 36 34 33 34 30 29 34 28 28 21 20 24 26 29 34 38 44 47 51 58 62 65 69 69 70 73 73 65 62 62 58 55 46 41 41 42 40 33 32 31
33 34 37 40 39 34 28 29 31 28 25 26 20 22 19 20 23 28 34 39 42 45 51 58 62 65 65 66 72 69 63 63 62 61 56 46 44 44 44 42 34 34 33 33
38 38 35 39 39 36 32 28 25 27 26 25 24 23 20 22 24 28 32 37 41 45 50 58 62 63 63 68 59 63 66 64 62 58 49 46 46 46 43 36 34 33 35 35
37 38 38 38 35 32 33 26 24 24 22 22 26 19 24 25 27 27 31 37 41 45 51 57 60 64 62 60 66 69 69 67 61 52 47 47 47 43 37 34 33 33 34 37
35 36 38 38 33 30 19 21 21 22 20 21 22 24 26 29 29 28 32 35 39 45 52 57 62 64 66 65 70 72 72 63 53 48 47 46 43 38 36 35 34 33 34 37
36 36 40 39 34 25 18 21 24 27 22 22 23 26 30 33 32 31 32 36 41 49 54 60 62 65 62 69 74 76 65 55 48 46 46 43 40 38 36 34 35 34 35 41
44 41 43 46 36 34 23 22 26 27 30 23 25 30 34 34 36 30 33 39 46 52 55 59 62 65 72 76 78 67 56 48 46 47 44 41 37 36 35 36 35 36 40 46
54 54 49 50 45 35 26 27 30 33 29 26 27 29 33 35 36 36 41 46 50 54 60 64 69 77 77 79 70 56 49 49 48 45 41 37 35 34 35 34 36 40 46 50
44 51 54 52 49 43 28 31 34 31 29 29 32 34 36 38 43 47 50 54 58 63 69 72 83 81 81 70 58 51 52 50 47 42 37 35 32 33 32 33 41 45 50 55
41 38 41 38 36 30 30 32 32 33 35 36 39 43 45 48 52 54 57 66 70 67 77 87 85 84 71 57 54 56 51 48 43 38 35 31 32 32 33 39 46 50 54 58
39 38 39 38 33 35 35 36 37 38 41 44 47 47 49 52 58 63 70 74 77 81 84 88 85 72 58 61 60 54 49 44 39 35 32 34 33 32 36 44 51 57 62 65
40 40 41 41 38 38 38 40 41 42 42 43 46 49 53 59 66 75 77 78 86 84 94 85 72 61 65 62 55 50 44 39 35 33 34 36 35 36 42 49 57 61 66 67
41 43 47 47 40 42 42 44 46 47 49 52 55 59 63 70 74 75 86 91 92 93 84 69 67 68 63 55 50 44 39 37 35 36 37 36 37 41 48 54 62 67 69 66

GFSCGP_prec_cthk_036.txt.gz
RH
45 38 35 33 30 28 26 33 33 29 19 18 19 30 33 37 44 41 40 42 43 45 45 48 50 53 60 63 67 72 80 84 94 80 72 69 65 65 65 60 61 61 59 59
42 42 32 31 29 29 24 34 39 34 29 26 28 31 34 36 38 38 39 40 40 45 46 47 53 55 60 66 74 81 83 76 70 61 59 65 66 65 64 64 67 67 67 66
42 38 37 35 35 35 34 35 36 34 33 33 34 34 35 33 34 35 34 39 41 45 48 52 57 61 65 72 72 70 68 64 58 63 70 70 70 70 69 74 73 72 68 65
40 33 34 34 34 38 39 34 33 37 39 39 34 34 35 35 35 35 36 39 44 46 50 53 55 62 67 70 67 66 67 67 66 66 70 71 75 72 70 74 75 69 65 60
42 39 37 37 38 39 42 34 35 35 35 32 33 31 38 33 32 34 34 39 42 46 50 55 62 61 63 67 69 69 64 65 65 66 68 69 71 72 74 72 69 68 63 51
44 43 43 41 41 41 41 42 37 34 37 34 33 29 23 27 26 29 34 38 42 49 55 60 59 57 58 58 61 64 64 65 64 64 66 70 71 72 70 69 69 63 59 54
42 38 37 38 37 37 37 38 34 33 35 30 31 26 21 27 30 36 41 45 47 52 55 56 53 53 55 58 59 61 60 62 65 66 67 68 67 64 68 70 62 56 57 57
39 36 34 36 37 35 35 32 30 27 32 32 32 31 33 31 32 37 42 46 47 50 51 51 53 55 56 57 60 59 61 62 63 64 65 66 62 68 67 58 56 56 56 53
34 37 34 35 33 31 31 29 31 35 40 39 29 28 28 29 30 34 39 42 45 45 48 51 54 58 58 58 59 59 62 64 62 62 70 69 65 64 58 54 54 55 49 45
35 38 33 31 32 32 31 32 31 33 37 29 23 22 21 25 26 29 35 38 41 42 45 50 56 57 55 55 58 62 64 63 65 72 71 66 68 61 56 54 54 50 43 38
30 29 34 34 32 32 34 32 32 31 30 24 21 17 18 19 22 26 31 35 39 42 46 50 56 53 54 59 64 66 65 66 68 65 67 70 63 57 53 53 50 43 39 38
28 29 36 36 35 34 31 33 31 28 27 31 29 18 16 18 19 23 27 33 37 42 44 50 52 52 56 61 64 65 65 67 72 71 70 62 57 53 53 51 45 42 42 41
25 30 38 37 36 40 37 32 28 27 26 27 38 18 16 18 19 20 25 31 36 40 43 46 49 52 57 62 66 65 69 77 70 68 62 59 57 54 50 48 47 47 44 42
30 31 31 34 38 37 37 34 29 26 29 24 24 15 17 18 18 20 23 27 33 38 42 47 51 54 57 62 63 65 77 70 65 60 59 59 55 50 51 49 48 45 42 40
35 34 32 33 34 36 32 29 29 28 25 27 18 17 14 17 18 21 23 27 31 36 40 46 51 52 57 60 62 72 67 64 60 60 61 57 54 52 51 49 46 43 37 38
39 37 34 36 36 36 34 29 26 27 24 23 20 18 17 20 20 22 23 26 31 36 42 45 48 52 56 59 63 64 64 62 62 63 59 56 55 51 50 46 42 40 38 41
42 40 38 33 34 34 38 27 24 23 24 23 24 19 20 21 22 24 27 27 30 35 38 42 46 52 59 61 62 64 65 67 66 63 57 56 51 50 48 44 40 39 37 40
42 39 39 38 37 49 21 20 20 22 21 21 21 21 24 24 27 29 29 30 31 35 39 44 50 57 60 60 66 68 69 70 66 58 58 53 54 50 47 43 40 36 35 38
36 35 43 49 33 25 20 22 22 25 21 23 22 22 25 27 30 31 30 30 33 38 44 51 56 58 60 63 68 66 77 71 60 58 60 57 53 49 45 42 38 35 36 42
42 39 40 45 54 58 26 26 27 27 27 21 23 24 29 31 35 32 33 36 40 46 52 55 58 60 60 69 77 81 75 64 61 62 58 55 51 47 42 40 37 36 40 43
54 55 56 51 54 37 29 26 28 30 29 25 26 27 30 34 35 38 40 45 50 53 55 58 61 66 74 81 85 78 69 64 65 57 55 52 47 42 41 39 38 42 42 45
43 49 54 48 55 49 25 29 33 30 29 29 31 35 37 41 44 47 50 53 52 55 60 70 75 71 84 88 81 70 69 70 57 54 53 47 44 44 40 39 44 44 44 48
38 36 37 35 34 29 30 31 32 33 34 36 39 43 45 47 48 50 53 57 61 68 71 79 80 83 86 82 67 69 71 59 55 49 45 47 46 42 39 45 45 45 47 53
35 35 35 35 32 33 34 35 36 38 39 41 42 43 45 49 52 55 62 67 71 74 83 89 93 90 82 70 71 67 62 55 49 46 46 46 45 40 44 46 43 47 52 58
39 40 39 37 35 36 38 41 43 45 46 47 50 53 56 60 64 65 66 71 77 83 93 93 91 78 68 77 71 63 57 51 48 46 45 44 43 43 47 45 47 52 56 62
45 44 44 44 44 44 45 49 50 53 55 58 62 64 65 67 66 70 79 85 90 94 95 89 78 81 78 69 64 60 52 49 46 42 42 45 43 46 44 46 50 54 57 63

GFSCGP_prec_cthk_039.txt.gz
RH
44 49 43 41 41 39 35 28 24 26 23 22 25 30 27 34 42 47 51 52 49 50 53 52 52 56 61 66 67 68 70 72 84 83 75 65 71 76 68 61 61 61 62 64
46 48 45 41 36 34 30 37 37 33 23 23 26 34 34 35 41 42 42 48 53 54 52 52 55 58 62 65 66 71 75 74 73 66 61 65 65 63 63 62 63 65 68 70
49 47 36 34 33 36 34 39 47 39 27 23 36 38 29 30 36 39 42 43 48 47 47 53 56 60 60 65 72 77 76 71 68 65 64 67 65 64 63 65 69 72 70 67
56 46 38 36 37 37 46 32 35 34 30 35 33 32 43 38 29 35 39 42 43 43 50 53 57 59 64 69 72 70 70 70 69 63 65 66 68 70 70 70 71 68 66 68
47 37 37 35 43 29 56 36 35 34 32 42 40 29 37 51 39 36 33 37 41 45 51 53 57 59 63 65 66 66 70 68 62 62 62 64 68 70 71 70 70 71 70 65
55 42 38 50 34 34 37 38 42 42 37 43 34 39 32 43 47 46 31 33 41 45 48 50 54 58 62 63 63 62 64 62 61 60 61 64 67 67 67 69 69 71 65 62
50 47 41 39 40 39 40 45 48 52 43 41 40 34 30 33 33 33 28 34 39 41 44 45 50 56 57 59 59 59 57 58 58 59 62 65 67 68 72 73 69 65 61 59
44 48 35 34 37 51 42 44 48 43 37 33 40 26 39 30 25 28 35 42 44 42 44 46 50 52 52 55 56 57 58 59 61 63 64 65 63 71 77 68 66 58 59 55
49 51 45 34 37 37 46 32 37 40 38 33 20 33 29 24 25 29 35 41 43 44 45 46 48 51 53 54 56 57 59 60 63 65 64 66 68 66 65 62 56 59 51 50
47 52 44 34 34 32 31 38 33 31 38 33 28 27 32 28 21 26 31 36 40 43 44 43 45 50 52 55 56 58 60 61 64 65 66 66 70 72 62 56 55 49 48 48
42 39 52 37 31 35 42 31 28 32 38 38 28 27 26 17 21 22 27 32 36 39 41 44 45 49 54 57 54 56 60 61 64 67 66 69 81 63 54 53 50 49 50 49
38 43 43 38 37 29 30 35 35 36 34 32 35 24 19 16 18 21 24 29 33 35 37 41 44 48 54 56 55 56 59 63 63 66 69 81 74 59 54 51 54 53 50 47
35 29 35 41 33 25 27 29 29 33 33 31 38 26 23 18 15 18 20 25 30 32 35 40 43 47 51 52 54 56 59 61 67 68 73 69 62 58 56 55 56 56 51 48
26 23 33 38 42 46 42 37 36 34 34 27 23 25 26 22 20 19 21 23 28 32 36 39 42 46 49 52 54 56 57 63 69 67 71 63 60 60 55 58 59 54 51 49
30 32 31 30 36 36 38 36 35 35 30 31 24 26 22 21 20 20 22 23 27 30 32 37 42 46 51 51 53 56 60 66 69 71 63 62 61 56 55 60 58 56 52 51
34 38 35 36 33 30 31 30 30 28 26 25 24 24 21 23 20 21 20 24 28 35 35 38 41 47 49 50 55 59 63 67 65 66 70 68 59 57 60 62 58 55 54 55
46 43 41 38 33 31 36 28 27 26 26 26 27 24 27 27 24 24 24 29 29 31 35 39 43 47 49 52 55 62 64 63 69 74 70 64 60 61 64 61 59 57 54 53
44 45 47 44 42 53 24 23 22 23 23 24 26 24 25 25 28 28 28 30 33 33 36 40 44 49 53 58 60 61 64 66 74 73 68 59 66 68 65 64 60 55 57 52
40 44 49 56 37 30 25 22 24 25 24 26 25 24 24 25 25 27 34 32 33 36 41 46 50 54 57 56 58 62 69 70 78 74 65 72 73 68 64 59 57 59 52 47
39 41 41 41 55 61 33 27 25 26 30 28 26 26 25 26 31 35 37 36 35 40 43 49 54 53 54 58 63 68 75 78 80 69 81 71 66 65 57 55 57 53 48 46
54 54 54 51 58 43 33 30 27 31 36 30 26 26 29 31 37 38 37 41 43 46 49 52 55 58 65 70 74 81 84 83 76 83 73 69 64 55 55 51 49 50 48 47
46 51 56 54 61 53 28 27 30 36 29 31 32 33 36 39 42 41 41 45 48 53 57 60 64 65 66 81 91 90 83 75 85 73 70 65 59 56 50 51 53 49 50 47
42 38 43 37 42 36 30 31 32 32 32 35 37 39 41 43 45 48 49 53 58 63 63 63 65 80 85 91 93 86 80 85 77 71 63 60 56 58 58 57 52 47 47 48
36 34 35 33 33 34 35 35 37 38 40 41 42 43 46 49 53 61 61 63 63 62 66 77 86 95 95 94 81 79 86 75 69 64 63 61 59 59 58 57 51 47 48 48
40 38 37 38 38 37 40 44 45 44 46 49 52 56 57 61 64 65 63 67 72 80 86 93 95 95 90 86 90 81 78 71 63 66 65 61 57 55 55 49 47 49 48 50
40 43 46 46 45 44 47 52 49 51 54 58 62 64 61 63 66 72 78 84 89 93 95 95 92 91 91 84 82 79 71 67 66 61 55 54 50 49 48 47 43 45 48 53

GFSCGP_prec_cthk_042.txt.gz
RH
46 47 46 48 46 49 44 41 39 32 28 24 28 34 26 28 43 52 50 44 43 41 44 47 47 50 54 55 58 62 63 64 65 73 75 66 62 63 60 60 55 51 50 53
54 43 48 51 47 43 36 39 35 30 24 16 23 28 25 21 29 40 46 43 43 44 43 44 46 50 56 51 57 61 62 67 74 75 68 61 60 58 53 49 52 55 56 57
62 45 49 46 38 37 37 48 44 44 29 16 30 25 31 28 32 38 40 45 49 48 44 45 47 50 55 57 63 60 65 71 66 64 62 58 53 51 52 55 58 60 62 62
58 50 47 41 40 39 46 51 40 46 38 26 38 45 36 44 36 38 41 35 40 46 48 46 50 53 59 61 63 64 70 63 64 59 56 56 55 56 57 60 62 62 65 63
53 53 47 45 44 43 39 45 45 39 37 42 45 49 49 42 40 39 46 44 43 45 48 50 50 53 59 62 62 65 64 62 61 55 57 56 60 61 64 69 69 73 75 70
53 53 53 44 40 34 37 32 34 33 35 50 51 56 51 51 54 61 59 45 40 42 48 54 56 56 58 59 59 60 60 65 61 58 58 59 60 63 66 68 70 74 72 69
45 43 46 36 33 30 31 39 51 82 77 45 34 34 37 50 51 47 44 44 43 41 43 48 55 55 52 54 56 62 62 61 59 58 58 58 61 66 66 67 66 72 66 64
46 54 43 32 36 51 41 41 59 67 77 51 44 41 35 31 32 31 31 33 39 45 46 47 49 50 52 57 56 57 59 59 57 56 57 57 62 64 65 69 69 73 62 51
53 57 58 45 37 31 53 47 42 46 48 45 24 18 32 39 28 23 28 33 39 42 44 46 48 48 51 52 52 52 54 54 52 54 57 58 62 62 65 66 74 74 61 52
54 65 63 49 36 24 26 33 41 38 37 35 31 32 46 46 38 23 28 32 36 37 40 42 41 42 44 47 48 50 56 54 53 54 58 62 63 65 67 71 72 66 60 44
42 58 69 57 37 25 41 43 31 28 42 51 43 41 36 33 27 20 25 31 34 34 37 37 37 40 44 47 50 52 57 58 56 57 61 63 66 69 69 69 72 69 52 44
28 48 55 51 42 32 33 42 44 52 36 40 41 34 35 28 20 19 22 32 34 35 36 37 38 41 44 48 50 54 60 61 59 60 63 66 68 75 69 73 72 59 49 51
38 37 43 40 42 36 29 22 26 32 45 39 56 33 28 24 23 23 21 26 33 35 38 40 43 43 45 48 52 56 58 59 60 63 67 69 71 76 66 77 63 53 56 59
34 38 33 37 30 50 52 47 35 39 50 38 35 26 31 29 28 27 24 22 26 35 37 42 48 52 50 51 54 58 58 60 60 67 72 70 71 78 68 68 61 61 60 61
28 27 25 26 34 44 38 46 46 41 41 43 34 31 28 30 35 31 29 26 26 27 38 42 51 54 55 53 57 56 57 57 65 71 70 73 75 70 76 67 59 63 67 62
26 30 36 39 36 35 33 29 29 30 32 31 30 31 32 31 32 28 27 25 26 30 37 44 43 46 52 55 57 57 57 59 68 70 70 74 77 78 71 61 69 74 68 64
37 37 44 44 37 33 36 25 24 24 27 31 33 30 31 30 31 30 26 28 28 30 33 43 44 46 51 57 57 58 62 63 62 65 72 78 83 69 66 75 76 70 69 66
51 52 57 54 47 52 26 25 24 24 24 25 29 30 28 30 29 29 29 26 30 34 34 39 44 45 51 59 60 62 61 62 65 73 79 81 83 75 77 76 74 71 71 66
52 52 56 64 48 36 32 29 25 27 29 28 27 27 27 28 25 30 33 33 34 34 36 38 43 48 54 59 58 60 64 70 73 76 88 84 80 82 82 71 68 70 65 66
45 46 52 51 59 61 39 32 29 27 35 31 31 31 29 26 32 36 37 37 37 36 39 44 48 52 57 59 64 68 71 73 84 86 88 89 85 75 70 74 67 65 64 62
53 54 58 55 60 49 40 35 34 39 43 37 35 30 29 32 38 39 39 40 41 42 49 51 56 63 67 66 65 70 78 87 90 89 91 84 82 80 72 70 69 62 58 57
53 60 65 61 71 63 35 32 34 40 36 31 30 32 35 36 37 43 42 41 46 54 58 62 62 63 66 73 80 84 90 93 92 94 90 83 79 75 74 70 63 60 57 52
44 39 47 43 48 36 33 32 33 33 33 36 37 37 38 40 42 46 54 54 60 61 60 62 65 75 82 86 90 95 95 93 94 89 82 74 72 75 68 61 57 56 54 49
38 37 38 37 33 37 37 38 40 39 41 39 41 46 45 48 52 58 63 64 59 58 67 73 79 85 90 93 93 93 93 93 89 82 74 71 68 60 57 56 57 60 56 52
41 38 35 35 37 39 44 47 43 45 45 45 48 50 51 56 62 62 60 61 67 75 79 85 90 93 90 89 90 90 87 81 74 65 62 60 52 49 48 47 48 45 46 49
38 39 42 47 45 46 53 50 48 46 47 49 53 55 59 59 58 62 69 74 81 87 91 91 91 90 87 85 79 72 67 62 57 52 46 42 40 39 40 39 37 43 45 46

GFSCGP_prec_cthk_048.txt.gz
RH
49 44 49 58 56 52 45 46 45 46 49 44 42 38 35 35 44 45 45 44 43 45 40 40 41 44 45 44 45 44 47 55 61 58 60 66 64 63 58 56 54 52 52 51
50 49 49 52 52 53 50 50 51 44 44 41 42 35 32 33 39 43 42 45 41 45 44 42 43 41 40 42 46 48 48 57 59 56 62 63 64 63 61 56 53 48 49 48
54 50 51 53 52 54 51 50 49 45 42 40 36 32 34 33 38 45 46 38 38 36 40 42 41 40 40 40 43 48 54 58 61 59 61 64 67 60 54 51 48 48 47 46
45 48 49 56 53 50 51 43 46 45 41 40 35 31 30 31 37 44 46 47 40 39 45 43 42 43 44 43 45 51 58 57 65 60 60 65 59 54 52 50 45 45 49 53
46 46 52 52 50 51 48 42 45 43 44 41 34 37 37 34 36 43 44 46 45 37 41 45 44 43 44 48 53 56 61 57 63 60 61 62 54 55 51 45 45 52 56 54
44 45 50 49 50 52 49 44 48 50 49 53 48 46 43 45 41 36 36 44 42 45 47 48 46 46 51 52 57 59 58 56 61 61 59 52 53 52 48 49 52 56 56 58
53 50 49 50 53 47 46 44 54 61 67 59 50 50 44 44 38 35 35 43 46 47 43 44 48 50 52 50 56 56 56 54 54 55 53 51 52 50 51 54 58 60 59 74
57 48 48 51 54 56 59 53 53 54 67 56 47 48 47 40 41 41 38 42 42 38 39 42 46 48 47 55 63 56 55 52 50 51 53 54 52 54 58 61 63 70 75 75
53 52 51 50 56 54 55 54 50 59 58 65 48 36 41 40 34 36 39 35 30 30 33 36 40 43 47 54 52 59 53 53 52 52 51 53 58 60 70 70 80 77 87 80
41 53 53 51 51 52 50 48 53 59 53 48 37 39 47 42 42 43 37 27 26 29 32 37 41 38 43 49 54 52 51 49 52 55 58 64 71 80 84 84 86 86 90 86
40 47 51 52 49 46 40 39 43 41 48 52 53 42 35 43 39 39 36 30 27 26 30 32 35 40 43 45 44 43 45 49 57 67 74 77 78 82 87 93 84 93 94 82
44 52 60 48 46 54 50 43 47 59 53 53 51 37 30 36 40 40 40 39 35 29 27 26 26 27 29 32 37 41 51 60 67 68 72 72 74 89 88 92 91 92 86 80
51 58 64 57 49 48 49 44 46 49 51 50 57 42 28 30 33 34 36 35 35 33 31 33 36 36 37 39 45 52 59 73 77 83 79 78 87 83 96 74 76 87 77 82
44 56 54 53 44 53 48 43 48 48 54 48 48 38 33 32 33 34 36 36 32 33 37 39 40 43 53 57 69 70 71 82 83 82 92 86 78 85 71 74 85 79 76 79
50 51 44 39 36 35 38 36 37 42 49 55 45 45 41 40 38 36 37 35 32 36 39 41 46 51 56 61 60 65 71 77 83 87 83 77 81 74 74 78 80 82 83 88
45 46 40 42 40 40 35 30 32 32 39 43 45 41 41 39 38 36 35 36 35 37 38 41 48 51 51 57 60 67 73 81 82 79 71 77 80 73 80 82 88 90 94 91
47 48 46 42 35 31 37 25 25 28 31 33 39 44 42 42 39 39 40 40 42 43 42 38 36 39 45 49 59 66 73 72 66 68 75 77 77 80 84 90 91 95 92 92
44 43 39 43 34 42 27 24 24 26 27 28 30 32 34 35 40 41 41 39 38 37 36 34 35 35 39 43 45 48 54 57 67 74 74 75 79 87 91 93 92 94 91 85
42 51 49 47 48 40 34 31 30 31 37 34 35 36 38 40 39 40 40 38 37 36 36 33 33 35 38 41 47 55 62 69 72 76 82 85 90 91 95 97 94 88 83 76
58 62 61 66 62 61 42 35 35 36 47 38 37 39 38 36 41 44 42 38 35 33 34 35 36 37 42 51 59 64 68 72 79 85 88 89 92 96 93 87 80 70 66 54
59 64 60 65 63 51 40 36 38 41 39 40 41 41 41 42 38 36 35 33 35 36 36 39 44 50 57 62 64 69 73 80 85 89 91 97 92 84 77 65 57 51 41 33
51 55 60 63 64 52 39 37 39 40 43 44 41 37 34 33 34 34 35 35 38 42 46 52 56 61 65 69 74 80 91 96 95 95 89 83 75 63 49 39 28 25 24 25
44 41 50 53 52 43 40 39 42 39 37 35 37 39 35 34 35 37 40 44 47 52 56 61 63 68 71 73 81 83 85 85 82 75 68 55 43 31 21 19 20 22 24 27
41 42 45 46 51 46 42 37 36 36 38 40 39 40 38 38 40 42 47 51 56 59 62 66 69 71 75 79 80 80 75 68 59 51 40 26 18 16 17 18 20 22 26 31
40 40 41 51 50 45 43 40 39 40 41 44 44 42 42 42 45 49 53 55 58 64 69 71 74 77 79 78 72 63 54 44 33 21 16 15 16 17 18 21 24 29 35 42
39 37 42 48 45 44 45 45 46 46 49 49 47 48 48 50 53 55 59 62 67 73 73 75 76 74 68 60 52 40 30 22 19 17 18 19 21 24 27 31 32 38 46 51

GFSCGP_prec_cthk_051.txt.gz
RH
47 44 43 41 43 44 52 49 46 45 42 45 47 44 42 49 50 42 42 44 46 43 42 46 48 46 47 47 51 50 47 51 54 59 57 62 63 64 64 63 57 53 54 54
47 49 46 49 45 45 45 46 49 51 49 45 40 41 39 44 46 46 47 48 45 41 45 44 44 45 44 43 49 54 52 50 60 61 60 60 60 64 66 61 59 57 54 48
48 48 48 47 49 49 50 51 53 52 47 43 42 35 35 38 43 45 47 46 44 38 40 43 43 43 43 44 45 50 55 59 57 60 64 58 61 65 64 61 59 57 50 46
44 45 47 50 48 52 52 50 49 49 47 40 35 32 28 32 36 46 49 52 51 45 44 46 46 51 47 48 52 55 58 64 60 63 66 63 63 67 63 60 57 52 48 44
42 46 48 50 49 52 52 48 49 45 45 51 43 39 29 29 34 39 48 50 51 47 44 43 49 49 52 53 53 58 65 71 65 64 69 69 64 68 61 57 54 49 44 47
42 45 46 48 48 48 46 45 49 52 53 54 44 44 36 36 36 36 39 45 50 46 46 49 46 47 51 58 60 61 66 73 66 62 70 67 61 64 58 56 52 48 49 54
37 47 46 50 48 47 45 48 53 56 63 57 49 47 40 39 39 37 37 33 41 45 45 42 43 45 47 53 59 57 66 74 71 65 65 60 61 53 55 54 50 53 62 72
45 51 47 48 50 48 47 47 55 47 57 53 48 48 37 36 38 35 32 28 30 36 38 39 39 42 45 52 56 64 67 74 68 61 59 55 52 52 59 57 62 78 78 83
46 50 50 50 53 49 49 53 52 60 61 65 52 41 35 36 38 39 34 32 29 33 36 35 37 41 42 45 52 61 75 68 59 53 51 56 62 59 65 77 81 84 82 87
38 47 52 55 53 49 46 48 52 56 54 55 46 40 41 42 38 37 33 36 28 29 33 34 35 36 37 42 46 60 61 56 54 50 53 58 62 68 75 75 85 85 92 84
38 37 48 53 51 48 52 52 49 46 54 54 57 44 33 37 31 29 32 35 29 26 27 27 28 29 28 34 43 48 49 49 48 50 55 68 72 78 81 80 81 85 83 97
34 39 52 46 47 50 51 50 49 54 50 52 59 42 28 31 35 36 33 33 37 34 30 22 21 27 33 37 40 42 44 48 56 70 76 78 82 82 85 87 89 82 91 89
37 44 51 49 49 52 52 55 50 47 50 51 58 45 30 28 26 27 30 33 34 39 40 37 36 33 37 40 45 53 63 64 66 74 76 82 82 90 93 90 89 93 81 80
40 46 42 51 47 50 51 51 49 50 60 49 46 34 32 33 32 29 31 32 34 34 35 36 39 41 46 49 55 63 69 71 78 80 83 85 89 89 82 85 91 84 81 85
41 44 42 47 47 42 41 55 55 50 46 47 40 40 40 37 37 38 31 29 32 33 36 39 42 46 49 53 54 59 68 75 76 80 86 90 90 79 84 85 84 82 84 88
42 49 45 53 49 45 37 40 42 43 41 36 34 35 36 37 34 34 33 34 37 38 38 39 43 47 46 51 57 58 57 66 74 84 89 83 77 76 80 87 80 83 89 91
50 55 56 64 58 50 54 38 37 36 31 27 30 28 32 36 39 39 39 38 38 41 41 41 40 38 41 44 48 53 55 57 67 68 70 72 76 78 80 81 85 90 94 93
52 59 61 65 60 59 32 31 27 26 23 21 23 24 27 29 33 43 46 41 40 41 39 38 38 37 36 36 36 39 43 50 54 61 66 75 77 79 85 90 92 95 97 95
47 52 62 61 59 40 30 26 25 26 30 30 30 32 34 35 37 40 39 38 38 38 38 37 36 36 36 38 42 44 53 63 69 69 70 73 79 87 92 94 95 96 87 74
50 53 59 57 55 55 38 34 37 39 44 35 35 36 37 39 42 41 40 40 40 39 35 34 33 33 36 40 46 53 60 63 64 68 74 84 95 97 96 91 86 79 63 45
60 64 64 65 69 61 50 37 44 43 34 37 42 44 44 44 42 43 44 40 35 33 34 35 38 39 43 48 53 58 61 66 71 80 91 98 95 93 89 78 60 47 29 20
52 68 73 73 64 55 35 35 38 38 39 40 45 47 48 48 46 40 36 36 36 38 40 42 45 49 52 56 61 65 70 82 88 91 92 91 84 72 58 46 31 21 19 19
50 59 67 66 56 41 37 37 38 39 41 47 48 46 40 37 37 38 38 40 41 43 46 50 53 55 59 65 69 76 81 82 84 81 74 65 54 43 30 21 18 17 18 19
55 54 61 60 46 42 42 41 42 44 43 41 37 37 35 37 40 40 43 44 48 52 54 56 59 64 68 71 74 75 76 75 71 63 53 41 30 21 17 16 17 18 20 23
67 61 64 56 43 39 39 39 39 38 38 39 40 40 42 43 46 47 48 52 56 58 59 62 66 71 75 76 75 73 69 62 53 41 29 22 19 18 17 19 21 24 26 32
74 62 59 43 36 34 37 39 39 38 39 41 43 47 50 51 51 52 55 59 62 61 65 71 76 77 73 69 66 62 53 42 32 25 21 19 18 18 20 22 21 25 31 35

GFSCGP_prec_cthk_054.txt.gz
RH
43 45 42 37 39 44 44 41 49 48 50 49 50 48 47 52 58 51 51 50 44 41 42 43 41 42 43 46 48 48 52 52 50 48 54 57 58 64 64 66 67 63 60 54
42 48 44 43 42 44 44 44 47 47 48 46 45 47 41 50 50 50 49 49 42 40 42 42 42 40 41 45 47 50 48 49 54 58 57 59 60 64 67 71 66 64 60 58
45 44 45 47 49 53 52 52 50 51 52 48 42 38 36 41 46 48 49 47 42 40 37 39 39 40 42 43 43 50 53 54 57 56 57 62 64 68 65 68 64 62 61 60
40 43 44 47 47 49 52 52 52 52 50 50 41 37 29 32 36 42 43 42 44 45 43 46 49 48 46 48 51 52 53 60 63 59 55 59 62 65 63 73 63 62 63 58
38 42 45 46 45 45 49 49 51 51 49 49 46 46 35 29 32 38 44 47 49 53 52 52 52 59 60 56 53 57 58 64 67 67 57 60 73 77 78 85 71 63 60 56
34 40 43 47 46 44 46 48 52 53 52 53 46 46 38 33 31 33 38 43 46 44 48 50 56 64 60 58 59 62 61 65 70 73 68 68 78 84 81 78 69 66 62 60
34 35 43 47 48 45 44 49 55 60 63 56 49 48 41 40 39 39 37 39 40 45 45 49 53 56 52 53 56 61 63 57 70 76 83 73 77 77 75 73 67 66 66 65
38 39 43 46 48 48 48 47 56 50 57 47 46 46 36 35 38 38 39 32 30 34 37 40 41 42 44 47 59 57 52 58 67 81 85 69 71 72 69 66 64 66 68 79
41 37 46 48 49 50 50 49 48 60 63 65 47 38 28 32 36 40 41 37 31 26 27 30 39 39 40 42 42 43 46 51 73 82 76 66 64 62 64 64 67 72 80 82
37 38 46 52 52 52 50 49 54 60 57 54 46 41 37 32 41 38 35 31 25 28 24 29 33 36 34 35 37 39 40 46 62 66 65 65 60 60 68 66 74 83 85 87
39 37 40 49 51 51 52 52 52 54 60 57 57 43 35 33 37 35 34 31 27 27 30 29 30 29 29 28 29 33 41 46 55 59 61 65 68 68 79 87 88 91 94 91
38 42 46 40 46 49 47 47 49 60 56 61 59 45 35 32 30 33 34 31 31 36 35 32 27 25 24 28 32 35 39 47 61 68 73 74 82 88 89 90 94 90 91 95
39 42 45 38 40 43 45 48 49 53 57 57 59 44 34 35 29 27 28 29 33 31 34 38 37 36 35 38 39 43 49 61 69 75 80 82 86 88 91 93 91 89 86 87
42 46 42 39 33 37 47 47 49 52 66 56 49 37 36 33 32 35 32 29 25 30 32 31 34 36 39 43 48 53 59 67 69 78 80 84 86 88 93 95 92 87 86 87
42 46 47 42 40 42 44 43 46 50 52 53 43 44 37 34 34 34 37 34 33 33 35 38 40 45 48 52 57 58 60 60 67 64 63 75 83 90 91 88 83 81 86 90
45 46 44 46 45 46 52 47 47 44 52 51 44 39 36 30 27 33 33 35 37 41 42 42 45 48 50 50 52 53 54 52 56 57 62 62 69 79 78 70 77 82 83 80
50 52 55 53 49 49 58 42 43 41 39 34 38 35 34 30 29 29 35 37 39 44 43 42 40 42 42 42 42 45 49 51 51 51 53 58 65 78 75 79 81 77 83 90
53 57 60 68 59 62 37 41 40 38 34 32 30 28 28 28 28 30 31 33 36 40 43 42 41 40 39 38 38 37 38 41 45 51 62 71 74 75 75 78 84 92 97 95
54 59 65 68 65 51 39 33 33 28 22 21 23 28 32 35 36 37 39 40 40 40 40 40 40 39 37 36 36 39 43 48 56 64 68 69 70 73 82 91 93 94 97 96
59 61 61 68 62 55 39 31 26 30 30 30 36 38 40 41 40 41 41 40 40 40 41 39 35 32 33 35 40 45 51 58 61 63 66 71 77 86 93 94 97 97 91 73
69 72 67 72 65 55 47 38 41 46 36 30 34 34 39 44 43 43 43 43 43 41 38 34 35 37 40 43 48 53 57 60 63 66 72 84 86 87 88 85 79 73 57 38
61 70 71 69 66 56 44 50 47 34 28 31 35 36 40 43 44 45 46 44 39 36 36 37 39 43 46 49 52 54 60 65 71 76 79 78 78 77 71 63 52 38 26 19
66 56 60 58 52 44 49 51 46 30 31 36 38 38 40 43 47 47 40 38 37 38 39 42 45 49 51 54 58 63 69 73 74 73 71 69 66 58 49 36 26 20 17 17
65 61 58 58 52 53 58 56 45 33 35 38 41 43 44 41 39 37 38 39 40 42 45 48 52 55 56 62 65 69 72 73 71 68 62 55 47 36 29 25 23 21 20 21
66 66 66 66 65 59 54 55 38 34 36 40 41 39 36 35 38 40 42 44 47 48 52 57 60 62 64 68 71 70 69 65 59 54 47 38 32 28 24 22 19 18 20 22
66 66 67 64 64 65 58 46 36 34 36 38 37 39 40 41 44 47 50 53 55 57 61 65 67 68 71 72 68 63 58 54 48 42 37 32 27 22 18 15 15 16 15 15

GFSCGP_prec_cthk_057.txt.gz
RH
35 37 39 33 38 35 41 45 47 48 48 53 51 52 49 53 58 55 46 41 38 39 46 42 41 44 44 46 48 48 47 48 49 48 50 51 54 50 59 66 73 75 64 61
37 42 42 39 42 41 42 45 45 48 50 51 49 47 47 53 54 52 49 42 39 39 40 42 41 44 46 47 49 52 51 53 55 55 52 51 51 54 62 69 75 76 67 62
37 41 42 47 50 47 40 43 49 49 51 50 46 41 37 40 47 51 49 46 39 38 39 41 38 39 41 43 45 48 49 52 58 62 56 54 59 62 65 66 76 75 71 63
36 38 41 45 46 48 48 43 48 49 49 49 46 48 35 32 41 44 45 46 48 41 37 40 39 38 38 38 42 46 50 51 55 61 60 54 58 61 66 75 82 86 82 72
32 36 40 45 45 43 45 47 49 52 51 50 49 45 36 31 27 32 41 47 49 49 45 40 42 48 48 49 50 51 52 53 58 66 67 60 59 67 77 86 89 91 93 80
33 36 40 40 45 46 47 51 52 52 53 53 46 44 38 32 32 27 36 42 50 51 55 56 53 55 54 55 56 60 58 59 61 67 75 75 70 72 79 85 86 87 85 73
34 35 38 41 47 48 50 51 54 55 56 51 49 46 39 37 34 35 36 37 44 45 51 53 60 62 64 65 65 58 56 65 63 67 76 85 85 80 75 80 79 77 85 83
35 37 35 39 46 48 48 49 55 50 50 45 45 42 34 35 34 37 39 38 37 37 43 48 48 54 59 61 57 54 56 59 55 62 73 81 87 82 75 68 74 84 85 82
39 35 35 42 47 49 50 52 51 56 60 56 46 39 32 31 32 39 39 41 39 33 31 38 44 47 48 48 49 51 55 50 49 52 66 82 87 86 80 73 82 83 77 79
36 38 39 42 48 50 50 51 54 56 58 55 46 43 38 35 37 36 38 36 36 35 31 25 28 32 37 41 44 44 43 44 46 49 57 67 78 75 72 81 81 82 78 84
35 35 40 42 48 50 54 55 54 53 53 52 52 42 36 40 38 38 38 37 35 28 30 30 25 26 29 32 35 34 34 38 43 47 51 67 77 77 83 85 83 89 94 96
36 40 46 39 44 51 50 47 49 56 53 56 55 46 37 37 40 38 36 34 32 30 27 30 32 30 27 27 27 28 34 39 45 49 60 73 80 85 91 91 91 94 95 97
38 42 44 40 39 44 48 49 48 50 54 53 57 48 36 38 36 37 35 33 32 29 29 27 29 33 38 39 40 42 45 48 51 57 65 71 80 86 87 86 95 96 98 97
39 43 39 38 36 37 42 43 45 47 54 48 46 43 38 37 36 33 34 32 32 30 30 32 31 32 37 46 50 51 56 57 57 60 65 72 77 79 83 93 96 89 90 92
42 42 42 39 40 42 39 37 42 44 39 45 40 46 40 39 38 33 29 27 30 34 31 35 38 41 48 50 54 60 64 62 61 61 59 58 59 65 72 77 76 72 73 77
44 48 47 45 45 43 44 39 44 46 45 40 41 38 47 42 36 33 33 30 32 37 35 37 43 47 50 52 54 57 59 58 57 52 54 55 58 61 59 60 59 75 72 81
50 52 50 50 50 50 49 41 43 45 44 41 39 34 36 32 32 32 34 34 32 32 36 37 38 42 46 47 50 51 51 49 48 49 48 48 50 52 55 67 75 69 75 75
56 53 51 59 59 62 38 40 42 44 40 37 34 28 26 28 30 30 30 32 34 34 35 37 38 40 42 43 44 43 42 41 40 42 47 51 54 64 67 66 69 78 83 89
56 57 60 64 60 50 39 37 43 45 30 32 25 25 26 31 35 38 38 38 38 39 40 40 41 42 42 41 40 38 37 39 43 48 53 58 63 65 69 73 79 85 87 90
60 61 62 65 61 57 41 38 39 41 32 29 34 33 35 37 39 37 39 39 39 40 41 42 41 41 40 36 36 38 41 47 51 55 57 59 61 69 76 84 86 84 78 73
63 66 61 64 62 52 43 42 40 46 35 35 34 30 31 34 36 39 41 42 44 44 44 44 43 38 37 39 42 45 48 52 55 59 64 66 70 73 75 71 67 65 58 47
62 67 66 65 64 54 47 47 45 38 40 44 38 29 32 35 39 41 43 45 47 46 44 40 38 39 41 45 47 50 53 56 61 66 71 70 66 65 62 56 50 42 34 29
69 57 58 55 51 49 48 45 41 38 50 50 40 32 33 37 41 44 46 50 48 44 40 39 41 43 47 50 53 57 62 66 67 68 65 62 57 52 46 42 37 34 31 28
71 67 65 62 54 54 51 48 49 45 49 48 39 32 35 40 45 48 50 46 44 42 43 45 47 51 54 58 60 61 65 68 66 61 55 50 46 42 41 38 34 28 23 21
58 65 68 65 62 61 59 59 60 57 55 48 37 33 37 40 44 44 43 43 45 46 49 51 53 56 59 62 65 67 67 64 58 51 46 44 42 40 38 33 28 25 25 24
48 53 61 59 61 64 59 61 62 63 61 49 37 37 38 41 41 42 44 47 50 54 56 57 60 62 66 67 67 65 61 55 49 45 43 43 44 40 33 31 30 27 24 20

GFSCGP_prec_cthk_060.txt.gz
RH
28 31 37 35 32 34 35 36 43 45 44 53 51 51 43 47 52 52 44 41 52 47 42 38 34 37 38 38 40 41 40 46 50 51 47 51 51 55 54 59 65 67 76 77
30 31 38 34 37 36 36 39 40 41 45 50 50 47 42 47 51 52 51 44 41 46 46 42 41 44 44 44 46 50 51 50 48 49 49 50 50 56 57 60 60 71 77 79
29 34 36 41 44 42 40 48 45 45 42 44 45 43 40 40 43 48 51 45 40 40 42 44 44 44 47 47 48 51 52 52 54 58 59 57 57 57 55 59 60 75 86 84
29 34 37 43 45 45 45 45 45 46 47 48 44 47 36 36 38 41 43 41 38 37 37 40 40 38 41 45 48 49 51 54 56 60 64 64 60 61 63 62 66 77 86 88
29 32 35 39 43 44 47 45 49 50 51 48 45 43 42 31 26 30 36 38 42 43 38 36 39 42 42 44 47 49 50 51 53 55 65 72 66 59 60 68 76 86 90 91
33 32 34 39 41 43 44 46 49 51 52 52 48 44 40 38 34 27 27 39 43 46 48 45 43 47 44 50 55 55 58 58 58 59 61 68 78 75 70 68 77 84 88 86
31 32 34 36 42 46 45 49 58 59 55 54 46 44 42 37 33 31 30 34 41 44 46 51 52 53 52 51 54 58 62 64 61 69 69 71 80 84 87 84 83 81 75 77
33 35 33 34 39 50 47 50 51 53 52 49 44 39 40 35 32 33 36 37 38 42 47 48 53 59 58 59 61 58 57 61 63 66 64 67 75 86 86 82 83 85 80 79
32 33 33 35 38 46 52 49 48 52 52 49 41 38 34 31 29 32 34 40 42 43 41 43 48 55 62 64 66 64 60 62 66 66 64 62 64 73 78 84 82 87 83 84
30 35 33 36 40 46 52 51 52 52 55 52 46 40 40 36 37 31 36 37 36 40 43 40 41 44 52 58 62 64 63 62 62 59 56 57 61 62 70 79 87 86 88 93
32 33 41 39 39 45 51 53 54 53 51 52 50 43 39 36 36 35 35 39 40 39 37 34 36 34 37 45 50 53 55 55 54 50 50 50 56 58 70 77 85 89 93 93
31 34 40 38 41 42 51 53 53 55 54 49 49 39 36 38 34 39 37 33 32 35 34 34 37 37 34 37 39 41 42 43 43 46 50 53 56 62 72 78 85 91 91 91
32 33 41 40 41 41 43 49 49 50 49 45 52 41 38 35 36 37 37 37 35 31 29 29 28 30 41 42 42 42 44 46 50 54 55 59 61 64 70 78 84 85 95 98
33 33 35 39 39 38 40 42 47 47 51 44 45 40 39 43 38 34 33 32 32 29 31 35 33 32 34 35 39 44 51 55 58 61 60 59 61 61 61 61 61 66 75 76
38 38 36 35 38 37 34 33 35 37 36 39 37 36 39 46 43 39 37 35 30 27 28 32 38 41 40 44 49 50 52 55 61 65 64 64 62 58 56 55 59 64 67 65
43 42 39 38 36 37 35 33 37 36 36 39 37 34 33 33 39 42 42 36 31 29 30 32 35 41 50 56 59 62 64 66 68 67 66 64 57 58 57 56 57 59 61 62
46 45 44 43 42 43 45 35 35 37 36 38 43 40 38 32 33 39 36 34 32 34 31 33 41 45 47 54 58 60 62 64 62 59 57 53 50 47 46 49 53 60 66 68
53 47 46 47 54 63 32 36 37 38 36 41 39 35 30 29 28 27 30 30 31 33 35 37 38 38 42 44 46 49 50 50 49 45 43 43 44 48 51 56 62 65 66 70
59 53 55 63 49 40 35 36 39 40 34 37 34 33 28 29 26 28 33 35 36 38 39 40 43 44 45 46 47 47 46 45 41 41 44 47 52 54 55 59 63 69 71 75
65 62 58 58 53 58 33 35 39 40 32 42 38 31 31 33 32 28 32 36 38 40 43 43 45 46 47 47 47 45 40 39 43 47 50 52 54 55 59 63 66 66 63 61
75 70 67 60 57 42 38 39 43 45 31 44 37 36 38 36 32 32 33 37 40 43 45 47 48 48 49 46 41 41 42 45 47 49 52 55 60 63 62 61 58 52 47 41
67 69 70 63 68 60 40 43 44 40 44 39 37 39 43 45 37 35 35 39 43 44 46 47 50 50 45 42 44 46 49 51 52 55 59 61 60 59 56 50 44 40 41 41
69 58 57 54 48 44 45 45 42 45 45 44 40 46 51 47 41 39 38 41 45 47 48 51 49 45 44 46 48 50 53 56 57 59 59 57 54 49 45 41 38 41 41 40
49 56 66 66 50 46 50 48 51 52 50 48 48 51 50 44 40 40 41 43 47 50 51 48 46 46 49 51 52 55 56 59 60 59 55 50 47 43 40 39 40 42 38 34
38 46 45 54 58 58 55 58 59 59 54 56 57 58 58 50 46 40 43 45 47 49 49 48 49 52 54 55 56 58 61 63 59 53 50 47 43 41 42 44 41 37 36 34
41 42 47 45 47 57 59 58 57 59 58 57 58 60 58 57 45 43 45 46 47 47 49 52 56 57 58 59 62 64 64 59 54 51 48 46 46 47 46 44 43 39 37 34

GFSCGP_prec_cthk_063.txt.gz
RH
28 30 32 47 46 34 35 38 35 42 45 37 48 52 51 57 44 50 48 46 49 50 49 49 48 45 47 42 40 42 40 37 43 41 41 46 53 61 67 65 68 68 72 73
39 33 34 40 33 32 32 42 39 42 36 35 47 47 49 49 47 49 49 45 41 51 46 42 40 38 36 36 38 40 40 41 46 52 47 45 47 51 56 59 64 62 69 75
35 38 36 36 35 35 38 46 51 46 55 35 39 39 45 42 44 42 46 50 42 43 43 46 41 45 41 44 44 46 50 49 47 54 51 52 52 53 57 58 60 60 68 71
33 37 31 34 39 44 53 43 40 40 41 46 54 52 53 44 35 38 40 40 35 37 41 46 42 42 43 44 44 45 51 55 57 56 62 58 57 58 61 62 66 63 65 77
33 30 34 34 42 43 47 54 41 42 52 50 48 40 52 34 30 39 36 41 41 39 39 40 40 41 38 41 42 44 45 51 55 54 55 61 58 64 68 68 66 66 68 76
34 32 32 33 38 40 45 44 43 45 49 56 49 44 50 45 37 36 37 36 42 44 48 48 50 48 48 46 47 49 51 52 61 63 60 62 66 69 70 74 77 69 70 79
32 37 32 35 36 39 41 45 53 58 69 51 55 39 44 46 40 34 36 34 41 46 49 50 49 51 54 56 54 58 60 62 66 66 66 68 75 74 73 78 84 89 88 91
33 40 32 32 31 46 47 46 56 67 61 68 42 35 42 39 35 33 33 32 32 36 49 49 49 52 53 61 61 62 63 66 67 69 68 74 74 71 69 75 78 86 80 80
36 36 38 38 32 38 52 47 55 61 48 47 41 39 32 33 30 31 33 33 40 40 41 50 57 52 51 59 64 65 66 66 65 72 74 75 74 69 65 70 71 68 71 76
38 46 38 39 36 34 50 52 51 47 61 57 43 39 40 41 40 30 33 35 36 41 45 48 48 55 54 55 59 64 66 67 68 68 67 66 66 67 71 70 68 69 74 81
38 40 48 43 35 38 39 51 50 60 61 59 49 41 46 34 35 35 35 34 37 38 42 43 48 53 56 60 63 62 67 71 73 72 69 67 66 64 68 70 72 73 79 81
35 39 53 43 35 35 54 45 52 55 50 50 49 45 45 39 39 40 35 34 35 37 42 42 40 39 40 52 58 58 64 68 72 73 71 58 54 58 63 67 74 71 73 75
36 42 46 49 45 38 40 49 53 54 51 59 62 48 51 43 35 37 37 40 36 33 36 34 32 33 39 47 52 54 56 61 64 61 57 55 57 63 68 66 64 63 65 70
38 40 42 43 44 42 39 40 47 52 56 49 48 45 47 46 47 47 47 40 37 32 30 33 35 36 35 37 40 46 52 54 56 57 59 64 66 66 64 67 67 66 65 61
41 42 40 39 44 44 44 43 42 47 49 50 44 45 41 45 45 49 53 47 35 33 31 28 34 38 38 42 43 41 43 46 49 52 57 64 69 70 72 75 74 66 60 63
41 48 42 42 41 45 44 42 42 39 41 36 37 40 41 45 43 40 38 40 43 41 39 32 31 39 44 47 42 45 52 57 60 67 70 74 79 76 73 67 62 59 58 60
47 50 48 46 42 45 47 36 36 37 40 39 38 38 44 47 48 42 35 33 41 46 38 35 36 39 41 49 49 55 61 67 69 70 71 71 67 62 55 51 46 48 53 55
53 50 50 53 56 63 34 38 37 38 36 36 37 36 44 45 42 38 32 33 30 32 35 36 37 41 45 52 55 56 56 57 56 57 57 55 53 47 43 45 49 53 57 60
61 53 57 61 52 41 38 35 35 38 36 39 40 40 45 45 37 29 29 30 31 35 38 36 37 38 40 41 42 44 49 53 54 53 52 48 43 42 43 47 51 55 59 62
68 66 61 58 57 58 34 38 36 39 41 36 45 47 43 37 33 30 29 33 35 35 35 37 39 41 42 44 47 49 50 50 51 48 42 42 43 46 48 52 56 56 57 57
76 76 73 65 60 43 37 38 40 49 35 46 42 42 38 35 35 37 34 34 34 35 37 40 42 43 45 47 49 51 51 46 40 41 43 46 47 49 54 55 55 53 49 46
72 74 78 71 74 66 42 41 40 36 43 44 43 39 35 36 37 41 42 41 39 39 41 42 45 46 49 51 53 50 43 41 43 45 47 49 50 51 53 52 49 46 45 44
84 71 71 64 59 51 47 45 46 50 52 50 46 45 42 41 41 45 48 44 42 42 44 45 46 49 53 57 55 47 45 45 47 49 50 52 54 54 50 47 45 43 43 44
55 68 70 70 60 60 56 49 48 51 54 54 51 48 45 46 47 48 47 47 46 48 47 47 49 53 56 54 48 47 49 51 52 53 54 56 54 50 46 45 44 46 48 45
30 41 48 50 50 53 55 51 57 58 60 58 56 53 51 53 55 57 58 54 51 49 47 50 51 52 53 50 51 54 56 56 57 58 58 55 51 50 49 49 48 47 45 40
33 36 46 45 39 42 46 53 64 65 64 62 60 58 56 57 58 60 59 58 57 51 46 48 52 55 54 55 58 61 61 61 62 60 58 55 52 50 52 53 53 50 43 40

GFSCGP_prec_cthk_066.txt.gz
RH
30 29 27 28 43 51 41 38 41 43 44 43 35 41 54 60 71 67 58 51 52 53 51 48 49 41 41 44 43 45 49 49 54 49 48 45 45 47 49 53 58 56 61 64
37 34 26 34 42 39 32 30 35 39 45 38 30 42 58 50 48 55 55 49 50 49 48 45 41 38 37 41 40 41 43 43 43 42 38 41 46 48 50 53 53 61 65 67
38 35 38 34 40 33 30 27 45 45 45 39 37 38 47 50 55 46 53 52 53 47 45 44 40 43 46 43 42 41 38 37 40 43 43 45 49 49 50 53 55 60 59 59
39 35 43 38 34 36 39 35 41 46 46 44 48 49 52 48 44 36 35 46 39 41 42 41 41 39 39 38 40 43 43 43 44 49 55 53 48 47 51 53 58 58 60 61
37 38 39 36 30 37 47 41 49 40 38 45 48 58 55 41 46 43 43 34 34 32 37 39 36 36 37 37 38 40 45 48 46 46 50 53 49 48 49 55 63 66 67 66
39 44 37 38 31 39 42 40 40 41 42 46 46 52 54 47 45 39 41 41 37 36 40 49 50 47 47 48 46 42 42 43 50 57 56 56 55 53 52 59 64 68 77 81
42 42 39 34 34 37 39 40 45 52 53 49 51 50 49 46 45 45 41 41 43 42 43 47 50 49 48 49 49 50 48 50 52 57 59 59 58 61 66 64 62 66 80 79
52 45 37 35 33 39 37 37 44 67 85 74 60 41 40 41 42 36 32 31 42 49 47 44 47 49 49 49 48 52 54 54 57 58 60 67 67 65 66 64 58 60 66 67
49 38 37 37 32 32 54 49 37 73 73 84 57 40 32 35 35 30 32 36 38 38 43 47 48 54 53 51 47 50 51 54 58 58 62 59 64 67 84 81 58 66 76 71
46 49 38 38 38 29 41 48 48 56 82 61 38 36 43 41 42 36 32 33 35 41 43 42 53 54 54 52 49 50 53 55 58 58 55 55 57 61 62 70 65 83 82 75
46 50 43 45 38 37 35 46 51 48 52 59 54 53 51 47 42 32 34 33 34 36 35 38 47 60 59 63 61 55 56 61 63 62 63 61 63 65 73 82 79 66 75 80
44 50 54 49 41 36 38 33 48 52 58 52 60 58 48 47 44 41 35 35 36 36 35 37 38 43 58 63 63 68 63 63 67 70 78 77 84 85 75 63 68 72 77 81
43 50 55 61 54 43 31 48 42 43 46 53 70 52 41 43 42 40 37 36 38 37 38 38 34 34 36 48 60 68 73 70 65 71 83 79 77 74 65 66 68 72 72 72
52 51 53 55 53 40 42 39 55 55 57 53 50 46 50 48 47 44 40 44 44 43 38 37 39 34 32 30 35 49 54 54 55 57 62 62 62 66 60 60 66 72 72 76
58 56 53 48 49 45 41 35 33 38 50 54 49 39 38 44 45 45 48 46 46 52 43 33 37 45 40 35 31 33 37 40 44 51 52 51 54 57 68 77 79 80 80 76
54 62 56 56 44 49 52 46 41 37 37 45 48 47 44 43 39 45 47 41 45 52 44 43 39 51 50 40 35 40 46 46 52 53 56 59 65 78 81 80 81 76 70 64
53 57 53 56 45 48 53 48 43 44 43 41 41 39 37 38 42 44 45 49 37 36 35 39 47 59 50 44 40 43 45 50 51 60 69 75 80 78 75 77 67 58 51 47
57 62 55 66 59 58 42 37 42 41 37 40 40 40 41 39 41 47 48 49 42 34 31 35 44 49 45 44 41 42 47 56 65 68 70 69 64 60 60 57 53 47 46 50
65 68 70 68 65 48 43 42 42 41 38 38 39 38 42 41 44 43 40 40 37 29 32 33 34 40 43 39 42 46 49 52 54 53 53 54 57 56 53 46 41 43 48 51
69 73 73 67 66 71 49 41 43 41 45 34 37 42 42 43 47 45 41 34 29 31 31 35 37 37 38 41 42 42 44 48 50 53 54 53 54 47 41 41 45 48 50 52
83 81 76 74 71 59 45 40 40 48 44 33 45 48 44 47 44 39 36 32 33 35 36 36 39 40 40 40 41 44 46 49 50 52 54 48 42 43 44 47 49 51 52 53
85 83 79 76 79 73 51 44 43 33 37 46 46 47 47 43 40 36 34 34 36 38 41 44 45 44 43 43 44 48 51 53 54 54 44 42 44 46 47 49 50 49 50 50
72 74 74 67 68 58 54 57 50 47 51 50 57 53 52 46 42 43 44 43 42 43 45 46 43 45 47 49 49 49 55 58 57 48 44 45 46 47 50 51 50 50 51 49
60 72 85 85 62 68 66 64 57 54 52 50 57 56 56 50 48 49 49 50 53 55 57 56 54 53 52 51 51 53 55 57 54 48 49 50 51 53 52 49 48 49 49 49
42 59 73 74 76 77 72 64 65 61 59 58 59 58 58 55 55 55 54 54 57 60 61 59 59 59 58 54 53 54 55 57 55 54 56 57 57 56 53 52 49 50 53 52
45 42 45 51 42 45 48 52 56 58 55 59 56 64 62 62 61 61 60 60 61 62 65 65 64 63 60 56 56 57 59 58 59 60 62 63 62 62 59 57 56 59 61 57

GFSCGP_prec_cthk_069.txt.gz
RH
41 38 34 24 20 30 39 45 48 42 44 47 49 42 47 54 61 59 61 65 58 45 44 40 34 42 43 44 49 51 46 49 51 50 51 51 51 52 53 52 50 49 52 54
44 40 28 28 27 35 40 44 38 48 43 44 41 33 44 53 57 59 52 60 63 50 43 43 35 31 32 33 35 40 43 41 42 42 49 50 49 49 49 49 50 46 48 54
47 38 29 34 32 35 43 40 31 42 42 46 42 38 53 48 56 56 57 58 51 48 41 41 37 30 30 29 30 32 37 41 41 41 46 47 46 44 44 44 47 49 50 54
48 38 39 45 37 37 41 34 32 40 46 46 44 46 50 49 50 50 49 46 46 44 39 38 35 32 31 31 31 31 32 33 36 36 35 36 40 42 43 44 49 55 58 57
45 45 43 46 41 42 34 46 47 47 44 39 39 50 54 52 46 46 52 49 45 37 33 36 36 39 35 35 34 33 36 39 35 34 37 39 39 38 40 44 48 54 60 62
46 41 41 42 39 39 32 45 45 44 46 49 38 56 63 52 44 45 45 47 48 42 35 39 45 45 39 40 41 41 42 42 40 40 45 48 48 51 54 52 55 59 62 66
43 42 40 43 40 39 39 43 51 57 59 52 55 62 53 48 45 45 38 42 45 44 40 41 44 46 44 42 44 46 46 46 50 53 52 55 59 61 63 64 55 59 59 60
50 51 44 43 41 37 40 41 53 59 69 62 53 56 46 37 38 39 34 38 40 42 44 39 40 41 47 48 48 46 48 47 49 50 52 54 58 63 63 66 65 60 55 59
48 49 46 47 43 36 40 47 44 67 67 78 71 52 44 40 37 37 39 40 39 40 43 47 46 43 45 54 51 46 45 44 46 49 50 55 60 60 62 61 67 74 71 71
46 53 48 47 43 42 39 46 62 71 88 87 63 63 52 50 45 37 34 32 33 37 44 46 46 44 47 47 47 48 45 43 44 47 50 51 54 63 73 66 71 76 80 92
50 56 55 49 45 40 37 42 57 67 74 69 68 63 53 48 49 43 35 33 31 35 40 46 50 48 46 46 46 46 55 53 52 51 47 52 60 60 65 73 84 93 93 90
49 62 64 54 49 40 43 34 47 66 62 66 73 63 47 49 44 42 42 37 33 30 29 29 37 47 52 50 48 47 55 54 50 54 61 75 75 76 89 97 95 86 73 72
54 68 77 63 50 48 47 42 38 43 64 66 72 59 50 49 49 42 41 40 39 35 32 30 30 31 40 43 46 55 66 76 87 73 83 90 77 91 78 76 75 80 73 72
61 67 72 64 59 58 49 47 45 46 63 63 60 52 54 50 49 46 44 43 46 44 39 37 36 31 29 33 41 47 57 70 46 45 57 68 66 71 77 77 70 66 68 76
57 63 64 61 58 63 58 49 38 41 50 60 52 52 47 47 47 46 45 45 47 46 47 39 45 44 32 25 28 29 32 34 39 41 49 51 53 58 62 62 66 70 80 80
57 60 65 65 61 62 65 53 44 41 43 50 55 56 48 42 43 44 44 44 50 52 49 46 42 43 37 36 35 40 41 41 43 45 45 48 49 54 56 61 75 83 81 76
64 62 68 68 66 62 70 54 51 52 44 41 41 41 41 47 44 44 45 45 43 40 43 44 40 42 43 38 39 43 41 41 43 46 49 52 53 56 64 72 72 73 65 60
58 58 67 75 70 71 51 49 57 54 49 49 46 45 43 44 43 41 40 43 43 44 46 46 35 28 32 36 38 36 36 38 42 40 44 48 52 58 60 59 54 52 50 51
60 67 74 81 71 59 51 43 54 53 47 46 45 42 41 43 43 39 37 40 43 44 42 38 34 29 32 35 38 39 37 35 36 41 47 52 54 52 50 50 51 51 50 44
73 66 75 78 71 65 48 40 45 50 52 44 38 37 39 43 48 42 43 42 45 49 46 37 28 29 30 33 34 33 37 41 44 43 42 44 48 50 50 50 49 44 43 45
72 74 78 85 83 64 50 41 46 50 51 37 35 39 45 44 43 42 41 43 43 41 39 36 33 33 35 38 40 42 40 40 40 41 44 48 50 51 51 47 42 42 44 47
64 73 83 79 82 82 60 52 52 50 43 41 41 45 47 48 49 45 42 45 39 35 33 35 37 40 43 46 46 42 44 44 46 46 48 51 53 53 49 43 44 46 50 53
67 60 65 72 73 66 61 68 61 55 52 51 46 55 51 50 53 50 47 43 43 43 42 44 45 47 50 51 52 52 52 51 52 52 54 54 55 55 49 47 49 52 54 51
61 59 71 73 71 75 69 70 74 64 63 62 59 55 54 57 59 57 52 49 48 50 51 52 55 58 61 61 58 59 59 57 59 58 59 59 59 54 52 53 54 56 55 52
46 50 58 70 70 80 77 88 76 65 65 62 61 59 62 57 59 59 55 56 54 57 61 61 64 66 68 67 68 67 68 67 65 63 63 64 64 62 61 63 62 56 55 59
33 37 55 71 69 70 61 65 60 65 72 67 62 60 62 63 60 60 61 64 62 63 68 70 73 74 74 75 76 75 73 72 70 69 70 72 74 71 68 66 64 62 63 63

GFSCGP_prec_cthk_072.txt.gz
RH
41 44 40 39 32 25 28 36 40 38 44 51 51 52 47 42 54 59 50 49 43 38 40 47 44 43 44 51 68 75 81 81 84 83 83 80 72 68 66 64 63 63 61 60
41 40 40 39 31 28 27 38 40 37 44 48 50 44 46 48 51 59 53 49 43 40 39 41 37 31 38 44 49 55 56 56 58 61 60 61 59 58 56 54 53 51 50 50
43 42 41 41 30 30 34 36 34 36 41 47 47 48 47 47 51 59 44 44 39 40 39 38 35 30 29 35 39 37 39 40 43 44 45 47 51 49 46 44 48 47 48 48
41 43 42 40 36 37 41 34 35 38 40 48 47 47 46 47 55 55 43 42 37 37 38 36 32 30 26 28 31 33 32 34 35 35 37 38 40 40 41 44 45 50 49 46
37 44 44 45 42 46 42 37 43 45 46 45 44 48 40 44 48 44 43 42 44 41 37 35 34 32 25 25 24 26 29 30 32 34 34 38 40 38 39 41 45 49 50 54
35 42 46 41 41 51 45 39 42 48 50 50 45 51 39 41 43 41 42 43 41 42 40 42 42 41 36 32 29 29 30 31 32 33 35 36 38 40 42 40 42 50 49 54
38 40 43 46 47 49 47 46 52 53 60 54 49 52 40 42 42 42 35 40 40 44 46 41 42 43 39 36 36 38 38 36 34 35 37 39 43 41 42 45 48 49 53 57
40 44 42 46 45 46 45 42 51 53 59 55 54 50 41 40 39 42 37 38 39 44 47 44 40 38 38 40 38 37 39 39 38 39 39 40 46 49 58 62 64 66 62 55
41 40 38 41 46 47 49 50 41 58 61 68 58 56 43 41 36 40 38 40 39 42 44 45 45 45 44 47 47 40 37 37 37 38 44 49 52 59 66 64 66 67 72 74
42 45 39 44 49 49 51 46 57 58 74 72 57 64 53 40 39 39 38 38 35 37 41 42 45 46 46 49 55 57 52 45 40 41 44 52 59 59 67 74 75 78 74 75
44 45 45 47 52 55 55 51 57 56 66 71 72 60 48 42 41 41 41 38 35 38 37 40 42 47 48 50 55 57 65 68 63 60 57 62 59 59 61 65 72 82 94 95
45 54 53 47 47 54 56 47 50 65 67 74 81 59 50 47 41 43 43 41 36 37 38 39 40 41 42 45 49 55 64 67 73 75 80 84 85 87 86 78 87 94 92 91
52 59 63 53 53 58 55 47 55 52 56 70 79 58 47 47 44 41 42 42 39 35 35 34 34 34 33 36 39 45 49 60 69 76 83 75 68 87 90 96 94 91 81 67
55 59 51 50 51 62 62 50 51 54 61 56 62 56 59 52 46 42 45 43 45 45 42 38 42 40 37 29 31 34 38 47 57 70 68 45 46 57 83 79 78 74 68 67
55 57 52 51 55 63 66 57 57 56 53 52 42 59 53 50 52 49 47 48 46 47 49 45 44 42 39 38 38 37 38 39 44 49 43 42 45 49 59 59 63 63 62 70
62 60 57 60 60 69 71 63 58 60 58 57 49 52 49 43 43 49 49 46 44 45 47 44 45 44 38 36 33 34 39 44 47 51 48 40 41 48 51 52 58 59 67 73
72 68 62 62 68 74 74 65 62 64 62 58 53 48 49 48 48 48 43 47 40 44 42 42 44 47 46 41 34 34 37 42 48 46 39 38 43 47 50 54 56 61 68 73
79 73 68 79 71 90 64 59 65 65 57 54 52 50 48 42 44 46 46 41 40 44 43 41 45 45 43 40 33 31 34 38 40 39 42 44 46 49 55 59 60 65 68 64
80 82 80 80 72 66 65 59 63 66 59 54 53 45 50 46 45 43 40 40 41 43 44 41 40 40 39 35 29 34 38 43 45 46 45 45 50 55 57 61 59 54 54 54
81 83 74 79 72 74 60 58 60 63 64 58 56 51 50 48 48 45 40 39 39 40 42 41 42 44 39 37 34 36 40 46 48 45 46 52 57 58 52 48 52 53 53 53
77 85 79 83 77 71 63 61 58 67 58 55 60 53 50 51 49 45 43 40 41 43 43 44 42 40 38 37 39 41 42 43 44 49 51 51 51 52 53 51 51 52 53 53
76 89 82 81 82 77 65 62 64 61 59 57 58 51 48 45 46 43 47 43 43 44 45 49 43 38 38 42 44 44 44 47 49 49 50 52 52 54 54 55 55 56 56 54
74 67 78 76 74 66 63 65 69 64 62 60 54 53 51 45 43 43 41 41 48 50 48 47 44 45 47 49 50 51 54 56 56 55 56 58 56 58 60 61 61 63 62 58
67 70 70 64 60 55 58 65 65 70 66 62 56 53 56 55 57 51 51 50 56 57 54 55 52 51 53 56 56 56 58 60 62 61 64 65 63 62 62 64 67 69 70 70
48 56 63 62 61 61 61 65 67 67 72 69 67 64 60 60 58 61 60 57 65 65 67 64 61 60 59 63 65 64 65 66 70 71 72 73 75 74 72 70 73 75 79 80
49 57 68 65 53 53 60 59 63 56 69 80 71 72 71 67 67 66 64 65 65 68 72 67 66 65 68 72 74 74 73 75 78 77 79 81 83 83 82 82 84 85 84 80

GFSCGP_prec_cthk_075.txt.gz
RH
42 43 43 44 48 42 35 31 31 30 35 39 42 40 47 45 44 49 57 49 48 48 45 44 45 38 41 60 80 85 89 93 94 97 96 97 94 88 82 78 80 75 71 66
41 44 43 45 47 44 39 34 33 34 37 39 40 42 45 47 42 45 53 45 48 49 44 40 38 37 37 46 59 72 79 89 92 95 94 94 90 87 79 77 68 66 63 63
41 43 42 44 45 43 40 34 30 35 39 36 37 40 48 46 40 41 50 43 41 38 38 38 33 31 32 39 43 47 52 59 74 84 83 79 75 75 71 64 60 62 60 61
39 42 43 45 47 42 41 28 39 41 41 40 38 47 42 44 45 44 49 40 35 33 32 33 31 28 24 32 36 38 42 45 52 56 58 60 59 60 54 52 50 50 53 55
35 40 42 46 47 44 42 39 47 46 42 43 42 46 39 40 43 40 37 33 34 30 29 27 26 28 26 26 28 32 36 38 42 47 45 47 47 48 48 49 47 51 53 51
31 35 39 41 44 44 39 50 54 51 46 50 43 48 40 38 36 34 34 33 33 33 31 36 37 37 35 29 27 26 29 31 34 37 41 44 43 44 42 42 45 50 55 57
32 31 35 41 48 48 51 53 62 58 55 51 46 53 40 37 40 38 37 35 36 35 35 35 38 40 40 37 34 34 34 35 35 37 39 40 41 43 44 47 50 51 55 56
35 38 34 36 41 47 53 53 65 62 58 49 50 52 37 38 41 39 35 31 32 35 38 36 37 38 36 39 38 36 37 38 39 40 41 43 44 46 49 49 52 56 56 56
40 38 33 36 44 45 49 54 53 65 68 63 50 40 32 33 35 34 32 32 33 36 35 37 40 40 40 42 43 41 37 39 40 40 42 44 46 49 51 54 54 57 62 67
42 42 36 38 44 47 51 54 61 65 72 63 53 46 39 36 39 35 33 32 35 36 36 39 43 45 46 46 50 55 55 46 40 41 42 44 46 49 54 56 59 67 74 80
42 47 44 45 46 50 56 56 58 61 63 61 63 50 36 40 42 37 33 34 36 31 31 36 40 44 48 51 54 56 57 59 63 60 58 57 56 58 60 59 61 69 81 88
43 47 52 51 49 49 53 54 57 68 72 63 61 53 41 43 46 41 35 39 41 34 31 33 34 38 43 47 52 56 58 60 65 76 84 88 84 74 77 76 79 78 80 83
64 55 58 52 51 50 57 58 56 62 67 65 69 54 52 51 46 47 40 40 40 40 39 38 35 34 36 39 40 41 45 49 55 66 76 75 75 69 56 58 72 82 83 95
74 60 50 49 48 50 57 58 58 62 69 62 60 44 55 51 50 47 47 44 46 43 40 40 43 41 38 39 37 37 39 40 40 45 59 63 78 55 51 54 65 80 78 76
77 68 59 51 52 60 59 60 63 66 59 53 51 44 46 48 47 49 46 46 45 48 47 43 42 44 46 46 41 36 36 38 41 44 53 57 58 61 57 53 54 58 61 64
85 75 70 64 62 62 66 64 66 68 64 53 51 48 39 38 44 54 47 48 51 52 50 46 47 44 41 41 41 43 42 31 32 39 48 58 65 63 54 50 54 54 58 64
94 84 77 72 68 71 75 60 65 68 66 62 54 51 44 44 45 49 50 46 49 53 52 50 49 42 40 40 42 41 40 35 36 41 50 57 56 54 52 52 50 55 61 67
96 94 84 82 77 88 56 55 60 66 66 60 56 53 50 50 45 45 47 46 50 47 46 44 46 42 43 42 41 41 41 32 36 42 48 52 52 52 52 48 51 57 62 67
84 90 97 96 79 63 55 57 67 73 67 61 63 57 55 48 44 37 39 43 45 45 44 43 42 48 47 45 45 42 40 38 36 41 50 55 53 53 49 51 59 64 68 73
65 78 89 89 88 83 59 55 63 73 71 63 63 60 55 46 48 44 37 35 36 37 40 44 45 46 46 46 47 46 42 37 39 44 50 53 51 52 56 62 66 65 62 62
72 74 75 83 97 81 64 57 57 82 67 71 71 61 56 55 49 48 48 43 43 42 41 46 48 48 47 46 45 44 39 41 45 48 50 49 51 56 57 59 59 59 60 62
72 73 73 76 89 90 69 62 67 67 68 71 66 61 58 60 55 53 52 49 45 41 44 47 48 47 50 51 50 46 48 52 54 53 54 57 57 57 60 61 62 64 64 63
64 54 52 63 74 72 73 65 66 69 80 71 66 63 64 60 58 54 51 47 46 45 46 49 52 52 55 55 52 53 54 56 60 62 63 63 63 64 65 66 68 70 69 70
52 50 68 71 72 74 71 68 65 61 67 78 69 68 64 62 61 57 54 54 52 53 51 53 57 62 64 64 61 62 63 67 68 69 70 68 69 71 71 73 76 77 77 79
46 55 59 72 78 75 65 61 55 55 55 67 72 69 69 69 66 65 66 64 65 65 65 65 63 65 69 73 74 76 75 75 78 79 78 77 78 80 81 82 82 81 82 85
57 62 66 58 52 60 58 54 49 48 54 61 65 67 69 70 71 70 70 71 72 72 74 74 73 71 74 77 76 80 83 80 82 86 88 89 90 92 88 85 87 89 91 95

GFSCGP_prec_cthk_078.txt.gz
RH
45 45 45 42 45 45 45 45 38 34 27 34 39 37 34 36 41 44 51 56 54 51 47 43 46 47 43 53 79 89 90 94 92 91 98 99 96 97 96 93 91 88 83 79
40 40 40 42 46 47 49 48 41 34 29 36 38 33 29 37 37 45 50 54 53 54 50 44 41 37 41 49 67 88 90 94 96 99 97 97 95 91 94 92 88 89 79 78
36 36 40 41 46 48 49 48 44 39 34 42 44 36 28 32 37 41 43 51 49 47 44 39 38 34 36 43 50 65 77 86 92 94 96 95 96 93 91 92 91 85 81 79
37 34 39 42 44 46 50 42 43 39 41 46 43 47 29 30 34 40 45 48 41 38 39 35 36 32 28 32 38 46 55 64 77 88 92 93 92 91 88 83 77 73 71 71
31 34 40 42 44 48 48 45 46 41 46 49 48 51 31 28 34 36 39 39 36 34 32 31 32 32 27 26 32 34 42 50 55 63 72 72 73 71 70 65 64 64 60 62
22 28 34 38 45 47 48 48 45 46 52 64 52 54 35 29 33 31 31 32 29 33 33 33 34 36 33 24 27 30 34 38 44 48 52 52 52 52 53 53 53 52 55 56
25 26 28 35 41 44 47 50 56 60 70 63 51 55 32 28 30 33 36 30 30 32 32 36 40 40 40 37 31 29 30 34 38 41 44 42 41 42 44 47 48 48 53 55
22 28 24 29 37 45 50 50 60 63 66 61 60 57 35 26 27 34 37 33 32 34 33 35 38 42 41 40 38 36 36 36 37 39 42 44 45 48 49 50 50 52 53 55
28 27 22 23 30 40 50 52 47 63 72 71 62 53 34 24 25 32 37 36 31 32 32 33 36 40 42 41 41 38 34 37 39 39 44 46 47 53 55 57 57 56 55 56
34 37 31 32 33 35 42 51 62 68 77 77 64 59 40 25 26 32 34 34 29 31 33 34 37 40 43 46 47 49 50 44 39 41 42 44 48 51 52 53 54 56 56 58
42 45 41 37 39 41 46 49 57 63 65 63 68 57 38 29 30 35 35 36 36 35 31 33 35 39 46 51 52 51 56 59 58 55 46 45 48 51 52 52 52 51 56 57
50 44 47 41 44 47 45 51 54 65 67 70 68 52 41 36 35 36 37 35 36 36 29 30 33 36 39 46 52 56 59 60 62 65 72 74 71 71 66 64 64 64 63 72
75 60 48 43 42 49 52 54 57 62 70 75 72 56 46 38 42 43 44 38 39 42 37 34 35 35 32 35 38 44 50 56 60 62 66 75 79 83 77 69 53 58 65 82
88 77 62 44 42 46 56 54 58 62 70 68 66 55 51 43 45 48 48 45 38 39 43 41 37 37 33 36 38 37 36 36 40 45 48 52 65 79 78 76 60 57 62 80
95 90 70 53 46 47 53 55 58 58 57 60 54 57 52 47 49 50 50 52 45 43 40 45 42 38 39 39 39 38 34 37 38 39 41 44 53 64 69 72 73 61 57 59
91 94 80 58 51 52 54 53 56 57 59 59 58 55 53 50 50 51 50 55 49 47 45 43 47 44 42 44 45 43 40 41 42 37 39 40 43 53 65 70 66 61 54 53
97 97 98 74 61 58 65 50 53 55 55 56 61 58 57 54 50 45 46 52 55 54 53 49 52 50 50 48 48 46 44 44 46 38 35 44 44 53 59 59 56 52 50 52
87 88 98 91 81 85 54 53 58 62 59 58 58 61 62 57 55 42 38 41 47 51 56 54 50 46 48 50 48 47 47 46 45 44 40 42 45 49 54 56 54 52 55 50
87 93 99 96 92 76 62 61 64 66 58 59 57 65 66 63 56 51 43 41 42 42 47 48 50 43 45 50 50 50 49 49 47 45 41 42 46 51 56 63 60 58 57 60
67 85 89 99 90 96 71 66 61 62 65 56 65 64 67 66 62 56 51 46 39 43 45 47 44 42 46 48 52 52 50 49 48 45 44 47 52 56 60 55 52 60 63 67
78 79 84 89 85 76 63 66 69 73 64 59 67 69 72 70 64 60 52 47 40 39 42 41 41 43 44 48 49 50 49 49 51 48 51 54 57 57 56 58 63 66 70 70
83 85 86 86 84 77 55 60 75 76 66 65 69 75 75 75 70 64 55 52 49 43 44 44 45 51 54 55 51 50 54 56 55 55 58 59 60 62 64 69 69 68 68 70
65 68 75 72 69 60 62 71 66 71 77 68 68 78 78 75 79 71 65 55 55 54 53 53 51 50 52 55 55 56 61 64 63 61 62 64 65 68 70 70 72 72 72 73
39 53 60 56 49 61 64 55 56 76 70 68 65 67 76 77 75 73 68 63 62 61 62 65 63 59 61 65 68 67 70 71 70 69 75 76 75 75 76 76 77 79 81 82
53 49 50 50 49 49 55 60 63 72 69 67 65 62 65 71 76 76 75 72 71 73 76 77 76 74 74 75 79 79 76 76 79 80 80 81 80 80 83 86 88 91 92 93
53 52 54 55 52 58 60 62 61 58 60 57 58 57 63 68 74 74 73 76 80 88 79 91 85 87 81 82 84 85 85 85 85 84 86 88 86 88 90 94 98 97 97 94

GFSCGP_prec_cthk_081.txt.gz
RH
44 46 46 43 45 44 44 42 42 40 38 35 30 30 34 34 36 39 43 46 53 53 50 48 44 43 45 45 58 80 87 89 92 96 97 98 99 94 93 87 89 86 84 79
46 45 44 44 46 45 44 43 41 41 42 37 32 31 33 34 32 38 41 46 49 56 49 49 43 40 40 45 56 82 89 94 96 96 97 98 98 95 96 91 91 87 82 82
37 39 42 44 45 46 47 48 44 45 46 39 33 34 36 34 34 36 41 43 48 52 45 41 40 38 37 39 48 68 84 91 95 97 96 98 99 98 96 90 92 89 85 81
33 33 37 42 39 40 42 44 46 48 48 42 36 37 35 32 28 30 35 40 46 50 38 36 36 38 33 35 40 54 62 75 89 97 98 98 97 97 96 92 92 90 85 83
28 27 28 36 42 44 43 45 47 47 46 43 35 39 35 37 28 25 31 37 41 44 39 31 29 34 32 32 35 41 50 62 69 89 95 96 98 97 95 93 90 88 83 75
22 22 23 27 35 41 45 48 50 50 49 48 35 45 35 37 30 28 30 32 34 38 37 31 29 30 30 29 30 34 39 47 55 63 74 80 81 81 83 82 75 74 69 65
25 19 19 21 32 41 47 51 53 58 59 41 39 49 35 36 30 28 31 33 32 31 31 31 33 33 33 29 24 28 31 35 40 45 52 59 62 64 62 62 60 58 55 52
25 25 23 19 22 32 41 48 53 53 54 43 46 48 38 40 30 27 31 35 34 32 32 28 32 36 35 35 31 32 30 33 37 41 46 50 52 55 55 55 53 53 51 49
27 23 19 19 19 21 37 43 45 53 64 62 51 48 39 39 33 27 28 35 37 32 33 33 31 36 39 37 37 33 34 34 35 37 42 46 49 49 47 46 48 47 49 49
36 34 27 30 27 26 29 35 52 54 55 57 51 53 39 42 34 27 29 36 38 38 38 35 34 34 37 40 38 38 37 36 36 37 40 42 45 47 49 50 48 49 50 50
41 41 39 34 34 32 33 36 43 47 50 48 51 49 41 43 39 31 34 38 37 36 34 37 35 37 40 45 44 43 44 45 41 41 41 43 45 47 49 48 50 50 53 53
64 53 45 38 39 37 37 38 41 51 59 56 52 46 42 44 43 34 37 39 38 36 38 37 38 38 41 45 49 50 51 52 56 58 54 54 49 49 50 52 54 54 56 57
67 69 57 41 37 39 41 44 45 45 53 52 64 53 46 47 50 42 43 43 41 41 40 38 37 39 42 44 46 48 51 55 59 60 64 68 66 66 65 70 69 60 57 60
65 77 80 63 48 46 44 46 49 50 55 43 44 50 49 46 50 46 46 49 49 46 43 42 41 37 38 38 42 40 43 46 45 47 48 52 53 49 55 69 69 64 56 59
54 64 66 73 69 63 49 48 52 54 49 53 46 50 49 46 51 46 49 47 52 51 48 47 43 44 44 41 41 40 41 40 41 42 42 44 48 50 56 59 67 72 73 71
63 86 91 75 72 73 61 48 46 50 52 53 54 53 52 48 52 51 52 54 52 53 51 47 40 43 44 48 48 46 42 42 44 44 39 38 42 43 47 55 62 71 77 77
57 81 93 68 68 86 74 41 45 47 50 51 52 48 50 49 49 53 54 58 52 53 52 50 46 39 42 45 48 47 45 48 45 45 45 42 43 44 47 53 63 70 71 70
56 73 86 84 91 97 72 55 47 47 47 50 50 50 53 51 50 51 51 53 54 53 54 48 47 43 42 42 44 45 49 51 52 49 48 48 46 47 45 48 56 62 63 64
50 66 90 95 97 93 83 75 68 60 56 57 57 55 55 54 50 53 58 58 53 53 52 51 51 54 52 48 49 49 48 52 53 50 50 50 48 47 51 50 52 57 61 63
49 64 91 95 93 88 76 76 77 70 67 65 67 64 62 56 58 64 72 63 54 50 47 47 48 50 52 52 49 52 51 52 53 54 57 57 50 47 53 59 60 61 61 59
75 80 83 80 84 77 65 64 70 74 75 72 73 70 66 70 68 71 72 66 59 53 54 50 48 48 52 50 48 52 55 56 56 60 58 57 53 53 57 59 61 64 64 68
92 92 85 86 92 87 74 71 81 80 73 76 77 74 69 68 78 77 75 72 63 61 60 57 51 51 52 51 51 53 57 62 62 63 63 63 62 60 60 61 63 66 72 74
59 73 88 85 84 76 76 72 74 79 78 76 76 82 74 72 85 81 81 79 73 67 68 67 56 55 56 61 66 65 64 64 62 64 66 67 67 67 66 67 74 76 77 77
51 57 63 62 68 62 53 60 63 71 69 72 78 76 71 74 79 78 82 82 86 81 77 73 69 68 68 69 75 76 74 73 72 72 73 74 79 79 80 82 82 82 82 83
54 47 45 49 43 43 47 52 57 61 66 65 57 67 64 66 72 73 77 88 91 89 84 82 77 79 83 80 79 80 82 80 78 77 81 85 82 82 86 86 88 89 90 91
63 58 55 50 51 49 42 44 50 59 62 61 62 62 65 60 63 67 75 85 89 90 90 90 89 91 89 87 83 83 87 88 87 84 85 85 90 91 90 92 94 92 94 96

GFSCGP_prec_cthk_084.txt.gz
RH
48 51 46 46 47 45 42 42 40 39 40 42 38 35 29 28 32 32 33 35 41 43 50 53 46 45 39 38 43 58 82 83 83 81 87 92 93 92 93 90 85 84 89 87
50 47 47 50 49 49 45 43 41 41 41 43 40 38 30 28 33 33 31 34 39 42 53 51 44 42 36 38 44 63 83 89 86 93 94 93 97 94 92 91 92 91 85 83
47 42 44 51 55 52 46 45 43 42 45 43 41 39 33 26 31 31 30 32 37 41 48 47 40 38 35 34 39 56 76 92 96 94 99 96 97 94 95 92 92 90 92 88
40 48 39 47 48 46 45 44 43 45 46 43 43 37 27 32 35 34 31 30 36 39 45 44 35 34 34 32 34 48 63 75 91 97 96 95 96 94 95 93 92 95 94 90
37 29 39 34 38 48 44 43 40 43 45 46 45 42 28 29 35 33 29 25 32 38 44 45 32 31 32 31 32 39 51 65 76 90 97 98 96 93 94 91 91 92 91 89
37 42 40 36 33 35 42 45 45 45 46 49 42 39 29 31 37 34 31 27 28 34 40 43 34 29 29 29 30 34 41 50 64 78 93 96 96 94 93 91 88 90 90 87
23 19 22 28 27 30 37 41 47 52 53 46 35 39 32 33 38 34 29 28 30 33 36 38 31 28 29 28 26 30 33 40 48 59 73 81 81 82 83 81 77 79 83 76
34 32 27 26 19 22 27 38 45 52 51 48 40 41 33 34 39 38 29 29 31 34 34 34 31 32 32 32 29 29 31 36 43 46 50 57 63 67 69 71 69 69 67 64
26 26 28 23 24 16 26 31 35 45 45 55 45 45 37 34 40 40 31 28 30 35 37 36 35 34 35 35 32 27 31 35 37 42 47 49 52 55 56 58 59 62 60 61
35 32 25 25 26 25 24 31 35 39 47 48 39 44 42 35 40 42 34 27 32 37 38 36 36 33 36 37 35 30 31 36 37 39 44 47 49 51 52 53 52 54 56 57
46 38 37 34 33 29 29 32 34 32 37 41 41 39 43 36 40 46 39 29 34 37 42 43 39 35 36 37 39 33 33 37 39 41 43 46 49 51 51 52 52 53 56 56
61 57 42 35 40 34 37 36 34 40 34 41 40 39 46 43 43 45 42 34 39 42 45 44 41 37 38 39 42 42 41 41 41 43 46 48 51 55 57 58 58 60 62 63
56 69 58 43 33 35 36 38 37 39 43 42 56 44 38 42 38 43 46 42 44 47 46 45 44 42 41 41 42 44 44 45 51 56 57 56 52 51 53 57 54 62 62 63
39 42 58 62 65 60 57 46 44 46 48 45 37 40 46 46 42 47 49 47 49 47 48 50 49 42 44 45 45 46 50 51 54 56 54 56 57 57 57 58 56 65 72 69
46 45 41 48 54 49 50 47 47 43 38 48 41 41 39 40 42 48 52 51 54 51 51 50 50 48 44 42 44 44 50 52 51 51 48 44 47 48 44 44 49 59 62 63
57 60 56 53 60 59 51 47 43 41 42 41 47 44 51 52 45 47 51 52 54 56 52 53 51 52 51 47 43 42 38 38 41 42 43 45 45 47 49 49 47 56 66 68
67 59 61 52 60 76 62 58 61 44 40 38 45 46 55 51 47 43 47 55 52 57 57 58 55 52 51 47 44 45 44 43 40 40 40 40 40 41 41 44 49 50 61 71
65 62 67 58 61 74 56 70 74 54 46 43 42 46 51 53 52 51 53 52 54 50 57 57 59 56 54 54 50 48 47 47 47 44 42 43 44 46 48 49 48 48 51 60
63 63 67 61 67 59 70 78 93 81 56 49 51 54 57 54 49 49 50 51 52 53 55 54 58 61 56 54 54 52 52 54 52 48 49 48 49 50 51 50 50 52 53 53
55 55 60 58 80 67 63 66 84 81 77 65 61 67 62 59 59 60 57 56 55 54 53 53 60 60 60 59 58 58 55 56 54 54 58 58 53 53 57 55 52 53 58 59
75 68 63 65 91 71 68 69 81 98 98 86 78 78 73 70 69 69 65 64 62 62 59 59 57 58 57 58 55 58 58 60 58 56 57 56 59 60 62 59 54 56 59 62
94 77 65 77 92 76 63 68 82 93 92 87 90 86 80 73 67 64 67 69 70 70 68 68 62 60 57 60 58 60 60 55 54 64 63 66 67 67 67 65 64 64 65 67
69 90 96 78 69 74 73 81 83 81 83 76 77 80 77 74 69 70 70 71 75 76 76 72 71 65 65 64 61 65 66 62 64 71 77 77 77 74 73 75 74 75 77 78
49 54 72 77 82 82 81 78 72 69 66 72 75 73 69 71 71 72 76 74 74 83 82 84 78 75 71 71 70 73 72 72 75 78 81 81 80 78 77 79 79 83 87 86
56 55 51 51 55 62 68 65 56 62 63 66 65 69 67 66 71 72 74 75 75 83 89 92 88 88 84 83 84 82 82 85 85 84 84 84 82 83 84 86 88 91 91 91
64 63 60 58 60 53 43 45 41 46 49 62 65 66 73 71 71 74 75 78 78 88 90 92 96 99 97 98 94 93 95 95 96 89 88 88 88 88 90 95 92 95 94 98

GFSCGP_prec_cthk_087.txt.gz
RH
32 36 41 49 47 45 48 41 40 40 43 44 41 38 34 33 30 30 37 37 42 39 41 43 49 48 45 40 34 38 49 68 78 78 74 74 79 81 88 89 92 92 93 93
32 32 39 51 51 51 56 47 43 41 40 44 40 40 35 33 32 29 32 41 43 42 39 44 49 44 41 34 34 39 53 76 82 82 76 77 84 88 90 92 92 89 85 91
40 36 37 48 55 61 54 55 53 47 45 46 42 40 37 32 33 33 29 33 37 41 40 43 47 42 38 33 32 38 54 72 81 84 87 91 93 95 95 92 88 84 85 87
44 39 46 44 47 53 58 57 53 51 49 49 45 41 36 34 29 29 30 35 34 34 41 42 45 44 34 32 32 37 49 62 76 93 90 95 95 95 94 93 88 87 85 85
45 45 37 46 48 47 53 55 55 54 48 49 44 43 33 35 33 32 34 38 39 34 39 41 45 42 34 34 29 33 42 52 63 73 91 93 92 94 91 91 88 91 90 88
47 50 48 36 37 51 43 57 54 52 49 51 45 46 41 35 34 35 36 36 37 34 37 41 45 41 33 32 26 29 36 45 52 64 86 96 98 96 92 90 89 89 88 89
45 37 36 48 39 43 46 48 58 60 58 53 44 41 43 34 36 37 37 36 32 32 36 40 42 38 31 31 26 27 30 36 44 56 73 92 97 98 94 91 90 88 87 90
38 40 28 26 34 46 50 47 49 54 54 52 46 46 43 31 34 35 36 37 36 33 34 37 40 38 32 32 28 30 31 32 40 47 56 66 74 78 81 84 81 77 82 84
38 38 36 30 27 23 31 43 34 45 54 61 56 50 47 33 35 38 39 38 38 32 33 38 41 38 34 32 29 29 33 34 37 43 47 53 56 60 62 65 67 67 71 73
44 41 32 27 35 31 27 23 32 34 49 56 46 41 37 41 36 40 39 43 41 29 31 39 40 41 38 36 31 30 32 34 36 41 45 47 51 54 55 59 58 58 59 62
49 43 41 30 25 37 34 36 36 40 40 41 48 38 44 46 40 46 48 43 41 30 34 38 41 42 39 39 34 32 31 31 37 38 42 46 48 52 55 54 54 57 57 57
57 56 44 43 43 35 38 37 29 36 44 45 47 43 47 45 40 46 45 47 39 34 34 39 45 46 43 41 39 33 32 30 35 35 38 44 47 51 57 60 60 60 60 63
46 54 54 44 34 39 37 37 40 42 43 45 56 51 46 44 49 45 44 50 46 40 42 45 46 46 44 44 43 41 39 35 35 40 39 41 46 51 54 56 61 66 65 67
38 37 44 60 78 64 50 43 46 44 47 47 46 49 46 56 51 46 46 54 53 50 44 49 48 46 48 47 48 46 44 43 41 41 43 44 42 43 49 57 65 63 60 61
44 44 36 31 34 53 55 55 53 44 43 47 46 50 48 42 43 56 51 55 55 54 50 48 51 51 51 50 49 51 50 49 50 50 48 50 49 47 48 50 53 53 54 56
63 56 54 51 37 32 37 44 39 42 46 45 47 43 49 50 53 52 42 47 52 55 54 51 49 54 55 53 49 51 52 52 54 52 52 55 56 52 49 45 45 48 52 55
65 64 65 58 42 60 48 41 45 48 50 49 46 42 46 49 54 54 48 46 50 55 55 56 55 51 53 54 52 51 54 53 53 54 54 54 50 52 51 51 47 44 45 48
67 67 72 68 53 51 33 54 54 56 49 45 41 46 50 53 55 59 48 50 48 50 55 53 60 57 53 54 59 56 52 52 52 51 53 51 49 48 47 49 49 50 49 46
71 71 86 74 58 42 44 53 52 56 55 68 56 50 51 50 48 53 56 48 53 54 54 55 52 57 58 54 57 60 57 56 57 51 51 54 52 51 53 55 56 58 56 51
68 74 75 70 64 64 68 60 62 66 79 89 78 66 68 59 71 73 70 52 52 54 53 51 54 53 56 62 60 64 62 64 62 63 62 63 62 61 61 62 56 55 57 58
70 75 72 69 59 63 81 66 68 75 93 85 92 84 81 65 67 73 69 66 61 58 57 55 54 58 57 57 63 64 68 70 71 68 71 70 67 67 63 63 66 63 64 66
79 83 85 68 60 67 66 70 77 87 90 90 97 90 85 76 72 63 67 68 68 67 64 60 59 57 59 60 61 71 72 72 71 64 68 71 71 70 70 71 76 74 74 72
77 79 83 59 58 90 77 83 82 80 79 81 90 90 90 84 82 79 74 75 73 68 71 73 68 68 68 66 64 65 68 71 75 74 78 78 79 77 77 79 82 84 81 75
65 77 97 90 85 89 82 88 78 70 72 71 69 77 80 77 72 74 74 71 70 71 70 77 81 83 82 78 77 75 72 70 70 74 78 75 79 78 81 89 88 93 88 83
71 75 65 68 83 86 92 90 86 74 65 64 64 68 72 78 82 72 74 71 72 78 77 80 86 87 92 88 85 83 81 80 79 79 83 83 86 89 92 93 90 90 94 92
79 79 70 80 79 71 73 74 64 59 58 50 52 58 69 65 70 72 69 71 73 76 84 87 87 94 98 97 95 94 92 89 90 90 92 94 96 98 95 97 96 97 94 93

GFSCGP_prec_cthk_090.txt.gz
RH
25 26 23 28 37 43 50 51 50 45 45 39 40 45 45 36 37 34 31 32 35 40 48 50 40 42 47 43 39 34 32 40 50 66 70 69 68 69 74 79 84 91 94 95
32 24 25 27 32 42 45 46 47 47 49 43 46 45 44 35 35 36 35 31 34 38 47 51 39 43 48 41 35 30 33 43 56 72 72 72 69 75 79 83 89 92 94 92
45 34 30 32 28 37 44 48 50 59 58 50 45 45 45 34 35 37 37 34 31 38 46 48 41 42 47 41 33 29 34 46 58 77 77 71 69 79 86 94 93 94 95 92
46 45 40 46 42 33 40 47 59 67 71 66 52 51 45 37 37 39 37 34 32 33 42 45 43 42 46 41 30 30 33 42 53 64 76 82 80 82 89 92 95 95 94 96
33 41 44 43 41 44 43 51 63 72 74 66 54 53 43 34 34 37 37 31 28 33 36 44 43 42 46 41 28 27 32 40 50 58 62 80 86 89 91 92 93 87 90 95
38 39 47 48 49 44 51 53 57 63 68 74 59 53 45 36 37 41 36 32 34 35 39 41 42 44 44 41 30 26 29 36 42 53 63 82 87 91 94 91 89 86 85 90
35 38 44 54 54 48 47 55 63 75 78 67 52 50 45 35 36 41 40 38 36 36 38 37 41 44 42 39 30 29 28 32 38 48 59 84 91 93 94 90 88 83 83 82
41 40 39 46 46 46 50 49 56 67 80 83 68 57 40 39 38 40 41 37 36 37 38 34 38 43 41 39 29 29 29 33 36 46 53 63 79 86 88 87 87 84 85 82
48 44 35 39 42 46 52 55 46 56 56 68 67 65 50 43 35 35 37 39 39 40 42 39 39 42 42 39 30 29 30 32 37 42 49 53 54 59 63 65 70 71 77 77
53 60 53 44 38 40 42 51 61 61 63 58 51 53 50 44 43 40 42 40 42 40 40 39 36 41 43 40 33 29 30 31 34 39 44 49 50 52 54 57 57 59 61 65
58 58 47 50 35 35 38 39 44 43 47 52 53 53 53 51 50 47 48 52 45 40 42 41 35 40 43 42 36 31 29 30 32 35 41 45 48 49 52 51 54 54 54 55
65 49 53 52 50 44 44 44 36 43 49 48 41 44 50 52 60 54 52 52 43 39 37 45 39 43 43 44 41 35 32 29 30 32 37 42 48 52 54 56 57 58 57 55
41 53 61 55 46 51 50 53 49 44 47 53 64 45 44 55 49 55 48 54 53 43 41 43 47 48 48 47 46 38 34 32 33 31 33 37 43 49 53 55 59 63 65 64
42 37 45 63 82 67 62 55 52 55 62 53 44 40 39 46 46 47 50 50 55 44 39 46 54 56 50 49 44 43 41 40 38 39 35 35 40 43 44 48 56 64 66 65
51 42 36 27 44 58 57 52 54 53 53 55 53 51 41 45 49 52 55 61 54 55 49 46 51 56 55 50 48 48 46 47 46 44 45 41 40 44 45 48 52 57 58 60
55 61 49 48 34 40 53 47 43 46 46 45 44 40 41 40 45 47 49 52 46 53 54 51 49 58 57 56 54 54 53 51 54 52 52 54 50 50 50 50 51 52 53 57
61 62 59 53 44 41 41 35 35 36 39 42 50 50 49 40 44 50 51 46 45 48 48 53 53 56 58 60 59 54 54 55 56 57 61 60 58 59 57 57 57 53 49 51
60 61 66 64 56 53 29 30 45 39 43 49 46 46 50 47 40 46 49 54 45 44 48 45 48 57 59 57 63 59 59 58 57 61 61 62 61 63 65 59 60 58 55 49
55 61 74 73 61 45 35 39 44 50 52 59 61 62 72 51 39 45 50 60 61 57 54 50 54 55 59 62 61 66 65 66 63 57 56 59 63 65 66 64 62 63 64 64
60 62 69 72 71 59 55 70 58 58 65 66 70 90 91 67 59 74 66 68 71 70 53 55 53 52 55 55 59 62 69 68 66 67 63 64 66 67 63 65 66 64 65 67
71 75 76 79 77 58 52 70 89 77 80 87 91 96 97 87 86 78 78 84 74 67 61 54 55 52 54 55 57 63 67 71 68 75 76 71 71 70 66 67 68 69 74 74
86 87 84 79 73 70 61 78 93 89 80 79 86 87 95 91 88 80 86 82 71 65 64 57 56 58 57 57 57 60 66 69 70 67 74 73 74 71 68 72 78 81 83 81
88 78 81 80 73 65 70 78 74 77 70 72 77 81 92 88 80 76 90 91 80 66 64 60 60 62 65 66 65 65 69 72 76 71 73 82 84 83 84 80 83 84 90 90
84 76 80 80 83 84 91 93 89 78 77 69 76 79 78 81 88 94 88 79 69 65 61 64 68 69 72 76 75 73 75 79 82 85 87 82 83 92 95 91 95 95 92 98
87 92 86 87 90 91 91 89 86 85 82 76 71 73 75 76 75 83 83 77 72 69 70 70 72 72 79 81 87 88 84 86 83 82 86 85 88 94 97 94 98 99 98 98
96 91 91 99 92 91 93 88 82 78 77 71 66 62 60 74 77 78 82 80 74 74 77 75 73 75 85 91 88 91 96 97 97 94 90 88 88 89 91 91 95 99 97 97

GFSCGP_prec_cthk_093.txt.gz
RH
20 21 22 25 29 33 35 38 39 38 43 47 47 45 42 40 42 40 36 34 33 30 34 36 39 41 33 36 40 38 34 30 33 40 58 64 66 67 67 68 74 80 85 91
20 18 20 21 21 22 25 30 32 37 44 51 47 44 45 44 46 43 36 36 33 30 34 37 38 39 36 36 39 36 34 30 33 47 65 68 70 69 66 67 73 80 85 94
26 23 24 24 23 23 21 26 33 39 43 49 56 48 48 46 43 39 35 35 37 33 35 35 38 41 39 37 37 35 32 30 34 45 64 71 70 70 68 71 75 83 90 95
32 29 31 37 31 34 29 29 30 41 54 58 57 68 56 51 45 38 38 39 38 36 37 33 40 41 39 39 38 32 31 28 35 44 55 65 77 70 74 80 85 89 94 94
25 34 39 38 35 43 39 43 36 50 56 58 62 80 56 53 46 38 36 37 36 36 36 35 39 41 39 41 36 30 27 27 34 40 49 57 74 82 82 87 92 94 95 97
26 31 33 34 38 41 40 49 55 55 59 75 62 76 63 50 45 38 38 39 37 35 34 34 38 39 39 42 35 28 26 26 33 38 46 64 77 83 86 90 93 93 94 96
30 31 33 37 41 44 45 51 67 75 76 68 56 70 63 49 46 45 44 41 39 35 33 34 36 35 37 39 33 25 27 28 33 37 46 66 79 84 90 92 92 91 91 95
32 33 32 31 38 44 49 58 70 74 80 80 68 78 61 59 55 50 46 42 40 37 36 35 39 33 36 36 32 24 27 28 35 38 44 53 66 84 92 93 89 87 87 88
36 37 40 37 36 45 47 55 55 63 60 73 66 63 56 59 57 49 46 44 41 39 40 38 43 39 35 35 33 24 27 29 32 38 42 48 52 61 74 79 82 84 84 86
47 49 46 46 40 45 48 50 62 67 74 68 54 54 69 63 64 58 49 46 44 42 42 41 41 40 34 37 37 28 28 27 30 35 42 45 50 54 56 60 63 66 74 79
71 65 60 56 42 43 45 51 64 63 65 68 65 59 61 64 65 64 59 49 48 45 43 46 41 41 35 38 40 34 29 29 31 33 39 45 47 50 54 55 57 58 56 59
72 69 60 63 57 52 41 44 52 55 54 58 57 51 69 61 73 72 68 62 52 45 45 46 46 46 41 40 41 39 31 30 29 32 35 42 46 49 51 53 56 57 54 53
62 58 54 43 53 68 75 53 49 47 47 51 58 51 52 59 63 70 76 71 66 57 43 46 49 48 46 44 42 44 37 32 30 32 34 37 41 48 50 52 56 61 65 63
49 44 49 61 64 71 72 60 66 67 62 47 42 41 48 53 61 65 72 67 61 62 50 49 49 55 50 49 50 49 46 38 36 35 36 36 39 43 47 49 50 55 62 65
44 43 42 29 46 56 57 53 52 60 75 76 59 54 53 55 60 59 57 63 62 61 54 50 53 62 60 59 58 58 51 46 43 40 39 42 41 42 46 49 49 50 53 59
59 63 59 49 38 44 56 53 48 47 47 55 61 57 52 49 51 54 58 65 61 57 56 54 51 59 60 57 59 58 54 50 49 48 47 46 45 47 45 49 51 53 54 54
64 69 64 58 53 52 51 41 54 54 47 47 52 58 46 47 49 53 60 61 60 63 61 56 56 53 56 67 67 58 53 56 55 55 52 54 53 53 52 52 53 55 57 59
66 61 62 65 56 63 39 38 46 57 66 62 63 62 54 44 40 47 59 56 52 56 58 59 56 53 52 54 64 75 72 59 57 55 57 56 56 60 64 63 61 61 58 59
59 66 69 77 71 51 40 53 63 64 67 64 57 53 51 43 38 48 59 67 66 61 58 61 60 60 56 51 55 63 70 73 64 58 57 58 63 64 67 66 69 72 68 68
53 60 67 70 70 66 63 63 57 56 70 65 62 57 53 51 63 67 70 80 72 70 66 71 67 61 59 55 58 56 63 72 76 73 63 68 67 64 66 70 76 78 75 69
75 70 69 70 78 63 67 69 66 90 92 77 70 73 75 83 90 86 80 86 80 78 67 71 73 71 69 61 57 56 59 65 70 73 77 74 73 73 71 73 76 79 77 73
85 90 85 81 82 76 64 64 82 97 90 77 72 79 79 97 98 95 88 82 89 89 85 73 76 74 68 64 60 61 60 60 64 70 75 77 78 82 76 76 81 81 80 81
91 83 87 79 79 88 83 77 78 82 78 73 72 76 86 85 93 95 99 93 88 83 82 80 83 77 61 60 63 61 64 65 65 69 77 82 88 90 90 81 80 85 89 89
86 91 87 87 91 94 96 85 91 85 78 72 71 73 80 85 88 92 95 95 86 76 74 80 73 58 59 63 67 72 72 69 70 73 80 85 88 91 90 91 91 92 92 96
90 96 97 95 95 93 92 90 86 82 84 80 73 71 74 77 84 84 91 92 90 85 78 72 69 69 64 70 72 77 79 80 80 82 87 89 93 95 94 93 94 93 93 93
92 96 98 97 97 96 93 90 86 79 77 76 70 65 67 64 70 84 86 86 92 86 78 77 77 77 71 68 74 80 83 87 87 89 93 93 93 95 99 96 96 96 98 98

GFSCGP_prec_cthk_096.txt.gz
RH
17 22 24 24 27 30 34 35 34 33 35 39 39 28 30 32 35 39 39 37 34 32 30 31 29 33 40 42 37 33 36 34 28 27 32 45 60 67 69 71 77 80 86 88
20 22 17 19 23 26 28 30 28 27 26 30 37 30 30 31 34 40 41 37 37 37 34 35 34 35 38 41 41 39 35 32 26 25 36 50 61 62 68 71 72 73 92 86
20 18 18 19 22 23 21 21 20 21 24 30 37 28 27 28 34 40 41 40 38 38 39 40 37 35 38 39 41 41 34 31 25 24 36 50 61 67 68 69 69 71 78 84
29 23 19 25 24 26 25 26 26 26 25 29 39 33 27 28 28 35 39 40 41 39 38 40 38 36 40 39 43 42 37 29 23 23 35 46 54 62 67 65 65 70 76 83
26 31 30 29 32 38 29 36 35 35 37 41 48 57 25 31 34 36 40 39 42 42 41 41 38 36 42 44 44 43 38 28 21 22 32 42 53 66 70 69 71 78 85 89
21 22 27 31 34 40 39 41 46 49 52 60 52 61 25 38 38 41 42 47 45 44 44 42 40 39 43 47 45 44 37 27 21 22 31 45 58 76 79 80 82 87 89 89
22 21 23 28 33 42 48 52 62 66 68 63 48 58 36 39 50 51 45 45 44 45 42 44 39 41 44 45 45 43 33 26 22 24 33 51 60 78 83 87 90 88 92 92
30 29 24 26 28 36 44 52 59 66 69 56 59 62 53 53 59 64 53 49 48 47 43 44 38 38 39 43 44 41 31 25 23 26 33 48 59 71 90 90 92 91 92 94
29 25 24 26 28 36 38 51 46 55 61 67 61 53 46 51 67 72 64 58 52 43 41 42 41 42 39 43 44 39 31 25 24 26 33 43 51 60 73 91 91 91 91 92
33 41 37 37 35 39 37 40 60 64 66 71 59 51 47 56 82 81 77 67 55 49 48 48 44 44 46 45 43 41 33 25 24 27 32 38 46 51 57 64 72 80 85 88
50 55 49 51 40 40 44 51 62 62 68 72 68 53 60 75 90 89 82 69 63 60 63 51 47 46 48 44 44 42 36 27 27 27 31 37 43 48 51 55 60 63 67 78
64 64 64 65 62 53 47 49 56 70 70 66 65 58 61 75 85 81 82 75 70 65 60 67 54 48 48 43 45 44 41 32 28 27 30 36 43 47 48 52 56 58 56 57
71 74 77 68 74 67 74 60 55 60 58 66 67 65 66 66 75 74 82 78 73 67 59 62 59 50 50 46 50 49 47 41 33 28 31 34 39 47 50 55 58 61 63 59
71 71 70 69 61 70 73 74 58 65 78 73 62 53 59 65 64 75 78 84 77 65 58 58 62 54 53 50 54 53 51 50 40 32 31 35 37 41 48 53 57 61 65 67
71 67 56 54 54 51 57 72 72 64 66 72 68 70 68 68 68 76 78 75 78 72 62 57 64 58 57 57 59 58 55 55 51 43 37 39 40 39 42 47 54 55 57 62
73 70 52 47 43 47 50 60 65 66 64 66 64 69 79 76 73 75 69 67 67 75 71 59 59 67 64 68 67 67 65 62 60 51 46 43 42 45 45 45 49 54 55 56
70 61 57 62 59 49 45 38 55 57 76 77 73 81 83 78 74 75 72 67 71 80 77 73 72 67 67 69 75 72 76 75 70 64 58 54 52 49 51 53 51 51 54 57
54 58 63 67 57 65 50 53 52 71 84 81 79 76 73 70 72 76 68 70 72 79 81 77 71 70 68 67 67 69 71 67 74 70 66 63 62 67 64 60 58 56 57 58
45 53 63 71 72 51 52 61 71 73 85 83 89 82 76 68 65 62 66 66 73 75 79 76 72 67 69 66 65 62 59 61 71 79 73 71 73 70 72 70 67 67 66 66
51 53 63 76 71 70 71 67 62 66 82 73 68 66 64 58 58 63 65 67 71 75 77 78 76 65 64 70 65 64 58 55 58 64 73 80 75 75 72 73 76 80 78 76
64 66 69 73 78 68 68 69 67 70 78 68 68 70 72 72 74 73 76 75 82 80 80 80 74 71 70 66 63 63 61 59 57 52 60 70 78 83 84 85 86 82 82 83
85 84 77 76 77 71 63 63 66 80 85 81 85 84 80 81 75 81 92 84 83 74 73 77 76 69 66 65 67 68 67 66 60 55 52 58 69 77 84 86 90 93 91 88
96 87 87 76 73 77 78 78 77 74 78 79 77 76 75 77 79 87 93 97 94 86 81 76 72 69 70 69 65 63 64 67 63 60 59 57 60 67 74 87 93 97 95 94
97 95 95 92 91 88 91 90 83 83 83 81 80 74 69 69 76 84 88 95 97 96 90 78 71 66 61 68 68 71 70 70 68 66 64 67 67 70 74 80 89 95 97 98
92 92 99 98 98 92 90 89 87 84 78 75 76 74 65 64 66 72 82 84 93 97 92 85 80 72 65 61 62 64 69 69 68 72 75 76 77 80 81 82 85 90 94 95
96 93 92 98 97 94 93 94 89 85 81 77 70 67 63 61 63 65 69 79 86 92 96 91 85 80 78 74 70 69 64 64 70 74 79 81 83 86 87 88 91 90 95 95

GFSCGP_prec_cthk_099.txt.gz
RH
21 24 25 29 30 31 35 36 37 35 35 34 31 28 27 30 30 29 30 33 34 34 35 35 33 31 34 35 35 40 43 42 39 38 29 24 27 35 50 62 71 70 72 82
26 25 21 21 25 28 32 34 33 32 32 31 27 21 20 22 26 28 28 31 35 35 35 35 35 33 35 35 37 40 44 44 40 38 28 22 25 41 51 63 70 75 77 79
30 26 21 19 21 25 26 29 25 26 25 22 22 18 21 21 23 23 25 28 32 36 34 34 35 36 36 37 39 41 44 46 43 37 27 22 30 42 50 64 70 73 75 91
32 29 25 23 22 22 23 23 23 24 25 26 27 23 17 20 21 23 23 23 25 34 34 35 38 38 38 40 43 44 46 49 46 37 24 21 26 37 47 56 64 74 80 78
27 30 29 25 22 27 27 32 35 34 33 31 30 46 24 26 25 23 22 25 27 29 35 37 41 40 42 43 45 45 47 51 47 36 24 22 28 37 49 59 65 65 67 75
19 21 25 30 30 32 37 37 39 40 41 51 37 51 24 25 29 27 28 31 36 32 38 41 44 44 46 48 48 47 48 51 47 32 23 24 31 42 56 73 67 67 70 76
16 17 19 24 29 32 35 39 52 59 67 50 45 53 30 32 30 35 39 40 42 39 39 46 44 45 46 45 50 50 49 51 42 29 23 26 34 48 59 75 75 74 77 81
28 24 18 15 18 25 33 42 54 59 59 43 49 54 37 35 39 41 41 44 57 51 47 48 44 47 46 44 50 50 50 46 36 26 24 30 38 51 60 81 82 82 83 88
30 27 20 23 24 25 29 43 50 60 55 62 57 47 36 41 46 47 49 57 68 59 55 53 48 48 46 42 45 47 47 43 34 26 24 31 38 45 54 74 87 91 91 90
36 37 25 30 32 32 33 34 55 63 66 67 54 50 50 51 57 55 57 71 76 65 61 55 54 52 47 42 49 51 51 42 32 26 25 31 37 42 48 57 76 86 87 88
47 47 34 41 41 39 43 43 48 50 61 68 63 57 59 58 57 65 73 93 86 74 66 68 66 58 57 53 54 51 48 41 31 27 26 30 36 40 44 50 57 63 72 82
70 61 54 44 51 55 43 47 56 63 61 69 73 61 61 60 59 68 82 92 88 80 72 65 64 62 57 65 60 56 48 44 34 29 28 29 35 39 42 46 52 55 62 66
92 85 74 58 61 60 77 63 56 62 64 69 73 68 58 61 64 76 88 92 90 80 73 62 58 60 61 65 67 62 52 48 41 34 29 30 32 38 43 46 48 52 54 57
85 86 93 82 67 63 76 71 70 64 74 69 67 63 65 69 71 74 77 83 91 80 74 62 57 63 63 65 71 66 57 54 50 43 35 31 31 34 38 44 51 54 58 61
88 86 93 83 67 69 77 72 79 70 66 70 68 71 75 83 76 72 75 79 87 84 74 72 72 69 71 72 76 75 71 66 62 57 45 36 34 35 37 40 46 53 55 58
87 95 90 82 70 61 61 57 55 64 66 66 75 72 81 86 84 82 82 81 81 87 85 81 77 78 75 77 78 78 79 74 69 68 62 58 51 46 41 42 44 48 55 57
83 85 85 70 57 48 49 46 49 62 70 73 84 93 87 87 89 89 88 86 87 88 90 92 86 82 79 79 75 77 80 83 83 80 75 68 64 58 58 51 49 50 51 58
77 71 75 70 59 61 57 67 66 68 76 80 87 89 88 87 92 91 89 86 85 79 83 85 83 79 79 76 75 76 78 79 84 87 84 81 77 72 71 65 62 57 61 60
67 67 76 72 74 58 75 73 80 89 97 92 90 91 88 86 85 82 78 79 80 81 76 72 80 79 77 74 75 73 73 76 79 79 82 83 81 80 78 79 81 78 72 67
67 50 64 70 71 69 71 73 73 72 96 89 84 81 78 77 84 81 76 73 77 73 70 72 78 78 76 72 71 68 67 66 66 67 70 67 68 73 76 80 81 84 87 87
75 66 70 76 77 63 63 66 69 77 75 72 72 71 72 73 72 75 80 75 74 71 66 70 78 78 75 76 76 72 67 61 63 62 61 61 63 62 65 75 85 87 90 92
85 83 74 70 75 68 63 62 66 75 76 75 76 77 74 75 74 79 85 83 88 85 93 78 76 82 80 82 80 77 70 69 68 69 69 66 64 59 56 64 74 84 88 89
94 89 84 78 72 71 77 79 76 73 70 73 77 78 77 76 72 72 78 97 96 98 98 92 75 67 70 73 72 71 70 71 69 69 63 64 63 62 59 58 64 72 81 86
98 98 96 90 88 85 83 86 87 85 82 81 83 81 78 72 69 69 81 90 99 98 98 97 86 74 66 61 63 65 64 66 69 70 71 70 68 67 65 66 65 72 79 82
96 98 99 97 98 98 95 94 96 91 86 79 78 77 76 71 62 61 66 78 90 97 95 93 89 85 80 71 69 61 56 59 62 66 69 70 72 74 73 68 69 73 77 80
96 98 97 98 96 97 98 96 95 92 86 81 78 75 70 64 61 59 61 65 76 88 89 88 91 93 87 83 77 68 66 65 63 61 61 61 65 72 74 77 78 80 81 83

GFSCGP_prec_cthk_102.txt.gz
RH
37 37 35 35 33 34 34 37 38 35 36 38 37 32 33 32 30 29 28 27 29 30 31 32 33 33 33 34 34 36 37 38 42 45 43 40 37 31 29 33 41 53 66 70
43 41 33 28 29 32 34 37 38 35 34 35 34 27 25 23 20 20 20 22 24 25 29 32 32 31 32 36 35 37 37 38 40 46 45 42 36 30 28 36 44 56 67 74
41 37 30 26 27 28 30 34 32 32 28 26 26 21 19 20 19 18 18 19 20 22 25 28 29 31 32 34 36 38 37 39 42 46 47 45 36 26 26 34 44 52 68 78
45 41 36 29 28 26 28 25 26 26 25 27 29 29 21 19 17 18 18 18 20 23 25 26 28 29 32 36 39 39 42 41 44 46 48 45 33 21 23 34 43 54 69 83
40 41 34 32 27 28 27 25 27 31 33 33 38 37 30 23 19 19 21 23 25 29 29 25 25 28 31 35 41 41 45 47 47 47 50 46 31 20 25 36 50 65 68 74
30 30 32 36 32 30 28 34 39 41 40 46 37 36 31 27 25 26 27 30 34 34 31 31 27 27 30 34 42 46 46 48 51 52 52 45 26 21 30 41 55 70 69 74
19 19 19 22 29 32 32 38 48 58 61 46 38 41 24 29 30 35 37 35 37 39 38 38 33 29 33 36 45 49 48 48 52 55 52 40 24 24 32 45 56 73 72 66
34 26 16 13 18 27 32 36 45 52 53 44 46 49 36 32 38 37 38 43 44 39 39 44 42 35 34 42 48 50 50 51 52 56 49 32 23 28 35 45 60 78 75 72
36 29 24 27 27 24 26 35 37 44 43 51 44 38 32 36 36 37 41 41 43 46 45 45 47 41 41 50 51 49 53 52 53 53 45 27 25 31 39 45 59 83 82 79
44 40 31 34 33 33 31 30 40 50 58 55 45 44 43 39 42 43 44 46 48 54 57 58 57 50 54 58 59 58 53 51 52 52 38 26 27 34 40 45 49 72 82 83
58 47 39 31 36 42 42 40 40 41 48 52 47 42 41 46 48 52 54 53 54 62 70 73 66 58 63 64 58 56 53 49 52 50 34 25 28 35 39 44 47 50 59 71
70 67 58 43 39 46 44 45 44 51 48 55 54 41 46 48 50 53 58 57 65 81 87 82 74 66 67 64 61 54 54 53 56 47 32 26 29 34 38 43 47 49 51 53
79 76 76 57 49 48 54 53 49 50 50 49 63 53 57 60 59 60 68 67 69 86 93 86 75 71 72 69 65 61 62 61 63 51 35 29 32 34 39 43 48 51 53 55
76 79 77 74 81 73 65 55 56 57 65 62 63 62 61 64 65 69 82 74 83 90 97 96 94 83 78 76 73 72 68 68 65 60 46 35 33 34 39 45 49 52 55 57
82 85 79 72 76 72 77 77 61 65 64 67 63 63 68 71 75 81 84 82 91 95 97 97 97 90 84 81 78 73 70 75 71 68 58 49 40 35 38 41 47 52 55 55
90 91 81 73 73 81 77 79 75 77 70 81 73 68 74 76 79 88 87 88 93 96 97 97 99 95 89 87 82 78 80 80 81 74 70 65 59 49 43 41 44 48 53 55
96 92 93 78 78 76 77 66 62 71 71 65 62 66 73 85 90 88 88 90 90 90 96 94 96 93 92 92 87 82 85 87 89 85 83 78 71 66 62 57 49 47 49 53
93 87 84 81 74 78 78 63 66 67 66 68 67 67 77 87 90 93 91 92 92 93 91 93 94 96 95 91 90 90 88 93 91 92 90 90 84 78 78 76 71 64 57 54
80 84 82 81 86 67 79 80 82 85 90 90 95 93 86 84 89 89 88 85 84 87 89 92 91 91 92 91 91 90 84 83 85 86 86 89 89 85 82 82 80 76 72 70
78 76 76 76 80 78 69 83 79 78 82 87 90 90 83 76 81 80 76 77 83 81 80 88 88 85 89 87 86 82 79 82 83 87 86 88 87 85 78 76 78 79 82 83
82 85 79 69 72 66 67 82 76 84 76 77 80 82 80 79 78 80 80 76 82 83 83 88 82 78 82 83 83 80 79 79 78 78 78 74 74 72 70 69 70 72 79 85
81 80 82 74 78 74 62 74 76 77 75 77 81 84 80 79 73 73 79 87 84 82 84 88 81 83 76 77 79 78 75 76 76 72 69 66 65 66 67 65 65 63 63 74
89 92 92 82 71 69 76 82 83 79 74 73 73 76 79 82 79 75 77 83 95 94 95 98 96 91 85 80 82 78 76 74 72 70 64 66 65 65 64 60 59 63 65 67
91 95 98 95 92 87 86 90 88 88 88 81 75 79 85 83 78 73 76 81 94 99 99 97 93 91 81 73 65 63 59 61 60 61 63 63 65 67 68 66 67 69 69 71
93 97 98 96 99 98 94 95 98 96 89 84 79 74 80 82 78 69 69 73 86 98 97 97 95 92 89 84 81 74 72 68 63 59 56 58 62 64 69 71 72 73 74 76
97 98 97 98 98 98 98 98 98 93 90 86 81 81 77 73 73 68 67 68 67 77 92 94 93 92 85 82 83 83 82 79 72 67 64 63 59 61 64 66 68 74 79 82

GFSCGP_prec_cthk_105.txt.gz
RH
53 53 49 49 45 43 41 40 39 41 41 39 36 34 34 33 33 32 32 33 32 31 33 32 31 32 32 31 30 29 31 37 40 42 45 47 46 44 42 32 27 30 40 49
50 51 52 48 44 44 44 43 43 43 41 38 33 29 27 26 23 24 23 23 23 24 25 27 29 31 31 30 31 29 31 35 39 43 47 46 47 46 44 33 27 32 42 49
55 53 45 44 44 45 43 42 40 38 35 31 28 22 19 21 22 22 21 20 21 21 23 23 23 25 28 29 30 29 32 36 40 43 47 48 50 48 45 33 27 30 40 50
50 46 55 56 49 47 45 39 34 33 34 31 25 21 22 22 22 22 22 22 22 25 25 24 21 21 23 27 29 28 33 37 42 44 47 49 50 49 44 27 27 32 42 54
56 57 52 49 47 47 43 38 37 35 29 26 26 30 27 27 25 24 25 26 28 29 28 26 24 22 21 24 26 29 34 39 44 47 48 50 53 52 44 25 25 34 49 60
49 51 54 50 46 43 38 42 44 42 39 43 34 32 29 28 27 29 32 31 29 28 29 27 24 23 24 24 27 31 36 43 48 48 49 52 55 52 40 24 27 39 53 63
37 43 45 48 45 45 45 46 51 61 55 44 36 35 28 32 34 35 32 29 30 29 29 29 28 23 23 27 28 32 37 47 52 50 50 54 57 51 31 24 32 45 56 76
32 26 30 32 32 32 34 38 38 44 52 39 41 38 33 35 39 37 35 32 29 28 29 29 29 28 27 29 31 34 41 51 56 54 54 56 58 45 27 27 39 47 67 79
43 38 26 29 23 24 36 39 34 36 40 42 37 39 34 41 39 40 38 35 31 28 29 30 32 33 32 36 36 38 46 53 58 61 58 59 55 34 25 33 40 47 72 78
51 49 49 49 42 33 30 36 43 45 46 44 36 37 34 39 38 40 37 35 35 34 33 33 37 35 37 41 42 42 48 56 62 64 64 63 51 28 28 37 42 47 59 81
72 57 55 50 51 46 40 37 37 36 39 38 39 34 35 38 40 39 36 38 40 40 41 40 47 45 43 47 47 50 55 64 64 64 65 62 43 26 33 38 42 48 53 56
86 74 63 54 48 53 48 48 44 42 45 43 39 35 43 42 40 43 44 46 45 50 51 51 59 60 56 58 57 60 68 68 65 65 65 57 36 29 36 40 43 47 50 53
86 84 71 61 63 53 53 52 47 47 46 42 46 40 50 46 49 50 50 49 54 57 58 64 71 79 80 77 71 71 71 70 68 66 59 53 34 32 39 43 46 49 50 55
76 78 77 66 64 63 58 52 50 50 51 45 40 42 52 55 55 55 56 56 60 63 67 81 86 87 87 87 82 78 76 74 69 67 60 50 35 34 39 44 48 51 53 55
75 78 73 64 69 64 59 56 53 50 46 47 45 51 53 61 66 68 69 71 73 74 70 83 92 94 93 91 86 83 81 78 74 72 64 55 40 37 38 43 47 50 52 54
83 83 76 66 60 61 52 58 61 64 64 58 55 60 69 72 68 74 79 81 80 80 85 91 98 98 99 92 93 89 86 79 80 77 74 70 52 43 41 42 46 49 51 55
97 86 73 68 66 55 47 54 60 66 68 67 68 73 65 61 67 78 86 85 87 90 92 96 96 99 99 99 93 89 88 88 85 88 86 83 78 66 55 48 45 46 49 51
96 89 78 72 70 63 67 65 61 66 65 65 64 64 62 67 82 87 88 90 88 87 88 96 95 97 99 99 96 95 96 96 96 94 91 90 86 81 76 72 66 63 58 53
84 88 81 79 78 67 71 86 84 79 81 81 91 94 85 91 88 86 88 87 80 87 95 91 97 97 98 99 97 98 99 98 97 94 91 96 95 89 83 81 80 81 81 77
87 80 82 77 75 77 83 94 84 81 81 85 89 92 90 83 86 85 83 84 82 86 96 96 97 98 98 98 98 99 99 96 93 94 95 95 86 84 86 86 86 84 85 86
87 90 92 83 70 66 74 85 83 82 80 85 84 84 81 79 83 79 79 82 88 88 92 94 95 95 96 96 98 96 91 92 95 98 95 89 84 82 80 81 78 76 78 80
86 87 88 88 78 59 64 66 71 83 83 81 83 82 82 82 77 72 69 79 89 89 87 89 95 94 96 94 93 90 93 87 86 84 83 83 83 83 78 73 71 70 71 72
92 91 95 87 84 80 77 69 71 80 80 79 75 76 80 84 83 80 78 80 95 96 92 90 96 95 95 92 91 90 88 87 84 80 77 74 71 68 69 68 67 68 69 71
90 95 93 91 91 95 85 86 84 82 82 86 87 85 80 84 85 79 75 77 91 98 98 98 98 98 96 90 85 81 77 73 67 65 65 64 66 65 62 63 65 68 70 70
94 95 98 96 98 97 92 88 89 93 97 93 87 82 79 82 84 79 75 74 78 96 99 98 98 98 97 96 93 87 80 74 73 66 60 57 59 63 63 63 65 66 67 71
95 97 97 97 98 97 96 96 97 98 97 93 90 87 84 80 78 76 71 71 69 73 92 98 98 97 94 92 85 82 81 81 77 70 66 64 63 58 57 58 64 67 69 71

GFSCGP_prec_cthk_108.txt.gz
RH
31 41 41 37 52 52 52 48 44 43 46 45 40 39 39 40 38 36 34 35 35 35 36 34 34 34 34 33 31 30 30 31 35 37 39 40 42 45 49 49 46 42 29 26
28 27 37 49 51 56 56 59 48 43 49 49 40 35 37 38 35 31 29 27 26 28 28 32 33 32 33 33 34 31 31 33 34 36 39 42 44 47 51 51 49 43 28 26
28 31 41 50 56 57 57 56 58 51 50 51 44 35 31 28 26 23 22 21 21 22 25 29 30 29 29 29 30 31 33 35 36 38 40 45 45 50 51 53 50 45 27 28
33 40 40 49 55 60 59 54 48 50 60 47 40 33 28 27 26 24 23 23 24 28 28 29 27 26 25 25 25 26 31 33 37 39 41 44 42 47 52 54 50 45 27 28
39 35 46 54 60 56 53 50 52 50 46 42 38 35 27 28 25 25 26 27 31 30 31 32 30 26 24 22 24 26 29 32 38 41 44 45 49 53 57 59 53 41 29 30
55 53 47 46 52 59 56 56 52 50 49 47 37 31 27 29 29 29 32 33 33 33 31 30 29 26 24 24 24 26 29 32 37 40 47 48 54 54 57 59 51 33 29 33
50 53 58 61 57 59 51 52 62 66 60 47 46 40 30 35 32 34 36 36 34 32 32 31 29 28 27 27 26 27 29 31 36 42 49 52 57 57 60 62 50 27 30 35
46 45 46 55 55 48 48 50 51 61 57 49 51 42 35 33 37 36 32 30 30 32 32 32 32 30 29 30 31 28 29 32 36 42 51 57 58 60 65 64 42 24 30 41
40 41 35 36 43 50 53 55 46 54 50 51 47 47 45 38 37 35 34 34 33 32 31 31 31 31 34 30 30 29 30 32 33 42 52 58 61 64 69 65 32 29 38 44
50 49 36 32 26 37 43 35 45 44 49 45 32 38 36 41 40 39 36 38 36 33 32 33 34 37 37 35 30 30 30 33 34 42 52 60 65 69 71 58 25 33 37 45
59 55 58 55 45 29 34 43 41 41 40 37 33 42 40 40 40 39 38 40 40 40 43 43 42 43 42 38 35 31 33 35 37 44 54 63 69 73 71 44 30 35 39 46
75 72 65 64 65 53 45 40 43 47 47 43 36 41 49 41 40 39 41 44 45 47 46 46 46 43 44 43 48 41 45 41 42 47 58 69 74 75 65 35 33 36 40 46
93 80 67 66 70 66 62 52 42 42 44 48 53 59 58 45 44 45 46 50 52 55 51 50 49 49 53 51 59 56 56 53 54 56 64 73 77 75 53 33 36 38 41 46
83 82 83 71 70 71 65 59 57 54 53 45 44 49 55 50 51 54 54 56 56 57 56 56 55 56 59 67 74 70 70 61 67 72 73 78 80 71 43 35 38 43 44 49
77 71 68 64 68 65 58 55 50 48 47 49 49 43 48 51 58 59 59 56 58 60 60 61 59 66 65 88 87 84 81 75 75 76 80 82 83 60 41 39 41 45 48 51
76 66 58 51 48 55 57 50 48 46 44 44 43 46 53 59 62 65 62 60 65 67 66 67 67 78 77 93 91 90 86 83 82 85 85 87 80 49 43 40 44 46 48 52
82 81 67 60 53 52 50 45 44 50 58 60 62 67 65 66 67 62 61 67 75 74 71 71 81 88 86 96 94 94 90 89 92 92 93 91 72 51 45 42 46 47 49 51
94 84 76 69 60 64 61 55 50 54 63 65 63 64 61 67 66 68 72 75 77 73 72 77 87 94 92 98 94 98 98 97 97 98 95 93 85 71 56 49 47 48 49 51
81 86 86 76 66 59 55 74 69 68 73 74 75 79 77 76 77 79 74 75 74 73 72 79 90 97 96 98 95 98 99 96 98 96 96 93 90 87 81 76 72 67 65 62
83 84 87 73 75 73 88 98 83 84 90 87 86 80 84 82 83 84 81 74 78 80 80 86 93 97 99 98 98 99 98 98 99 98 99 99 96 93 91 89 86 82 83 84
90 95 92 82 76 62 74 85 93 91 95 86 81 78 74 75 80 78 72 73 80 84 86 85 92 98 96 97 98 99 99 98 99 96 95 96 98 95 94 91 89 89 89 89
83 85 84 83 81 72 76 76 85 97 90 84 79 77 74 76 79 78 77 72 83 86 92 88 91 94 97 97 97 98 98 98 96 98 100 96 91 91 88 85 87 85 82 86
93 88 96 94 97 90 83 79 78 78 77 79 74 72 71 78 83 81 79 74 84 94 97 92 91 93 94 95 97 94 95 94 93 97 98 94 92 88 86 85 85 83 82 82
87 87 90 94 92 94 94 90 81 77 78 76 75 79 79 79 82 85 84 78 82 95 98 97 96 95 96 97 92 91 90 85 88 86 84 81 79 77 73 71 69 72 75 78
86 88 96 95 93 92 95 94 92 86 85 84 87 84 78 76 77 83 83 78 78 88 97 98 98 98 98 97 96 93 88 83 82 81 75 69 68 67 69 73 72 70 69 71
95 97 96 97 92 96 95 97 91 93 94 93 93 88 86 84 76 79 78 75 76 77 82 94 98 98 97 97 96 91 91 90 88 84 79 74 69 65 63 63 62 67 68 72

GFSCGP_prec_cthk_111.txt.gz
RH
16 15 18 15 26 34 51 54 52 51 48 54 49 45 42 41 43 41 37 39 37 38 39 37 39 38 37 38 38 37 35 35 38 37 39 43 41 40 41 47 50 51 47 45
27 17 10 18 28 36 53 56 57 51 55 54 51 49 44 42 41 42 41 39 36 36 37 40 38 35 39 40 41 40 38 36 36 37 38 42 42 41 42 45 50 53 51 49
32 11 12 23 27 34 46 52 53 53 54 53 50 48 43 37 37 39 39 35 31 30 30 32 31 38 41 39 36 37 36 36 36 38 40 41 42 43 43 45 47 51 53 50
35 18 23 21 26 33 42 52 59 62 65 62 61 55 46 42 35 33 32 28 27 26 27 30 39 38 39 32 31 30 31 32 34 38 40 39 41 42 43 47 49 53 56 53
51 45 35 31 27 38 43 58 64 64 63 59 54 57 45 38 32 37 35 31 32 34 40 39 41 37 37 35 35 30 26 27 30 34 39 39 42 43 47 47 50 55 58 53
52 49 48 41 44 50 57 58 58 57 58 58 46 45 41 39 40 34 34 38 44 45 42 36 35 36 34 38 33 31 31 31 29 32 36 38 43 49 48 52 52 55 61 58
70 75 50 53 54 57 60 67 74 73 66 51 46 45 36 36 39 44 49 51 46 45 37 37 37 36 36 34 33 30 29 31 32 32 30 35 43 50 51 53 56 56 62 57
54 65 68 58 53 52 59 59 71 72 67 53 46 49 41 38 44 50 53 56 51 45 40 40 43 41 38 38 35 31 29 32 35 34 30 33 42 50 55 55 55 58 63 55
53 54 54 62 60 58 57 55 54 59 62 67 57 49 54 46 52 53 46 43 43 42 43 47 44 42 38 34 32 31 32 31 36 34 33 33 42 51 55 55 57 60 64 45
67 54 48 50 58 56 55 53 57 58 57 52 42 49 50 49 49 44 38 41 44 46 48 44 45 41 36 35 30 31 32 33 32 32 32 33 41 50 55 56 58 62 60 36
72 65 50 43 39 36 46 54 52 49 46 47 47 46 52 56 53 54 52 61 52 50 46 49 45 42 39 38 34 31 33 37 38 33 33 35 44 50 57 58 61 63 50 38
82 78 65 50 49 40 31 37 47 44 47 45 53 75 59 62 57 51 56 55 57 57 50 49 46 47 45 41 39 39 41 44 42 38 40 37 46 52 61 62 63 59 48 38
86 76 91 90 63 45 37 32 45 48 49 62 53 45 60 53 52 51 55 63 71 66 55 52 48 47 47 45 45 44 49 52 50 45 45 45 50 58 64 67 65 51 52 38
87 82 90 89 91 68 66 52 45 50 54 49 51 76 74 70 62 64 63 66 58 55 53 54 55 53 50 48 49 46 56 62 56 54 52 51 58 64 68 73 63 53 52 39
84 86 79 81 80 75 80 73 62 59 59 62 64 64 78 87 79 58 65 59 57 55 54 57 55 51 49 54 55 54 66 67 70 65 60 61 68 71 75 74 58 59 48 42
63 73 63 59 55 62 65 58 58 58 54 54 48 53 66 56 49 54 58 56 56 56 58 59 56 53 56 58 61 62 74 77 83 74 68 69 76 79 82 72 62 60 46 45
68 66 61 58 50 49 48 51 50 53 53 54 58 73 80 77 70 68 63 66 62 61 60 58 58 58 61 63 71 78 84 92 89 86 81 78 78 81 81 70 65 56 48 49
76 71 64 68 50 55 54 54 49 50 67 63 66 72 72 67 62 67 67 67 67 62 62 62 64 65 71 75 77 88 92 95 92 92 90 86 86 90 83 70 61 54 52 52
81 80 75 72 60 62 51 62 76 74 80 73 70 73 75 71 72 72 74 70 65 62 63 67 68 72 83 87 91 84 96 96 95 96 92 92 93 89 84 68 58 56 54 55
63 68 75 77 68 73 97 75 69 79 94 87 80 78 74 76 77 79 73 66 67 68 71 75 76 77 88 95 98 97 98 98 98 98 98 97 94 94 88 67 60 58 59 57
81 83 83 74 72 79 82 72 84 88 99 96 87 82 77 72 70 73 71 70 71 78 80 80 82 85 95 97 98 97 98 98 98 99 99 98 99 98 97 93 82 79 79 81
86 88 93 82 84 87 76 71 91 97 97 96 88 82 77 73 76 78 76 72 73 83 88 91 91 91 95 96 97 98 98 98 97 98 98 99 97 98 99 98 98 95 90 86
86 84 92 97 98 92 88 83 92 90 91 90 88 81 76 73 72 77 80 76 72 80 88 97 96 96 96 97 97 99 97 98 99 99 98 98 99 98 99 98 99 97 94 94
89 80 83 83 92 95 97 95 96 92 82 80 79 76 75 75 73 75 78 80 75 78 92 98 98 98 98 97 98 98 96 94 97 96 96 97 97 97 99 98 96 97 97 96
82 80 86 86 88 91 94 97 97 95 88 84 84 84 83 78 75 72 76 82 80 76 85 94 98 98 98 98 98 97 96 95 87 85 85 83 84 84 87 84 83 84 84 87
83 89 92 94 96 95 98 97 98 97 90 90 90 94 90 84 82 78 75 78 77 76 78 80 90 93 97 98 97 97 95 91 90 89 88 80 74 71 73 76 79 82 84 83

GFSCGP_prec_cthk_114.txt.gz
RH
42 40 29 21 24 19 22 32 35 34 40 49 50 43 43 44 42 39 41 45 44 41 39 36 35 35 38 39 36 37 42 45 44 42 41 40 41 40 42 42 42 40 40 47
61 62 31 20 18 27 26 33 41 44 46 56 56 58 47 47 44 41 43 44 43 42 41 40 39 37 37 39 37 37 40 41 42 43 40 41 41 44 43 42 42 40 43 45
76 65 37 31 25 30 25 34 40 38 56 72 61 64 52 50 47 47 46 45 46 46 45 43 44 42 41 40 39 40 40 40 43 42 42 44 43 44 43 43 44 48 48 46
92 70 51 45 31 29 30 29 35 51 61 82 62 60 51 44 46 44 43 43 46 48 45 45 43 41 42 41 39 41 41 40 40 41 40 40 37 37 37 40 42 45 51 47
94 89 63 49 24 25 32 39 46 55 66 67 67 60 40 49 50 46 45 40 41 43 39 36 40 41 45 45 43 45 36 33 32 35 36 36 34 34 37 39 41 47 49 49
88 70 67 41 35 30 38 49 58 62 61 70 51 62 45 48 46 49 43 40 39 39 40 41 47 51 51 46 47 42 34 32 33 31 35 35 31 31 37 40 42 45 50 50
71 66 62 45 47 37 49 57 71 79 70 52 53 62 44 44 43 45 39 38 49 51 56 58 58 56 53 51 52 47 38 32 32 33 31 35 35 33 38 44 47 47 49 49
55 91 64 47 48 45 57 53 58 62 61 50 51 53 41 44 40 42 47 52 61 62 65 62 60 58 59 53 44 38 33 30 29 30 35 32 34 35 39 45 54 48 50 48
84 69 69 61 54 55 59 57 60 68 70 71 53 49 49 43 50 54 58 61 65 63 64 66 63 61 54 43 35 31 29 28 27 27 30 39 31 34 40 48 55 56 53 51
79 85 61 73 58 55 59 58 68 66 70 75 85 54 64 47 55 62 73 63 64 68 67 66 65 61 46 39 34 31 29 28 28 27 28 34 31 34 39 46 57 58 55 53
65 80 61 50 66 68 66 60 60 58 58 59 68 79 61 58 56 69 62 64 68 71 65 59 53 46 44 41 36 33 31 28 28 33 32 33 30 32 39 48 57 58 55 56
67 76 83 57 46 45 53 52 55 64 57 51 56 65 63 66 61 62 70 69 67 85 79 63 57 52 47 42 36 33 30 30 32 38 43 38 36 34 42 51 59 59 57 60
74 86 85 69 55 44 36 39 47 55 52 58 62 52 59 76 75 81 62 64 67 67 50 49 47 42 43 46 40 38 36 33 37 46 49 47 42 39 42 54 62 60 61 62
83 85 97 98 98 84 57 37 38 47 58 56 64 67 71 86 85 82 71 59 49 52 52 50 46 44 47 48 44 44 41 42 44 48 52 50 47 44 44 57 58 63 66 65
75 86 86 79 75 91 89 68 55 42 48 53 80 78 79 84 82 90 79 67 56 53 49 48 46 44 49 50 48 48 46 46 50 55 56 57 54 51 51 57 60 71 70 63
61 74 71 65 61 69 86 81 76 66 58 65 65 69 87 94 91 88 75 53 53 49 53 53 50 52 54 53 51 50 50 48 57 65 65 66 66 61 62 64 69 77 75 65
59 69 61 64 58 55 53 62 62 57 56 64 70 87 94 92 81 78 71 61 56 60 59 58 59 59 59 58 57 57 54 54 62 73 76 76 77 74 74 72 78 84 75 70
69 64 63 65 66 58 73 59 58 54 62 66 73 79 79 81 85 76 65 58 61 62 59 59 59 60 63 62 62 62 61 60 68 88 86 91 88 84 79 81 85 85 78 77
65 64 71 68 67 61 80 66 66 70 83 85 81 73 69 69 66 71 73 69 63 64 63 65 66 70 69 68 66 67 67 69 76 91 94 94 95 91 88 89 90 84 80 78
74 62 68 70 74 73 79 79 66 68 92 94 89 78 69 70 76 75 70 69 69 70 74 76 75 73 72 73 73 78 79 81 88 90 96 96 96 96 93 92 87 85 78 82
72 72 69 65 73 93 87 76 70 82 94 98 96 95 84 76 75 77 77 78 76 77 81 82 82 80 77 77 80 89 91 89 96 99 99 96 96 98 99 93 91 82 82 78
88 89 91 86 82 94 91 76 80 96 97 94 98 95 89 83 80 79 83 82 81 82 80 85 86 86 86 86 90 94 95 96 98 98 98 99 97 97 96 96 96 92 80 75
91 87 89 98 97 98 99 94 88 90 93 91 94 92 88 83 81 81 81 85 83 78 79 87 89 94 96 95 96 95 97 97 97 98 98 99 98 98 99 99 99 95 87 83
89 84 86 85 91 88 91 92 94 92 97 92 88 90 89 86 79 76 77 78 82 78 77 83 95 98 97 97 96 97 97 97 97 97 98 98 98 99 99 98 98 98 98 99
82 76 80 86 85 84 90 92 97 97 98 97 89 92 90 88 82 79 77 76 78 81 79 79 86 94 96 96 97 97 97 98 98 98 97 96 98 98 97 98 98 98 98 99
85 79 76 83 88 87 90 92 97 97 97 96 91 91 94 94 89 85 82 79 76 80 80 78 78 81 87 86 87 93 97 98 97 96 97 96 94 90 91 95 97 97 97 97

GFSCGP_prec_cthk_117.txt.gz
RH
33 38 37 30 26 28 32 39 25 22 23 34 35 40 41 45 46 41 40 39 38 38 38 38 36 37 38 34 33 32 32 35 41 44 46 47 40 37 41 44 42 40 43 45
49 55 38 40 40 43 39 41 42 27 27 44 47 55 40 48 47 40 42 41 41 42 43 42 43 43 41 37 36 36 37 43 47 47 45 46 44 38 39 44 45 43 43 46
54 66 62 53 49 62 45 45 45 38 42 63 68 60 51 44 50 45 40 40 44 45 49 48 48 51 48 42 42 42 40 42 44 43 43 42 45 43 41 43 44 44 45 48
66 70 85 69 58 75 51 47 45 40 48 75 70 70 59 54 55 48 44 44 45 49 51 52 52 49 47 46 44 44 43 43 45 48 49 39 37 38 38 40 43 46 46 47
57 72 97 94 70 71 50 38 35 40 56 77 82 83 51 47 56 44 41 42 45 46 53 54 55 52 52 52 51 50 45 44 43 44 46 46 40 37 38 40 43 48 51 47
62 67 82 85 68 67 40 39 46 55 72 96 68 70 48 49 46 47 45 45 47 49 52 60 62 58 54 53 52 50 48 44 43 39 40 43 43 43 39 39 39 43 45 46
51 58 67 70 65 61 48 45 76 91 94 77 56 64 36 33 36 45 46 46 51 54 57 60 61 59 55 55 56 53 53 44 41 37 35 37 40 42 41 40 38 38 42 43
78 87 81 62 78 48 49 57 79 93 76 62 53 49 30 33 39 42 47 53 54 53 57 64 63 59 59 58 60 61 57 49 41 35 30 32 38 37 40 42 41 38 37 43
79 74 72 71 81 70 49 60 61 70 67 66 44 34 39 42 50 52 51 54 61 64 67 66 60 59 60 65 61 58 53 42 34 31 26 25 31 36 34 39 40 40 39 48
74 81 75 71 71 56 43 44 62 67 81 86 81 58 59 61 57 75 73 72 79 77 65 63 63 66 66 62 56 52 43 39 36 34 28 25 25 31 32 34 41 40 40 54
65 77 70 81 80 68 61 59 58 87 75 80 96 87 75 69 63 82 80 80 93 85 77 74 75 68 63 60 50 44 41 38 32 30 29 29 28 28 30 35 40 38 45 49
70 75 75 68 72 66 63 67 65 77 77 66 74 93 88 83 88 77 83 86 94 90 81 74 75 68 62 51 47 45 48 45 44 40 36 33 35 33 34 38 40 41 48 50
76 75 78 72 63 71 79 66 61 63 68 64 73 88 86 90 90 92 87 90 89 83 80 75 66 67 53 44 39 37 37 33 31 31 32 37 39 46 48 48 42 41 50 51
61 78 95 94 93 94 80 67 62 56 67 63 74 88 95 88 96 96 91 89 84 79 74 68 61 53 46 40 35 34 38 36 32 32 36 42 44 49 54 53 43 45 51 55
52 68 82 80 82 97 94 75 68 60 57 60 74 85 95 98 98 96 92 84 77 66 59 56 55 53 46 42 38 38 37 35 36 37 39 45 48 53 54 52 49 52 56 60
47 61 68 79 79 79 82 76 67 64 64 76 81 94 96 97 95 96 87 83 71 56 50 51 47 42 46 45 46 44 42 42 41 41 44 48 52 55 57 55 52 56 64 65
60 62 62 71 66 76 96 91 79 86 86 75 84 95 96 97 93 89 87 80 67 57 50 50 48 46 47 46 47 49 46 44 44 46 50 55 57 63 63 61 58 61 73 68
68 64 63 75 71 81 95 88 91 97 98 98 98 98 98 97 89 86 84 76 66 54 52 55 54 53 51 51 52 52 53 51 50 50 54 61 68 71 70 64 65 72 77 84
77 74 78 84 80 82 85 83 78 86 95 94 94 93 91 92 87 83 73 62 62 64 64 62 60 58 58 58 58 58 57 54 54 55 61 69 77 86 88 89 85 85 83 87
75 77 82 81 80 96 92 79 82 84 89 89 89 90 88 87 79 75 70 69 68 66 66 69 68 68 67 68 70 69 65 64 67 67 72 77 85 93 98 93 95 96 89 86
77 80 83 85 84 97 96 84 73 84 94 89 94 97 93 86 81 76 73 72 70 66 65 68 74 77 78 79 78 76 76 75 80 80 85 89 90 98 98 99 98 94 98 95
93 91 90 85 83 95 90 81 82 91 91 93 91 94 92 86 85 81 78 74 73 72 73 73 81 84 87 86 87 87 86 89 89 89 91 96 99 99 98 98 99 98 99 98
98 88 91 90 92 92 90 91 94 90 88 90 89 91 88 88 85 82 79 76 75 75 75 79 80 89 90 93 95 94 94 96 92 96 97 98 98 99 98 98 99 99 98 95
89 81 83 87 87 85 86 90 93 94 92 94 93 91 88 87 85 80 78 78 76 75 76 77 79 81 91 95 93 92 95 96 95 93 97 97 98 98 98 99 98 98 99 95
90 82 81 80 82 85 85 84 87 90 93 95 95 91 90 90 89 85 84 80 77 77 78 78 81 82 84 89 85 84 89 96 97 96 97 97 98 98 98 98 98 99 98 99
91 88 81 83 85 87 87 86 85 89 92 96 95 93 91 90 94 92 88 86 84 80 76 76 78 80 81 80 78 77 79 83 89 93 96 97 97 98 97 98 98 98 98 98

GFSCGP_prec_cthk_120.txt.gz
RH
29 32 32 29 32 36 37 36 38 23 16 22 23 32 21 29 34 34 36 41 43 42 40 40 38 39 37 33 31 30 33 39 40 42 42 44 48 49 46 42 40 38 40 44
32 38 37 44 49 52 51 53 52 37 25 26 30 34 26 29 33 35 34 35 38 42 43 42 40 40 38 38 36 34 34 35 38 40 43 50 59 62 58 51 44 44 45 47
42 31 38 50 58 76 70 53 50 57 33 39 59 47 35 33 34 35 39 36 38 41 45 44 44 43 42 42 42 43 40 38 40 43 49 55 65 66 59 54 51 46 47 48
36 33 45 53 57 82 88 72 54 57 49 66 67 78 47 38 39 41 41 35 38 41 45 47 49 50 50 50 47 50 52 50 56 59 63 62 56 50 48 47 49 47 47 48
45 51 67 71 74 82 76 87 54 58 47 67 65 85 60 56 48 48 41 38 39 42 49 58 56 56 54 53 52 52 55 59 60 56 56 57 60 60 52 46 46 48 48 50
53 55 65 67 68 71 76 77 74 67 66 74 63 84 56 58 49 49 44 47 49 53 54 61 59 59 60 60 59 60 61 61 62 59 57 56 55 55 56 53 48 45 47 51
54 51 72 85 78 62 73 76 85 82 83 83 66 90 52 47 45 50 54 56 54 57 61 63 62 63 65 67 66 64 65 66 65 64 63 58 53 51 50 46 49 51 52 50
65 58 64 71 94 91 69 63 54 66 72 69 65 70 41 40 45 46 53 65 63 70 64 64 65 65 68 69 67 64 66 65 65 63 60 56 52 47 42 38 39 44 45 45
68 58 55 66 77 78 50 48 43 67 82 67 58 46 45 43 43 45 54 63 70 72 77 70 70 67 69 72 71 68 66 62 56 56 55 48 41 36 33 32 33 37 43 41
66 70 57 69 70 62 59 45 66 79 91 81 78 62 76 73 64 58 60 60 65 69 70 70 71 70 74 77 77 76 71 65 60 55 50 47 39 35 34 26 28 33 37 40
69 76 64 75 95 83 70 65 70 79 86 90 93 95 82 83 82 74 80 82 76 77 78 81 80 76 72 73 72 71 65 59 55 51 45 40 37 34 36 32 26 29 37 43
69 83 84 75 78 78 78 83 77 80 95 94 91 96 96 92 91 88 91 91 89 86 85 84 81 76 75 72 67 64 55 48 43 40 39 36 37 34 32 35 30 29 39 44
54 74 86 71 67 65 89 90 88 92 90 89 85 98 97 96 94 93 96 97 91 88 87 90 82 73 70 69 60 55 45 42 40 38 41 38 36 38 38 42 47 43 41 43
50 68 85 89 85 84 90 89 84 88 91 77 82 98 96 98 98 96 97 95 97 93 94 89 83 78 69 59 49 41 43 44 41 40 38 32 33 37 43 46 50 52 48 52
48 55 63 70 86 94 90 89 82 76 76 73 83 98 98 99 99 98 97 98 94 93 89 78 67 56 49 46 48 45 39 37 34 35 34 34 37 36 40 43 49 55 54 53
52 52 56 71 74 95 95 86 86 81 84 90 88 97 98 98 97 93 95 98 96 86 80 66 56 49 49 50 47 45 44 40 36 33 32 34 34 42 47 49 51 53 54 54
60 58 60 70 68 88 90 97 95 90 86 87 90 99 98 97 92 91 88 88 86 76 67 58 52 49 48 50 43 40 41 40 40 41 37 37 40 44 50 49 51 56 53 55
65 67 68 74 70 94 98 95 98 95 94 96 93 99 99 97 94 89 84 78 75 70 65 62 57 53 50 48 46 44 44 41 39 39 39 37 38 44 52 56 53 60 57 55
78 74 74 80 80 98 90 90 95 95 95 98 97 97 95 94 91 80 74 74 70 67 64 64 60 60 56 53 51 51 50 48 45 42 41 42 45 51 56 61 64 66 63 58
76 81 79 77 81 89 87 82 89 90 95 95 94 91 89 94 90 81 78 75 72 67 58 57 59 59 58 57 59 58 56 54 53 50 49 52 55 59 65 70 71 71 72 62
88 80 83 85 86 86 82 80 78 85 90 94 93 92 90 88 84 85 80 76 71 66 64 64 62 62 64 68 66 62 61 61 62 60 60 63 63 68 74 80 81 87 87 85
89 92 89 83 87 85 77 73 78 86 88 87 87 85 85 86 84 80 78 78 73 69 65 65 66 66 70 72 70 68 68 71 70 69 69 71 71 78 82 88 92 91 96 98
96 88 86 87 88 87 85 86 84 87 87 85 84 84 85 82 83 80 76 78 74 70 68 65 64 65 66 73 75 73 75 78 80 81 82 82 84 85 89 97 99 99 96 98
88 80 79 81 78 80 81 81 82 85 87 88 88 86 86 83 82 80 77 76 73 72 68 69 67 64 67 69 72 72 73 75 80 86 89 89 91 94 96 98 99 98 98 99
86 79 81 80 80 79 78 78 80 81 84 87 87 86 88 87 86 84 83 79 76 72 71 68 67 68 70 73 74 72 70 71 76 86 90 95 95 96 97 97 98 98 98 96
83 82 77 80 81 81 82 80 82 83 83 85 87 87 89 92 91 86 86 85 82 79 76 73 70 70 72 73 77 77 74 72 72 81 90 92 95 97 97 97 97 98 98 98